[[{"header":{"parameterUnit":"m.s-1","parameterCategory":1,"la1":30.6,"la2":29.2853,"lo1":-89.7004,"lo2":-87.6739,"dy":0.0162,"dx":0.0183,"nx":112,"ny":82,"refTime":"2025-04-17T12:00:00:Z","depth":0,"parameterNumber":2,"parameterNumberName":"U-component_of_WINDS"},"data":[0.0,0.0,0.0,0.0,0.0,0.0,0.0,0.0,0.0,0.0,0.0,0.0,0.0,0.0,0.0,0.0,0.0,0.0,0.0,0.0,0.0,0.0,0.0,0.0,0.0,0.0,0.0,0.0,0.0,0.0,0.0,0.0,0.0,0.0,0.0,0.0,0.0,0.0,0.0,0.0,0.0,0.0,0.0,0.0,0.0,0.0,0.0,0.0,0.0,0.0,0.0,0.0,0.0,0.0,0.0,0.0,0.0,0.0,0.0,0.0,0.0,0.0,0.0,0.0,0.0,0.0,0.0,0.0,0.0,0.0,0.0,0.0,0.0,0.0,0.0,0.0,0.0,0.0,0.0,0.0,0.0,0.0,0.0,0.0,0.0,0.0,0.0,0.0,0.0,0.0,-4.1304,-4.4876,-4.851,-5.015,-4.8776,-4.8295,-4.5824,-4.0651,0.0,0.0,0.0,0.0,0.0,0.0,0.0,0.0,0.0,0.0,0.0,0.0,0.0,0.0,0.0,0.0,0.0,0.0,0.0,0.0,0.0,0.0,0.0,0.0,0.0,0.0,0.0,0.0,0.0,0.0,0.0,0.0,0.0,0.0,0.0,0.0,0.0,0.0,0.0,0.0,0.0,0.0,0.0,0.0,0.0,0.0,0.0,0.0,0.0,0.0,0.0,0.0,0.0,0.0,0.0,0.0,0.0,0.0,0.0,0.0,0.0,0.0,0.0,0.0,0.0,0.0,0.0,0.0,0.0,0.0,0.0,0.0,0.0,0.0,0.0,0.0,0.0,0.0,0.0,0.0,0.0,0.0,0.0,0.0,0.0,0.0,0.0,0.0,0.0,0.0,0.0,0.0,0.0,0.0,0.0,0.0,0.0,0.0,0.0,0.0,0.0,0.0,0.0,0.0,-4.1659,-4.7452,-4.863,-4.8627,-4.7725,-4.633,-4.395,-4.0222,0.0,0.0,0.0,0.0,0.0,0.0,0.0,0.0,0.0,0.0,0.0,0.0,0.0,0.0,0.0,0.0,0.0,0.0,0.0,0.0,0.0,0.0,0.0,0.0,0.0,0.0,0.0,0.0,0.0,0.0,0.0,0.0,0.0,0.0,0.0,0.0,0.0,0.0,0.0,0.0,0.0,0.0,0.0,0.0,0.0,0.0,0.0,0.0,0.0,0.0,0.0,0.0,0.0,0.0,0.0,0.0,0.0,0.0,0.0,0.0,0.0,0.0,0.0,0.0,0.0,0.0,0.0,0.0,0.0,0.0,0.0,0.0,0.0,0.0,0.0,0.0,0.0,0.0,0.0,0.0,0.0,0.0,0.0,0.0,0.0,0.0,0.0,0.0,0.0,0.0,0.0,0.0,0.0,0.0,0.0,0.0,0.0,0.0,0.0,0.0,0.0,0.0,0.0,-4.0478,-4.282,-4.7432,-4.8368,-4.8204,-4.7259,-4.6183,-4.3808,-3.9643,-3.7559,0.0,0.0,0.0,0.0,0.0,0.0,0.0,0.0,0.0,0.0,0.0,0.0,0.0,0.0,0.0,0.0,0.0,0.0,0.0,0.0,0.0,0.0,0.0,0.0,0.0,0.0,0.0,0.0,0.0,0.0,0.0,0.0,0.0,0.0,0.0,0.0,0.0,0.0,0.0,0.0,0.0,0.0,0.0,0.0,0.0,0.0,0.0,0.0,0.0,0.0,0.0,0.0,0.0,0.0,0.0,0.0,0.0,0.0,0.0,0.0,0.0,0.0,0.0,0.0,0.0,0.0,0.0,0.0,0.0,0.0,0.0,0.0,0.0,0.0,0.0,0.0,0.0,0.0,0.0,0.0,0.0,0.0,0.0,0.0,0.0,0.0,0.0,0.0,0.0,0.0,0.0,0.0,0.0,0.0,0.0,0.0,0.0,0.0,0.0,0.0,0.0,0.0,-4.2848,-4.4588,-4.7313,-4.8131,-4.8048,-4.6882,-4.5799,-4.3334,-3.8901,-3.6222,0.0,0.0,0.0,0.0,0.0,0.0,0.0,0.0,0.0,0.0,0.0,0.0,0.0,0.0,0.0,0.0,0.0,0.0,0.0,0.0,0.0,0.0,0.0,0.0,0.0,0.0,0.0,0.0,0.0,0.0,0.0,0.0,0.0,0.0,0.0,0.0,0.0,0.0,0.0,0.0,0.0,0.0,0.0,0.0,0.0,0.0,0.0,0.0,0.0,0.0,0.0,0.0,0.0,0.0,0.0,0.0,0.0,0.0,0.0,0.0,0.0,0.0,0.0,0.0,0.0,0.0,0.0,0.0,0.0,0.0,0.0,0.0,0.0,0.0,0.0,0.0,0.0,0.0,0.0,0.0,0.0,0.0,0.0,0.0,0.0,0.0,0.0,0.0,0.0,0.0,0.0,0.0,0.0,0.0,0.0,0.0,0.0,0.0,0.0,0.0,0.0,0.0,-4.3587,-4.688,-4.8347,-4.8396,-4.774,-4.6214,-4.4143,-4.1347,-3.7738,-3.4502,0.0,0.0,0.0,0.0,0.0,0.0,0.0,0.0,0.0,0.0,0.0,0.0,0.0,0.0,0.0,0.0,0.0,0.0,0.0,0.0,0.0,0.0,0.0,0.0,0.0,0.0,0.0,0.0,0.0,0.0,0.0,0.0,0.0,0.0,0.0,0.0,0.0,0.0,0.0,0.0,0.0,0.0,0.0,0.0,0.0,0.0,0.0,0.0,0.0,0.0,0.0,0.0,0.0,0.0,0.0,0.0,0.0,0.0,0.0,0.0,0.0,0.0,0.0,0.0,0.0,0.0,0.0,0.0,0.0,0.0,0.0,0.0,0.0,0.0,0.0,0.0,0.0,0.0,0.0,0.0,0.0,0.0,0.0,0.0,0.0,0.0,0.0,0.0,0.0,0.0,0.0,0.0,0.0,0.0,0.0,0.0,0.0,0.0,0.0,0.0,0.0,0.0,-4.2817,-4.5672,-4.812,-4.8343,-4.7779,-4.6463,-4.5263,-4.2702,-3.8307,0.0,0.0,0.0,0.0,0.0,0.0,0.0,0.0,0.0,0.0,0.0,0.0,0.0,0.0,0.0,0.0,0.0,0.0,0.0,0.0,0.0,0.0,0.0,0.0,0.0,0.0,0.0,0.0,0.0,0.0,0.0,0.0,0.0,0.0,0.0,0.0,0.0,0.0,0.0,0.0,0.0,0.0,0.0,0.0,0.0,0.0,0.0,0.0,0.0,0.0,0.0,0.0,0.0,0.0,0.0,0.0,0.0,0.0,0.0,0.0,0.0,0.0,0.0,0.0,0.0,0.0,0.0,0.0,0.0,0.0,0.0,0.0,0.0,0.0,0.0,0.0,0.0,0.0,0.0,0.0,0.0,0.0,0.0,0.0,0.0,0.0,0.0,0.0,0.0,0.0,0.0,0.0,0.0,0.0,0.0,0.0,0.0,0.0,0.0,0.0,0.0,0.0,-3.9951,-4.2879,-4.5549,-4.812,-4.8343,-4.781,-4.6524,-4.5203,-4.2552,-3.8098,0.0,0.0,0.0,0.0,0.0,0.0,0.0,0.0,0.0,0.0,0.0,0.0,0.0,0.0,0.0,0.0,0.0,0.0,0.0,0.0,0.0,0.0,0.0,0.0,0.0,0.0,0.0,0.0,0.0,0.0,0.0,0.0,0.0,0.0,0.0,0.0,0.0,0.0,0.0,0.0,0.0,0.0,0.0,0.0,0.0,0.0,0.0,0.0,0.0,0.0,0.0,0.0,0.0,0.0,0.0,0.0,0.0,0.0,0.0,0.0,0.0,0.0,0.0,0.0,0.0,0.0,0.0,0.0,0.0,0.0,0.0,0.0,0.0,0.0,0.0,0.0,0.0,0.0,0.0,0.0,0.0,0.0,0.0,0.0,0.0,0.0,0.0,0.0,0.0,0.0,0.0,0.0,0.0,0.0,0.0,0.0,0.0,0.0,0.0,0.0,0.0,0.0,-4.0136,-4.4079,-4.7127,-4.8481,-4.8427,-4.7668,-4.6123,-4.3378,-4.0233,0.0,0.0,0.0,0.0,0.0,0.0,0.0,0.0,0.0,0.0,0.0,0.0,0.0,0.0,0.0,0.0,0.0,0.0,0.0,0.0,0.0,0.0,0.0,0.0,0.0,0.0,0.0,0.0,0.0,0.0,0.0,0.0,0.0,0.0,0.0,0.0,0.0,0.0,0.0,0.0,0.0,0.0,0.0,0.0,0.0,0.0,0.0,0.0,0.0,0.0,0.0,0.0,0.0,0.0,0.0,0.0,0.0,0.0,0.0,0.0,0.0,0.0,0.0,0.0,0.0,0.0,0.0,0.0,0.0,0.0,0.0,0.0,0.0,0.0,0.0,0.0,0.0,0.0,0.0,0.0,0.0,0.0,0.0,0.0,0.0,0.0,0.0,0.0,0.0,0.0,0.0,0.0,0.0,0.0,0.0,0.0,0.0,0.0,0.0,0.0,0.0,0.0,0.0,-4.0136,-4.4079,-4.7127,-4.8481,-4.8301,-4.7502,-4.6123,-4.4609,-4.1663,-3.681,0.0,0.0,0.0,0.0,0.0,0.0,0.0,0.0,0.0,0.0,0.0,0.0,0.0,0.0,0.0,0.0,0.0,0.0,0.0,0.0,0.0,0.0,0.0,0.0,0.0,0.0,0.0,0.0,0.0,0.0,0.0,0.0,0.0,0.0,0.0,0.0,0.0,0.0,0.0,0.0,0.0,0.0,0.0,0.0,0.0,0.0,0.0,0.0,0.0,0.0,0.0,0.0,0.0,0.0,0.0,0.0,0.0,0.0,0.0,0.0,0.0,0.0,0.0,0.0,0.0,0.0,0.0,0.0,0.0,0.0,0.0,0.0,0.0,0.0,0.0,0.0,0.0,0.0,0.0,0.0,0.0,0.0,0.0,0.0,0.0,0.0,0.0,0.0,0.0,0.0,0.0,0.0,0.0,0.0,0.0,0.0,0.0,0.0,0.0,0.0,0.0,0.0,-4.0136,-4.4079,-4.7127,-4.8481,-4.8343,-4.7665,-4.6518,-4.5334,-4.2543,-3.7588,0.0,0.0,0.0,0.0,0.0,0.0,0.0,0.0,0.0,0.0,0.0,0.0,0.0,0.0,0.0,0.0,0.0,0.0,0.0,0.0,0.0,0.0,0.0,0.0,0.0,0.0,0.0,0.0,0.0,0.0,0.0,0.0,0.0,0.0,0.0,0.0,0.0,0.0,0.0,0.0,0.0,0.0,0.0,0.0,0.0,0.0,0.0,0.0,0.0,0.0,0.0,0.0,0.0,0.0,0.0,0.0,0.0,0.0,0.0,0.0,0.0,0.0,0.0,0.0,0.0,0.0,0.0,0.0,0.0,0.0,0.0,0.0,0.0,0.0,0.0,0.0,0.0,0.0,0.0,0.0,0.0,0.0,0.0,0.0,0.0,0.0,0.0,0.0,0.0,0.0,0.0,0.0,0.0,0.0,0.0,0.0,0.0,0.0,0.0,0.0,0.0,0.0,-4.0136,-4.4079,-4.7127,-4.844,-4.8385,-4.7943,-4.7023,-4.5546,-4.2904,-3.8786,0.0,0.0,0.0,0.0,0.0,0.0,0.0,0.0,0.0,0.0,0.0,0.0,0.0,0.0,0.0,0.0,0.0,0.0,0.0,0.0,0.0,0.0,0.0,0.0,0.0,0.0,0.0,0.0,0.0,0.0,0.0,0.0,0.0,0.0,0.0,0.0,0.0,0.0,0.0,0.0,0.0,0.0,0.0,0.0,0.0,0.0,0.0,0.0,0.0,0.0,0.0,0.0,0.0,0.0,0.0,0.0,0.0,0.0,0.0,0.0,-3.8015,-3.6938,0.0,0.0,0.0,0.0,0.0,0.0,0.0,0.0,0.0,0.0,0.0,0.0,0.0,0.0,0.0,0.0,0.0,0.0,0.0,0.0,0.0,0.0,0.0,0.0,0.0,0.0,0.0,0.0,0.0,0.0,0.0,0.0,0.0,0.0,0.0,0.0,0.0,0.0,0.0,0.0,-4.0136,-4.4079,-4.7046,-4.8232,-4.8175,-4.7691,-4.6743,-4.5423,-4.3076,-3.9409,-3.5889,0.0,0.0,0.0,0.0,0.0,0.0,0.0,0.0,0.0,0.0,0.0,0.0,0.0,0.0,0.0,0.0,0.0,0.0,0.0,0.0,0.0,0.0,0.0,0.0,0.0,0.0,0.0,0.0,0.0,0.0,0.0,0.0,0.0,0.0,0.0,0.0,0.0,0.0,0.0,0.0,0.0,0.0,0.0,0.0,0.0,0.0,0.0,0.0,0.0,0.0,0.0,0.0,0.0,0.0,0.0,0.0,0.0,0.0,0.0,-4.2048,-4.0416,0.0,0.0,0.0,0.0,0.0,0.0,0.0,0.0,0.0,0.0,0.0,0.0,0.0,0.0,0.0,0.0,0.0,0.0,0.0,0.0,0.0,0.0,0.0,0.0,0.0,0.0,0.0,0.0,0.0,0.0,0.0,0.0,0.0,0.0,0.0,0.0,0.0,0.0,0.0,0.0,-4.0662,-4.4295,-4.7046,-4.819,-4.8218,-4.7897,-4.7322,-4.5988,-4.4087,-4.1625,-3.8022,0.0,0.0,0.0,0.0,0.0,0.0,0.0,0.0,0.0,0.0,0.0,0.0,0.0,0.0,0.0,0.0,0.0,0.0,0.0,0.0,0.0,0.0,0.0,0.0,0.0,0.0,0.0,0.0,0.0,0.0,0.0,0.0,0.0,0.0,0.0,0.0,0.0,0.0,0.0,0.0,0.0,0.0,0.0,0.0,0.0,0.0,0.0,0.0,0.0,0.0,0.0,0.0,0.0,-4.7004,-4.7958,-4.8512,-4.8512,-4.9127,-5.002,-4.6757,-4.5041,-4.4425,-4.3618,0.0,0.0,0.0,0.0,0.0,0.0,0.0,0.0,0.0,0.0,0.0,0.0,0.0,0.0,0.0,0.0,0.0,0.0,0.0,0.0,0.0,0.0,-4.1309,-4.2786,-4.3217,-4.2202,-3.8108,0.0,0.0,0.0,0.0,0.0,0.0,0.0,0.0,0.0,0.0,0.0,-4.137,-4.4695,-4.7169,-4.819,-4.8301,-4.8218,-4.8007,-4.6584,-4.5193,-4.3946,-4.0628,-3.7674,0.0,0.0,0.0,0.0,0.0,0.0,0.0,0.0,0.0,0.0,0.0,0.0,0.0,0.0,0.0,0.0,0.0,0.0,0.0,0.0,0.0,0.0,0.0,0.0,0.0,0.0,0.0,0.0,0.0,0.0,0.0,0.0,-3.6322,-3.703,0.0,0.0,0.0,0.0,0.0,0.0,0.0,0.0,0.0,0.0,0.0,0.0,0.0,-4.5495,-4.6665,-4.8727,-4.9805,-4.9897,-5.1251,-5.1959,-5.2052,-5.2052,-5.2144,-5.2329,-5.2359,0.0,-4.7865,-4.6603,0.0,0.0,0.0,0.0,0.0,0.0,0.0,0.0,0.0,0.0,0.0,0.0,0.0,0.0,0.0,0.0,0.0,0.0,0.0,0.0,0.0,0.0,-4.6326,-4.5403,-4.5649,-4.5741,-4.451,-4.1155,-3.8077,-3.703,-3.5429,-3.3919,0.0,0.0,0.0,0.0,0.0,0.0,-4.2202,-4.5403,-4.7691,-4.8252,-4.8301,-4.8218,-4.8007,-4.6584,-4.5374,-4.465,-4.1768,-3.9469,-3.7943,-3.4801,0.0,0.0,0.0,0.0,0.0,0.0,0.0,0.0,0.0,0.0,0.0,0.0,0.0,0.0,0.0,0.0,0.0,0.0,0.0,0.0,0.0,0.0,0.0,0.0,0.0,0.0,0.0,0.0,0.0,-3.6907,-3.8292,-3.86,-3.9062,-3.8754,0.0,0.0,0.0,0.0,0.0,0.0,0.0,0.0,0.0,-4.6942,-4.8327,-4.9497,-5.0482,-5.2483,-5.3498,-5.3529,-5.4914,-5.5561,-5.5561,-5.5561,-5.5561,-5.5561,-5.5468,-5.436,-5.239,-4.9928,-4.7742,-4.5772,0.0,0.0,0.0,0.0,-4.3125,-4.3125,-4.5372,-4.568,-4.488,-4.3741,0.0,0.0,0.0,0.0,0.0,0.0,0.0,-4.2417,-4.3556,-4.5434,-4.7065,-4.725,-4.7527,-4.765,-4.7342,-4.5341,-4.2971,-4.0786,-3.9647,-3.82,-3.5584,-3.4568,0.0,0.0,0.0,-4.0935,-4.3402,-4.5988,-4.7784,-4.8252,-4.8427,-4.8313,-4.8049,-4.6709,-4.5707,-4.5283,-4.2917,-4.1123,-4.0127,-3.7255,-3.4951,0.0,0.0,0.0,0.0,0.0,0.0,0.0,0.0,0.0,0.0,0.0,0.0,0.0,0.0,0.0,0.0,0.0,0.0,0.0,0.0,0.0,0.0,0.0,0.0,0.0,0.0,0.0,0.0,-3.8939,-4.0539,-4.0539,-4.1925,-4.1863,0.0,0.0,0.0,0.0,0.0,0.0,-4.7004,-4.7804,-4.9097,-5.1159,-5.239,-5.3314,-5.3991,-5.5653,-5.6484,-5.6484,-5.758,-5.8073,-5.8073,-5.8073,-5.8073,-5.8042,-5.7549,-5.6884,-5.5992,-5.2975,-5.0913,-4.9435,-4.725,-4.5934,-4.5318,-4.6449,-4.6449,-4.6265,-4.9004,-4.9466,-4.8696,-4.7527,-4.6665,-4.5464,-4.2109,0.0,0.0,0.0,0.0,-4.4264,-4.5926,-4.7004,-4.7865,-4.8696,-4.8881,-4.885,-4.8666,-4.8235,-4.7034,-4.4172,-4.334,-4.2078,-3.8846,-3.7738,0.0,-3.82,-4.0324,-4.2633,-4.4818,-4.6726,-4.7968,-4.8366,-4.8438,-4.8396,-4.8091,-4.675,-4.5869,-4.5705,-4.3788,-4.2351,-4.1692,-3.9409,-3.7404,-3.5789,0.0,0.0,0.0,0.0,0.0,0.0,0.0,0.0,0.0,0.0,0.0,0.0,0.0,0.0,0.0,0.0,0.0,0.0,0.0,0.0,0.0,0.0,0.0,0.0,0.0,0.0,0.0,0.0,0.0,-4.3408,-4.5126,0.0,0.0,0.0,0.0,-4.5187,-4.6542,-4.8512,-5.1251,-5.2052,-5.3314,-5.5315,-5.6163,-5.6871,-5.7549,-5.827,-5.8608,-5.8608,-5.8701,-5.8731,-5.8731,-5.8731,-5.8731,-5.8731,-5.8701,-5.83,-5.75,-5.5407,-5.3745,-5.2421,-5.1652,-5.0543,-4.9466,-5.0174,-5.002,-4.9558,-5.0359,-5.0205,-4.9835,-5.1005,-4.962,-4.7219,-4.5741,-4.4425,0.0,0.0,-4.5834,-4.7527,-4.8266,-4.9466,-5.0328,-4.9774,-4.962,-4.9435,-4.8758,-4.8573,-4.8142,-4.6665,-4.5372,-4.424,-4.3408,0.0,-4.2479,-4.3162,-4.4456,-4.5618,-4.6388,-4.7711,-4.8573,-4.8563,-4.8427,-4.8301,-4.8301,-4.6709,-4.5705,-4.5705,-4.4168,-4.3,-4.2381,-4.0995,-3.905,-3.6477,-3.3754,0.0,0.0,0.0,0.0,0.0,0.0,0.0,0.0,0.0,0.0,0.0,0.0,0.0,0.0,0.0,0.0,0.0,0.0,0.0,0.0,0.0,0.0,0.0,0.0,0.0,0.0,0.0,0.0,-4.6049,-4.7989,0.0,-4.6973,-4.7619,-4.8358,-4.885,-5.0112,-5.1713,-5.3514,-5.4699,-5.5838,-5.7008,-5.8116,-5.8824,-5.907,-5.9747,-6.0086,-6.0086,-6.0086,-6.0086,-6.0086,-6.0086,-5.9839,-5.9439,-5.9439,-5.8793,-5.7765,-5.6977,-5.5869,-5.4514,-5.3437,-5.2698,-5.2298,-5.2544,-5.2483,-5.239,-5.3067,-5.2852,-5.2206,-5.1836,-5.0759,-4.9497,-4.9035,-4.8543,-4.8204,-4.845,-4.9035,-4.9651,-4.9897,-5.0328,-5.0636,-5.0389,-4.9989,-4.962,-4.9343,-4.8943,-4.8481,-4.7989,-4.7157,-4.6172,-4.5103,-4.4664,-4.4449,-4.4271,-4.5372,-4.648,-4.7157,-4.805,-4.8604,-4.8604,-4.8552,-4.8285,-4.769,-4.6559,-4.5465,-4.4499,-4.3328,-4.2402,-4.1782,-4.0876,-3.9559,-3.7734,-3.5549,-3.2677,0.0,0.0,0.0,0.0,0.0,0.0,0.0,0.0,0.0,0.0,0.0,0.0,0.0,0.0,0.0,0.0,0.0,0.0,0.0,0.0,0.0,0.0,0.0,0.0,0.0,-4.4664,-4.7311,-4.8204,-5.0513,-5.1436,-4.9805,-5.0913,-5.1805,-5.2052,-5.3098,-5.4422,-5.6023,-5.6946,-5.7919,-5.8762,-5.9655,-6.0116,-6.0116,-6.0578,-6.0794,-6.0794,-6.0794,-6.0794,-6.0794,-6.0794,-6.0547,-6.0116,-6.0116,-5.9378,-5.8165,-5.8165,-5.7285,-5.5961,-5.5099,-5.4607,-5.4391,-5.4391,-5.4237,-5.4083,-5.4283,-5.4037,-5.3498,-5.2144,-5.1405,-5.1005,-5.0759,-5.0697,-5.0697,-5.0697,-5.0851,-5.1036,-5.1036,-5.1221,-5.1313,-5.1097,-5.0513,-4.9959,-4.9743,-4.9127,-4.8604,-4.8604,-4.8235,-4.765,-4.6757,-4.6603,-4.6449,-4.6018,-4.6696,-4.7434,-4.7896,-4.8327,-4.8604,-4.8604,-4.8521,-4.8151,-4.7272,-4.6184,-4.4971,-4.3657,-4.2389,-4.1542,-4.1055,-4.0187,-3.92,-3.8093,-3.5699,-3.3185,-3.0492,0.0,0.0,0.0,0.0,0.0,0.0,0.0,0.0,0.0,0.0,0.0,0.0,0.0,0.0,0.0,0.0,0.0,0.0,0.0,0.0,0.0,0.0,0.0,-4.3716,-4.7228,-4.9774,-4.9835,-5.276,-5.3945,-5.2052,-5.3037,-5.4083,-5.4745,-5.5407,-5.6638,-5.867,-5.8793,-5.9408,-6.0732,-6.0794,-6.0794,-6.0794,-6.0794,-6.0794,-6.0794,-6.0794,-6.0794,-6.0794,-6.0794,-6.0794,-6.0794,-6.0794,-6.0055,-5.8824,-5.8793,-5.7993,-5.684,-5.681,-5.6378,-5.5715,-5.5715,-5.5315,-5.4652,-5.4022,-5.3775,-5.3529,-5.2206,-5.1744,-5.1621,-5.0944,-5.0759,-5.0759,-5.0759,-5.1221,-5.1744,-5.1744,-5.2206,-5.2544,-5.1898,-5.1221,-5.0543,-4.9866,-4.9158,-4.8635,-4.8604,-4.8604,-4.8604,-4.8604,-4.8604,-4.8604,-4.8604,-4.8604,0.0,-4.8604,-4.8604,-4.8604,-4.8604,-4.8427,-4.7943,-4.7034,-4.5586,-4.4288,-4.3299,-4.1444,-4.0367,-4.0367,-3.911,-3.8093,-3.7434,-3.4233,-3.1928,-3.0582,0.0,0.0,0.0,0.0,0.0,0.0,0.0,0.0,0.0,0.0,0.0,0.0,0.0,0.0,0.0,0.0,0.0,0.0,0.0,0.0,0.0,-4.3771,-4.5926,-4.6419,-4.9189,-5.1682,-5.316,-5.4576,-5.5407,-5.5423,-5.5762,-5.6207,-5.6884,-5.71,-5.7654,-5.8731,-5.9255,-5.9686,-6.0055,-6.0547,-6.0794,-6.0794,-6.0794,-6.0794,-6.0794,-6.0794,-6.0794,-6.0794,-6.0794,-6.0794,-6.0794,-6.0794,-6.0301,-5.947,-5.8978,-5.827,-5.7487,-5.6994,-5.6686,-5.6532,-5.6532,-5.6361,-5.6115,-5.5407,-5.4853,-5.4252,-5.3437,-5.2821,-5.239,-5.2206,-5.2144,-5.2144,-5.2144,-5.2298,-5.2452,-5.2452,-5.2575,-5.2667,-5.2483,-5.1929,-5.1251,-5.0574,-4.9866,-4.9251,-4.8727,-4.8604,-4.8604,-4.8604,-4.8604,-4.8604,-4.8604,-4.8604,-4.8604,-4.8604,-4.8604,-4.8604,-4.8604,-4.8521,-4.7978,-4.661,-4.5515,-4.4104,-4.2281,-4.0591,-3.9679,-3.9679,-3.8841,-3.8093,-3.7434,-3.513,-3.3514,0.0,0.0,0.0,0.0,0.0,0.0,0.0,0.0,0.0,0.0,0.0,0.0,0.0,0.0,0.0,0.0,0.0,0.0,0.0,0.0,0.0,0.0,-4.6788,-4.9158,-5.042,-5.1959,-5.3498,-5.4976,-5.5745,-5.6423,-5.7179,-5.7487,-5.7949,-5.8577,-5.8608,-5.8916,-5.9593,-5.9716,-5.9932,-6.0209,-6.0609,-6.0794,-6.0794,-6.0794,-6.0794,-6.0794,-6.0794,-6.0794,-6.0794,-6.0794,-6.0794,-6.0794,-6.0794,-6.0424,-5.9747,-5.907,-5.8362,-5.7765,0.0,0.0,0.0,0.0,-5.681,-5.6717,-5.593,-5.5438,-5.4976,-5.4022,-5.3468,-5.3098,-5.279,-5.2698,-5.2698,-5.2698,-5.2698,-5.2698,-5.2698,-5.2698,-5.2698,-5.2698,-5.199,-5.1159,-5.079,-4.9928,-4.9097,-4.8696,-4.8604,0.0,-4.8604,-4.8604,-4.8604,-4.8604,-4.8604,-4.8604,-4.8604,-4.8604,-4.8563,-4.848,-4.8438,-4.7926,-4.6528,-4.5465,0.0,0.0,0.0,-3.9134,-3.8601,-3.8182,0.0,0.0,0.0,0.0,0.0,0.0,0.0,0.0,-3.3155,-3.3305,0.0,0.0,0.0,0.0,0.0,0.0,0.0,0.0,0.0,0.0,0.0,0.0,0.0,0.0,0.0,0.0,-4.9805,-5.2606,-5.4529,-5.4868,-5.5161,-5.5745,-5.6409,-5.7118,-5.7857,-5.8423,-5.9131,-5.9963,-6.0024,-6.0301,-6.0978,-6.0393,0.0,0.0,0.0,-6.0794,-6.0794,-6.0794,-6.0794,-6.0794,-6.0794,-6.0794,-6.0794,-6.0794,-6.0794,-6.0794,-6.0794,-6.0455,-5.9839,-5.9101,-5.8331,-5.7641,-5.7056,-5.681,-5.681,-5.681,-5.681,-5.6717,-5.6023,0.0,0.0,-5.4237,-5.373,-5.3591,-5.2914,-5.2698,-5.2698,-5.2698,-5.2698,-5.2698,-5.2698,-5.2698,-5.2698,-5.2698,-5.1805,-5.0882,-5.0728,-4.9712,-4.8789,-4.8635,-4.8604,-4.8604,-4.8604,-4.8604,-4.8604,-4.8604,-4.8604,-4.8604,-4.8604,-4.8604,-4.8521,-4.8343,-4.8301,0.0,-4.6701,-4.5484,-4.4409,-4.3479,-4.1077,-3.914,-3.7793,-3.7823,-3.8093,-3.8601,-3.8631,-3.896,-3.9649,-4.0217,-4.0337,-3.9852,-3.6118,-3.5639,0.0,0.0,0.0,0.0,0.0,0.0,0.0,0.0,0.0,0.0,0.0,0.0,0.0,0.0,0.0,-4.9374,-5.1836,-5.3837,-5.5315,-5.5992,-5.6471,-5.6594,-5.6717,-5.7303,-5.8454,-5.8701,-5.9501,-6.1286,-6.1409,-6.1717,-6.2394,-6.1779,-6.1471,-6.1594,-6.1071,-6.0794,-6.0794,-6.0794,-6.0794,-6.0794,-6.0794,0.0,-6.0794,-6.0794,-6.0794,-6.0794,-6.0794,-6.0732,-6.0517,-5.9285,-5.8104,-5.6994,-5.6871,-5.681,-5.681,-5.681,-5.681,-5.6779,-5.6656,-5.6176,-5.5561,-5.4791,-5.4129,-5.3591,-5.2914,-5.2698,0.0,-5.2698,-5.2698,-5.2698,-5.2698,-5.2698,-5.2698,-5.2698,-5.2513,-5.2021,-5.0944,-5.0482,-4.9959,-4.882,-4.8604,-4.8604,-4.8604,-4.8604,-4.8604,-4.8604,-4.8604,-4.8604,-4.8604,-4.8604,-4.8521,-4.8343,-4.8301,-4.7829,-4.6701,-4.5947,-4.5101,-4.4167,-4.2671,-4.1205,-3.9888,-4.0337,-4.0427,-4.0008,-4.0008,-4.0337,-4.0995,-4.1115,-4.1953,-4.3299,-4.0965,-4.0127,0.0,0.0,0.0,0.0,0.0,0.0,0.0,0.0,0.0,0.0,0.0,-4.2294,-4.4664,0.0,-4.9158,-5.2206,-5.3837,-5.5068,-5.6084,-5.6594,-5.681,-5.681,-5.681,-5.7487,-5.9131,-5.9593,-6.064,-6.2671,-6.2825,-6.2979,-6.3318,-6.2364,-6.1809,-6.1809,-6.1163,-6.0794,-6.0794,-6.0794,-6.0794,-6.0794,-6.0794,-6.0794,-6.0794,-6.0794,-6.0794,-6.0794,-6.0794,-6.0794,-6.0701,-5.9347,-5.8042,-5.681,-5.681,-5.681,-5.681,-5.681,-5.681,-5.681,-5.681,-5.6563,-5.6115,-5.5438,-5.476,-5.4068,-5.3406,-5.2975,-5.2698,-5.2698,-5.2698,-5.2698,-5.2698,-5.2698,-5.2698,-5.2698,-5.2452,-5.1929,-5.0913,-5.042,-4.9866,-4.882,-4.8604,-4.8604,-4.8604,-4.8604,-4.8604,-4.8604,-4.8604,-4.8604,-4.8604,-4.848,-4.8355,-4.8175,-4.8049,-4.7686,-4.7014,-4.6371,-4.5518,-4.4377,-4.3688,-4.291,-4.1893,-4.2192,-4.2372,-4.2372,-4.2372,-4.2671,-4.3329,-4.3329,-4.3838,-4.4796,-4.4137,-4.3658,0.0,0.0,0.0,0.0,0.0,0.0,0.0,-3.9493,-4.0262,-4.1581,-4.3525,-4.5649,-4.7958,-5.0082,-5.2236,-5.4545,-5.5468,-5.6115,-5.6717,-5.681,-5.681,-5.681,-5.681,-5.7672,-5.9778,-6.0486,-6.1686,-6.3872,-6.4026,-6.4026,-6.4026,-6.2733,-6.1994,-6.1994,-6.1225,-6.0794,-6.0794,-6.0794,-6.0794,-6.0794,-6.0794,-6.0794,-6.0794,-6.0794,-6.0794,-6.0794,-6.0794,-6.064,-6.0332,-5.9224,-5.8042,-5.681,-5.681,-5.681,-5.681,-5.681,-5.681,-5.681,-5.681,-5.681,-5.6686,-5.593,-5.5345,-5.4714,-5.3914,-5.3345,-5.2883,-5.276,-5.2698,-5.2698,-5.2698,-5.2698,-5.2698,-5.2698,-5.2298,-5.1682,-5.0882,-5.0266,-4.962,-4.8789,-4.8604,-4.8604,-4.8604,-4.8604,-4.8604,-4.8604,-4.8604,-4.8563,-4.8521,-4.8427,-4.8218,-4.7964,-4.7709,-4.7495,-4.7309,-4.68,-4.5992,-4.4796,-4.4706,-4.4407,-4.3708,-4.3678,-4.3958,-4.4496,-4.4496,-4.4825,-4.5484,-4.5484,-4.5574,-4.5693,-4.6262,-4.6142,-3.8385,-3.8292,-3.8508,-3.9029,-3.9644,-4.0935,0.0,-4.4726,-4.5187,-4.6542,-4.845,-5.0174,-5.1067,-5.2914,-5.4576,-5.5438,-5.6176,-5.6717,-5.681,-5.681,-5.681,-5.681,-5.681,-5.7857,-6.0424,-6.0763,-6.1902,-6.458,-6.4764,-6.4764,-6.4764,-6.3472,-6.2702,-6.2702,-6.1471,-6.0794,-6.0794,-6.0794,-6.0794,-6.0794,-6.0794,-6.0794,-6.0794,-6.0794,-6.0794,-6.0794,-6.0794,-6.0116,-5.9008,-5.8854,-5.8042,-5.681,-5.681,-5.681,-5.681,-5.681,-5.681,-5.681,-5.681,-5.681,-5.6686,-5.593,-5.5653,-5.5345,-5.4083,-5.3683,-5.3468,-5.2883,-5.2698,-5.2698,-5.2698,-5.2698,-5.2698,-5.2698,-5.2637,-5.2236,-5.0974,-5.0636,-5.0174,-4.8881,-4.8604,-4.8604,-4.8604,-4.8604,-4.8604,-4.8604,-4.8604,-4.8552,-4.8385,-4.8343,-4.8133,-4.7709,-4.7624,-4.7495,-4.7309,-4.7249,-4.689,-4.61,-4.607,-4.5783,-4.5095,-4.5065,-4.5095,-4.5185,-4.5185,-4.5514,-4.6202,-4.6202,-4.6501,-4.707,-4.716,-4.683,-4.1432,-4.1186,-4.1063,-4.1709,-4.2663,-4.3956,-4.5772,-4.6788,-4.7619,-4.8604,-5.0451,-5.2082,-5.276,-5.4206,-5.5499,-5.6207,-5.6625,-5.681,-5.681,-5.681,-5.681,-5.681,-5.681,-5.7734,-5.9993,-6.0209,-6.1163,-6.3502,-6.4057,-6.4272,-6.4272,-6.3349,-6.2825,-6.2825,-6.1502,-6.0794,-6.0794,-6.0794,-6.0794,-6.0794,-6.0794,-6.0794,-6.0794,-6.0794,-6.0794,-6.0763,-6.0393,-5.9655,-5.8762,-5.8412,-5.7672,-5.681,-5.681,-5.681,-5.681,-5.681,-5.681,-5.681,-5.681,-5.681,-5.6748,-5.6471,-5.6023,-5.553,-5.4607,-5.3976,-5.3591,-5.2914,-5.2698,-5.2698,-5.2698,-5.2698,-5.2698,-5.2698,-5.2698,-5.2452,-5.1498,-5.0974,-5.042,-4.9435,-4.8881,-4.8604,-4.8604,-4.8604,-4.8604,-4.8604,-4.8604,-4.8563,-4.848,-4.826,-4.7964,-4.7482,-4.7439,-4.7396,-4.7309,-4.7309,-4.7189,-4.692,-4.689,-4.677,-4.6471,-4.6471,-4.6471,-4.6471,-4.6471,-4.6591,-4.689,-4.689,-4.704,-4.7309,-4.7309,-4.716,-4.3039,-4.3217,-4.3556,-4.4055,-4.5434,-4.685,-4.7342,-4.8481,-4.962,-5.0143,-5.1713,-5.3129,-5.3622,-5.4791,-5.5869,-5.644,-5.6686,-5.681,-5.681,-5.681,-5.681,-5.681,-5.681,-5.7457,-5.907,-5.9562,-6.0547,-6.2394,-6.3164,-6.3533,-6.3533,-6.2918,-6.2548,-6.2548,-6.1409,-6.0794,-6.0794,-6.0794,-6.0794,-6.0794,-6.0794,-6.0794,-6.0794,-6.0794,-6.0794,-6.0763,-6.0086,-5.9408,-5.8731,-5.8104,-5.7426,-5.681,-5.681,-5.681,-5.681,-5.681,-5.681,-5.681,-5.681,-5.681,-5.681,-5.681,-5.6269,-5.5561,-5.4914,-5.4222,-5.3591,-5.2914,-5.2698,-5.2698,-5.2698,-5.2698,-5.2698,-5.2698,-5.2698,-5.2513,-5.1836,-5.1159,-5.0482,-4.9805,-4.9097,-4.8604,-4.8604,-4.8604,-4.8604,-4.8604,-4.8521,-4.8521,-4.8521,-4.8175,-4.7752,-4.7439,-4.7352,-4.7309,-4.7309,-4.7309,-4.7309,-4.7309,-4.7309,-4.7309,-4.7309,-4.7309,-4.7309,-4.7309,-4.7309,-4.7309,-4.7309,-4.7309,-4.7309,-4.7309,-4.7309,-4.7309,-4.2017,-4.3525,-4.5495,-4.5526,-4.7558,-4.9558,-4.9589,-5.0636,-5.1621,-5.1621,-5.2729,-5.3714,-5.3714,-5.4791,-5.5715,-5.5715,-5.6347,-5.681,-5.681,-5.681,-5.681,-5.681,-5.681,-5.7087,-5.7795,-5.9008,-6.0363,-6.1748,-6.2456,-6.2856,-6.2856,-6.221,-6.184,-6.184,-6.1163,-6.0794,-6.0794,-6.0794,-6.0794,-6.0794,-6.0794,-6.0794,-6.0794,-6.0794,-6.0794,-6.0763,-6.0086,-5.9408,-5.8731,-5.8104,-5.7426,-5.681,-5.681,-5.681,-5.681,-5.681,-5.681,-5.681,-5.681,-5.681,-5.681,-5.681,-5.6269,-5.5561,-5.4914,-5.4222,-5.3591,-5.2914,-5.2698,-5.2698,-5.2698,-5.2698,-5.2698,-5.2698,-5.2698,-5.2513,-5.1836,-5.1159,-5.0482,-4.9805,-4.9097,-4.8604,-4.8604,-4.8604,-4.8604,-4.8604,-4.8438,-4.8301,-4.8301,-4.7922,-4.7624,-4.7581,-4.7439,-4.7309,-4.7309,-4.7309,-4.7309,-4.7309,-4.7309,-4.7309,-4.7309,-4.7309,-4.7309,-4.7309,-4.7309,-4.7309,-4.7309,-4.7309,-4.7309,-4.7309,-4.7309,-4.7309,-4.4541,-4.5588,-4.6573,-4.7958,-4.9343,-5.0482,-5.0913,-5.1713,-5.2359,-5.2359,-5.2729,-5.3067,-5.3067,-5.3775,-5.4545,-5.4976,-5.5622,-5.6255,-5.6748,-5.681,-5.681,-5.681,-5.681,-5.6902,-5.7118,-5.798,-5.9008,-6.0363,-6.1101,-6.1686,-6.2117,-6.1933,-6.1809,-6.1809,-6.1163,-6.0794,-6.0794,-6.0794,-6.0794,-6.0794,-6.0794,-6.0794,-6.0794,-6.0794,-6.0547,-6.0086,-5.9408,-5.8731,-5.8054,-5.7426,-5.7025,-5.681,-5.681,-5.681,-5.681,-5.681,-5.681,-5.681,-5.681,-5.6502,-5.6053,-5.6053,-5.5592,-5.4914,-5.4222,-5.3899,-5.3591,-5.2914,-5.2698,-5.2698,-5.2698,-5.2698,-5.2698,-5.2698,-5.2698,-5.2513,-5.1836,-5.1159,-5.0482,-4.9805,-4.9097,-4.8604,-4.8604,-4.8604,-4.8521,-4.8427,-4.8313,-4.8218,-4.788,-4.7709,-4.7538,-4.7439,-4.7352,-4.7309,-4.7309,-4.7309,-4.7309,-4.7309,-4.7309,-4.7309,-4.7309,-4.7309,-4.7309,-4.7309,-4.7309,-4.7309,-4.7309,-4.7309,-4.7309,-4.7309,-4.7309,-4.7309,-4.6357,-4.7311,-4.8204,-5.0266,-5.1097,-5.159,-5.2267,-5.2575,-5.2637,-5.239,-5.2144,-5.1929,-5.1682,-5.199,-5.2667,-5.3837,-5.4545,-5.5407,-5.6656,-5.681,-5.681,-5.681,-5.7025,-5.7087,-5.684,-5.7426,-5.8239,-5.9347,-6.027,-6.0978,-6.144,-6.144,-6.144,-6.144,-6.1009,-6.0794,-6.0794,-6.0794,-6.0794,-6.0794,-6.0794,-6.0794,-6.0794,-6.0547,-6.0209,-5.9747,-5.8824,-5.8177,-5.7765,-5.7087,-5.681,-5.681,-5.681,-5.681,-5.681,-5.681,-5.681,-5.6779,-5.6532,-5.6084,-5.5653,-5.5407,-5.4914,-5.4252,-5.3837,-5.3514,-5.3283,-5.2821,-5.2698,-5.2698,-5.2698,-5.2698,-5.2698,-5.2698,-5.2698,-5.2513,-5.1836,-5.1159,-5.0482,-4.972,-4.8971,-4.8438,-4.8427,-4.8385,-4.8301,-4.8091,-4.8049,-4.7964,-4.7752,-4.7666,-4.7538,-4.7439,-4.7352,-4.7309,-4.7309,-4.7309,-4.7309,-4.7309,-4.7309,-4.7309,-4.7309,-4.7309,-4.7309,-4.7309,-4.7309,-4.7309,-4.7309,-4.7309,-4.7309,-4.7309,-4.7309,-4.7309,-4.7404,-4.882,-5.0328,-5.2329,-5.279,-5.2944,-5.356,-5.316,-5.2421,-5.1775,-5.1067,-5.0328,-4.962,-4.9589,-5.0328,-5.2236,-5.3252,-5.4483,-5.6563,-5.6871,-5.6871,-5.6902,-5.7487,-5.7611,-5.6964,-5.7518,-5.8196,-5.8793,-5.9993,-6.0732,-6.0794,-6.0794,-6.0794,-6.0794,-6.0794,-6.0794,-6.0763,-6.0701,-6.0701,-6.0763,-6.0701,-6.0701,-6.0732,-6.0055,-5.9716,-5.9624,-5.8331,-5.7795,-5.7734,-5.7087,-5.681,-5.681,-5.681,-5.681,-5.681,-5.681,-5.681,-5.6717,-5.5899,-5.5653,-5.553,-5.4884,-5.4191,-5.3683,-5.3683,-5.3221,-5.2698,-5.2653,-5.2698,-5.2698,-5.2653,-5.2653,-5.2653,-5.2653,-5.2653,-5.2469,-5.1761,-5.1115,-5.0396,-4.9414,-4.8729,-4.8218,-4.8049,-4.8007,-4.788,-4.7624,-4.7581,-4.7666,-4.7922,-4.7752,-4.7581,-4.7581,-4.7439,-4.7309,-4.7309,-4.7309,-4.7309,-4.7309,-4.7309,-4.7309,-4.7309,-4.7309,-4.7309,-4.7309,-4.7309,-4.7309,-4.7309,-4.7309,-4.7309,-4.7309,-4.7309,-4.7309,-4.9743,-5.1282,-5.2298,-5.3791,-5.3791,-5.3498,-5.3683,-5.2421,-5.1159,-5.0974,-4.9589,-4.8019,-4.685,-4.8296,-4.9866,-5.0389,-5.2698,-5.5191,-5.7223,-5.758,-5.7734,-5.8258,-5.8423,-5.8454,-5.83,-5.8885,-5.9347,-5.9532,-5.9378,-5.9747,-6.0763,-6.0794,-6.0794,-6.0794,-6.0794,-6.0547,-6.0055,-5.9562,-5.9562,-6.0055,-5.9532,-5.9562,-6.0024,-5.9347,-5.8762,-5.827,-5.798,-5.7549,-5.7056,-5.6871,-5.681,-5.681,-5.681,-5.681,-5.681,-5.681,-5.681,-5.6625,-5.5376,-5.4929,-5.4853,-5.416,-5.3529,-5.2975,-5.2975,-5.2852,-5.2653,-5.2442,-5.2563,-5.2608,-5.2276,-5.2291,-5.2352,-5.22,-5.2185,-5.185,-5.0692,-5.0296,-4.9809,-4.8578,-4.8213,-4.8049,-4.8007,-4.7837,-4.7666,-4.7624,-4.7452,-4.7396,-4.7482,-4.7439,-4.7396,-4.7396,-4.7352,-4.7309,-4.7309,-4.7309,-4.7309,-4.7309,-4.7309,-4.7309,-4.7309,-4.7309,-4.7309,-4.7309,-4.7309,-4.7309,-4.7309,-4.7309,-4.7309,-4.7309,-4.7309,-4.7309,-5.1436,-5.2852,-5.3837,-5.4884,-5.4422,-5.3607,-5.3345,-5.1929,-5.0266,-4.8758,-4.7281,-4.5865,-4.451,-4.5772,-4.7588,-4.9404,-5.1775,-5.4422,-5.7346,-5.7826,-5.8073,-5.8701,-5.9039,-5.9101,-5.8824,-5.9408,-5.9778,-5.9778,-5.9716,-5.9993,-6.0763,-6.0794,-6.0794,-6.0794,-6.0517,-6.0024,-5.9347,-5.8978,-5.8978,-5.9347,-5.8947,-5.8978,-5.9316,-5.8639,-5.8165,-5.7795,-5.7518,-5.7179,-5.681,-5.681,-5.681,-5.681,-5.681,-5.681,-5.681,-5.681,-5.6713,-5.6432,-5.505,-5.4496,-5.4249,-5.3408,-5.2779,-5.2382,-5.2382,-5.2382,-5.2337,-5.22,-5.2291,-5.2337,-5.2094,-5.2063,-5.2155,-5.2048,-5.2002,-5.1698,-5.0666,-5.0454,-4.9984,-4.8533,-4.8205,-4.8028,-4.7727,-4.7538,-4.7482,-4.7482,-4.7396,-4.7309,-4.7309,-4.7309,-4.7309,-4.7309,-4.7309,-4.7309,-4.7309,-4.7309,-4.7309,-4.7309,-4.7309,-4.7309,-4.7309,-4.7309,-4.7309,-4.7309,-4.7309,-4.7309,-4.7309,-4.7309,-4.7309,-4.7309,-4.7309,-4.7309,-5.276,-5.3899,-5.4976,-5.5561,-5.4699,-5.3529,-5.276,-5.1313,-4.9251,-4.6111,-4.4849,-4.3895,-4.2571,-4.3156,-4.5133,-4.8912,-5.082,-5.3221,-5.7272,-5.7888,-5.8146,-5.8824,-5.9501,-5.9686,-5.9101,-5.9562,-5.9932,-5.9932,-6.0455,-6.0794,-6.0794,-6.0794,-6.0763,-6.0671,-6.0024,-5.9347,-5.8639,-5.8547,-5.8547,-5.8639,-5.8547,-5.8547,-5.8608,-5.798,-5.7672,-5.7641,-5.7056,-5.681,-5.681,-5.681,-5.681,-5.681,-5.681,-5.681,-5.681,-5.681,-5.6664,-5.6286,-5.503,-5.4352,-5.381,-5.2627,-5.2155,-5.2002,-5.2002,-5.2002,-5.2002,-5.1956,-5.2002,-5.2002,-5.191,-5.191,-5.1956,-5.191,-5.191,-5.1728,-5.1061,-5.0849,-5.038,-4.898,-4.8459,-4.8117,-4.7549,-4.7369,-4.7309,-4.7309,-4.7309,-4.7309,-4.7309,-4.7309,-4.7309,-4.7309,-4.7309,-4.7309,-4.7309,-4.7309,-4.7309,-4.7309,-4.7309,-4.7309,-4.7309,-4.7309,-4.7309,-4.7309,-4.7309,-4.7309,-4.7309,-4.7309,-4.7309,-4.7309,-4.7309,-4.7309,-5.3853,-5.4945,-5.5561,-5.5653,-5.4699,-5.3406,-5.2144,-4.9497,-4.6819,-4.5095,-4.3802,-4.254,-4.112,-4.3279,-4.6018,-4.8419,-5.0913,-5.3775,-5.7285,-5.8288,-5.8854,-5.9532,-6.0209,-6.0578,-6.0455,-6.0547,-6.064,-6.064,-6.0732,-6.0794,-6.0794,-6.0794,-6.0547,-5.9993,-5.9316,-5.8639,-5.8011,-5.7426,-5.7457,-5.798,-5.7426,-5.7457,-5.798,-5.7303,-5.6994,-5.6994,-5.6871,-5.681,-5.681,-5.681,-5.681,-5.681,-5.681,-5.681,-5.681,-5.681,-5.6761,-5.659,-5.5759,-5.4861,-5.3763,-5.2473,-5.2048,-5.2002,-5.2002,-5.2002,-5.1956,-5.1741,-5.1834,-5.191,-5.1463,-5.1509,-5.1602,-5.1416,-5.1369,-5.1143,-5.0483,-4.9959,-4.9509,-4.9224,-4.87,-4.8237,-4.8147,-4.7668,-4.7309,-4.7309,-4.7309,-4.7309,-4.7309,-4.7309,-4.7309,-4.7309,-4.7309,-4.7309,-4.7309,-4.7309,-4.7309,-4.7309,-4.7309,-4.7309,-4.7309,-4.7309,-4.7309,-4.7309,-4.7309,-4.7309,-4.7309,-4.7309,-4.7309,-4.7309,-4.7309,-4.7309,-5.4314,-5.5468,-5.6146,-5.5776,-5.4422,-5.2667,-5.0574,-4.7742,-4.4849,-4.2448,-4.1432,-4.0693,-3.9677,-4.1986,-4.4695,-4.6726,-4.9035,-5.1898,-5.5653,-5.6761,-5.7839,-5.9593,-6.0393,-6.0794,-6.0794,-6.0794,-6.0794,-6.0794,-6.0794,-6.0794,-6.0794,-6.0455,-5.9963,-5.9285,-5.8608,-5.798,-5.7303,-5.6964,-5.6964,-5.7303,-5.6964,-5.6994,-5.7272,-5.6964,-5.681,-5.681,-5.681,-5.681,-5.681,-5.681,-5.681,-5.6761,-5.6664,-5.6616,-5.6567,-5.6421,-5.6323,-5.6085,-5.5529,-5.4813,-5.3893,-5.2678,-5.1967,-5.1556,-5.1556,-5.1556,-5.1556,-5.1463,-5.1509,-5.1509,-5.1276,-5.1323,-5.1369,-5.1229,-5.1229,-5.1139,-5.0764,-5.0511,-5.0182,-4.9853,-4.9523,-4.9194,-4.8865,-4.8237,-4.7818,-4.7818,-4.7519,-4.7309,-4.7309,-4.7309,-4.7309,-4.7309,-4.7309,-4.7309,-4.7309,-4.7309,-4.7309,-4.7309,-4.7309,-4.7309,-4.7309,-4.7309,-4.7309,-4.7309,-4.7309,-4.7309,-4.7309,-4.7309,-4.7309,-4.7309,-4.7309,-4.7309,-5.4498,-5.5715,-5.6594,-5.5715,-5.3991,-5.1775,-4.9035,-4.6164,-4.3242,-4.0136,-3.9367,-3.9118,-3.8752,-4.0601,-4.2971,-4.5403,-4.725,-4.9774,-5.3699,-5.5222,-5.6761,-5.907,-6.0209,-6.0794,-6.0794,-6.0794,-6.0794,-6.0794,-6.0794,-6.0794,-6.0794,-6.0147,-5.947,-5.8793,-5.8165,-5.7487,-5.681,-5.681,-5.681,-5.681,-5.681,-5.681,-5.681,-5.681,-5.681,-5.681,-5.681,-5.681,-5.681,-5.681,-5.681,-5.6761,-5.6519,-5.6421,-5.6372,-5.6077,-5.588,-5.564,-5.5323,-5.4715,-5.3931,-5.3092,-5.2167,-5.1409,-5.1259,-5.1229,-5.1229,-5.1229,-5.1229,-5.1229,-5.1229,-5.1229,-5.1229,-5.1229,-5.1229,-5.1229,-5.1229,-5.1229,-5.1033,-5.0495,-5.0285,-5.0016,-4.9553,-4.8925,-4.8506,-4.8506,-4.8057,-4.7728,-4.7728,-4.7728,-4.7728,-4.7728,-4.7489,-4.7309,-4.7309,-4.7309,-4.7309,-4.7309,-4.7309,-4.7309,-4.7309,-4.7309,-4.7309,-4.7309,-4.7309,-4.7309,-4.7309,-4.7459,-4.7519,-4.7519,-4.7668,-4.7728,-5.4498,-5.5715,-5.6502,-5.513,-5.3283,-5.1067,-4.8327,-4.501,-4.1924,-3.992,-3.8898,-3.8619,-3.9305,-4.0105,-4.195,-4.5865,-4.7188,-4.8912,-5.239,-5.5068,-5.7025,-5.7919,-5.9624,-6.0794,-6.0794,-6.0794,-6.0794,-6.0794,-6.0794,-6.0794,-6.0794,-6.0147,-5.947,-5.8793,-5.8165,-5.7487,-5.681,-5.681,-5.681,-5.681,-5.681,-5.681,-5.681,-5.681,-5.681,-5.681,-5.681,-5.681,-5.681,-5.681,-5.681,-5.6761,-5.6519,-5.6421,-5.6372,-5.6077,-5.5979,-5.5979,-5.5918,-5.4903,-5.3634,-5.3561,-5.2858,-5.2007,-5.1409,-5.1229,-5.1229,-5.1229,-5.1229,-5.1229,-5.1229,-5.1229,-5.1229,-5.1229,-5.1229,-5.1229,-5.1229,-5.1229,-5.1199,-5.1139,-5.0614,-5.0166,-5.0106,-4.9613,-4.9209,-4.9209,-4.9179,-4.912,-4.912,-4.912,-4.912,-4.912,-4.8027,-4.7309,-4.7309,-4.7309,-4.7309,-4.7309,-4.7309,-4.7309,-4.7309,-4.7309,-4.7309,-4.7309,-4.7309,-4.7309,-4.7309,-4.7908,-4.8207,-4.8207,-4.8805,-4.912,-5.3221,-5.4514,-5.5315,-5.436,-5.2298,-4.9866,-4.7527,-4.4004,-4.0773,-3.9213,-3.8626,-3.8534,-3.8813,-4.0139,-4.1832,-4.3864,-4.4756,-4.6234,-4.922,-5.1282,-5.3498,-5.6207,-5.7962,-5.947,-6.0671,-6.0794,-6.0794,-6.0794,-6.0794,-6.0609,-6.0209,-5.9562,-5.907,-5.8793,-5.7795,-5.7087,-5.681,-5.681,-5.681,-5.681,-5.681,-5.681,-5.681,-5.681,-5.681,-5.681,-5.681,-5.681,-5.6761,-5.6616,-5.6567,-5.6519,-5.6077,-5.5929,-5.588,-5.5631,-5.5531,-5.5531,-5.5681,-5.4978,-5.389,-5.3694,-5.2948,-5.2067,-5.1409,-5.1229,-5.1229,-5.1229,-5.1229,-5.1229,-5.1229,-5.1229,-5.1229,-5.1229,-5.1229,-5.1229,-5.1229,-5.1229,-5.1229,-5.1229,-5.0973,-5.0794,-5.0794,-5.0272,-4.9853,-4.9853,-4.9523,-4.9299,-4.9299,-4.9299,-4.9299,-4.9299,-4.8805,-4.8476,-4.8476,-4.8476,-4.8476,-4.8476,-4.8117,-4.7908,-4.7908,-4.7519,-4.7489,-4.7878,-4.7908,-4.8087,-4.8476,-4.8745,-4.891,-4.894,-4.9179,-4.9299,-5.199,-5.3406,-5.4222,-5.3591,-5.1528,-4.9097,-4.6739,-4.3162,-4.0029,-3.8895,-3.831,-3.8126,-3.8624,-3.9883,-4.1269,-4.2417,-4.3156,-4.4548,-4.7219,-4.8974,-5.119,-5.4422,-5.6023,-5.7654,-5.9716,-6.0455,-6.0701,-6.0517,-6.0486,-6.0209,-5.9532,-5.8854,-5.8485,-5.8485,-5.7426,-5.681,-5.681,-5.681,-5.681,-5.681,-5.681,-5.681,-5.681,-5.681,-5.6761,-5.6713,-5.6761,-5.6713,-5.6567,-5.647,-5.6372,-5.6225,-5.578,-5.5581,-5.5581,-5.528,-5.5179,-5.52,-5.522,-5.461,-5.3852,-5.3338,-5.26,-5.1828,-5.1349,-5.1229,-5.1229,-5.1229,-5.1229,-5.1229,-5.1229,-5.1229,-5.1229,-5.1229,-5.1229,-5.1229,-5.1229,-5.1229,-5.1229,-5.1229,-5.1229,-5.1229,-5.1229,-5.0794,-5.0495,-5.0495,-5.0122,-4.9853,-4.9853,-4.9853,-4.9853,-4.9853,-4.9853,-4.9703,-4.9329,-4.9299,-4.9299,-4.9299,-4.888,-4.8566,-4.8566,-4.8117,-4.8087,-4.8566,-4.8566,-4.885,-4.9299,-4.9464,-4.9553,-4.9553,-4.9763,-4.9853,-5.1159,-5.2698,-5.356,-5.2883,-5.119,-4.8932,-4.5997,-4.2565,-3.9803,-3.913,-3.7782,-3.7234,-3.8879,-3.9222,-3.9964,-4.2227,-4.3156,-4.4548,-4.7219,-4.9374,-5.119,-5.2575,-5.3929,-5.5561,-5.7623,-5.9624,-6.0517,-5.9839,-5.9809,-5.9501,-5.8824,-5.8146,-5.7826,-5.7826,-5.7179,-5.681,-5.681,-5.681,-5.681,-5.681,-5.681,-5.681,-5.681,-5.681,-5.6664,-5.6421,-5.6664,-5.6519,-5.6028,-5.6274,-5.6225,-5.5979,-5.5681,-5.5581,-5.5581,-5.528,-5.5179,-5.5089,-5.4431,-5.3773,-5.3084,-5.2426,-5.1768,-5.1229,-5.1229,-5.1229,-5.1229,-5.1229,-5.1229,-5.1229,-5.1229,-5.1229,-5.1229,-5.1229,-5.1229,-5.1229,-5.1229,-5.1229,-5.1229,-5.1229,-5.1229,-5.1229,-5.1229,-5.1199,-5.1199,-5.1199,-5.1199,-5.1199,-5.1199,-5.1199,-5.1199,-5.1199,-5.1199,-5.069,-4.9419,-4.9299,-4.9299,-4.9299,-4.9299,-4.9299,-4.9299,-4.9299,-4.9299,-4.9299,-4.9299,-4.9299,-4.9299,-4.9912,-5.0196,-5.0196,-5.0853,-5.1199,-4.7179,-4.846,-4.9193,-4.8519,-4.7507,-4.618,-4.4181,-4.1894,-3.9852,-3.8588,-3.8044,-3.7776,-3.7813,-3.9079,-4.0655,-4.2319,-4.3156,-4.4394,-4.6603,-4.8131,-4.9916,-5.2183,-5.5529,-5.8023,-5.9101,-5.9563,-5.9584,-5.8909,-5.8848,-5.8541,-5.7867,-5.7622,-5.7629,-5.7777,-5.7179,-5.681,-5.681,-5.681,-5.681,-5.681,-5.681,-5.681,-5.681,-5.6616,-5.647,-5.6372,-5.6323,-5.6176,-5.5979,-5.588,-5.578,-5.5681,-5.5431,-5.533,-5.533,-5.5229,-5.5179,-5.5089,-5.4431,-5.3743,-5.3084,-5.2426,-5.1768,-5.1229,-5.1229,-5.1229,-5.1229,-5.1229,-5.1229,-5.1229,-5.1229,-5.1229,-5.1229,-5.1229,-5.1229,-5.1229,-5.1229,-5.1229,-5.1229,-5.1229,-5.1229,-5.1229,-5.1229,-5.1229,-5.1229,-5.1229,-5.1229,-5.1229,-5.1229,-5.1229,-5.1229,-5.1229,-5.1229,-5.105,-5.0631,-5.0601,-5.0601,-5.0601,-5.0182,-4.9942,-4.9942,-4.9494,-4.9464,-4.9912,-4.9942,-5.0152,-5.0601,-5.081,-5.0853,-5.0853,-5.1109,-5.1229,-4.4129,-4.5598,-4.6508,-4.5929,-4.5358,-4.4442,-4.2561,-4.072,-3.9055,-3.7721,-3.7119,-3.6917,-3.6979,-3.8144,-3.9619,-4.1342,-4.2205,-4.3431,-4.566,-4.7252,-4.9139,-5.185,-5.5317,-5.7638,-5.804,-5.8593,-5.8624,-5.8053,-5.7942,-5.7586,-5.6946,-5.6885,-5.6934,-5.7132,-5.6831,-5.6664,-5.6664,-5.6664,-5.6664,-5.6664,-5.6761,-5.681,-5.681,-5.6519,-5.6323,-5.6225,-5.6077,-5.588,0.0,-5.5631,-5.538,-5.51,-5.514,-5.488,-5.4461,-5.473,-5.464,-5.4341,-5.3683,-5.3174,-5.2695,-5.2037,-5.1558,-5.1229,-5.1229,-5.1229,-5.1229,-5.1229,-5.1229,-5.1229,-5.1229,-5.1229,-5.1229,-5.1229,-5.1229,-5.1229,-5.1229,-5.1229,-5.1229,-5.1229,-5.1229,-5.1058,-5.068,-5.0632,-5.0632,-5.0632,-5.0632,-5.0728,-5.1182,-5.1229,-5.1229,-5.1229,-5.0822,-5.0632,-5.0632,-5.0632,-5.0775,-5.1182,-5.0436,-5.0181,-5.0554,-5.0212,-5.0182,-5.0554,-5.0554,-5.0764,-5.1229,-5.1229,-5.1229,-5.1229,-5.1229,-5.1229,0.0,-4.3655,-4.4739,-4.4461,-4.4112,-4.3205,-4.0891,-3.9022,0.0,-3.6637,-3.5462,-3.5046,-3.6501,-3.6806,-3.7567,-3.9768,-4.0739,-4.2105,-4.4686,-4.686,-4.9152,-5.1789,-5.3789,-5.5117,-5.5407,-5.6949,-5.772,-5.735,-5.704,-5.6616,-5.6009,-5.5948,-5.5918,-5.5967,-5.6103,-5.628,-5.6372,-5.6372,-5.6421,-5.6421,-5.6664,-5.681,-5.6761,-5.6519,-5.6225,-5.5979,-5.5929,-5.5681,-5.5229,-5.5421,-5.501,-5.4281,-5.482,-5.4281,-5.3264,-5.3892,-5.3773,-5.3144,-5.2456,-5.2217,-5.2157,-5.1439,-5.1229,-5.1229,-5.1229,-5.1229,-5.1229,-5.1229,-5.1229,-5.1229,-5.1229,-5.1229,-5.1229,-5.1229,-5.1229,-5.1229,-5.1229,-5.1229,-5.1182,-5.1135,-5.1182,-5.0822,-4.9659,-4.9562,-4.9562,-4.9513,-4.9562,-4.9979,-5.0964,-5.1152,-5.1182,-5.1058,-5.0172,-4.9562,-4.9464,-4.9562,-5.0028,-5.1011,-5.022,-5.0172,-5.1182,-5.1229,-5.1229,-5.1229,-5.1229,-5.1229,-5.1229,-5.1229,-5.1229,-5.1229,-5.1229,-5.1229,-3.785,0.0,-3.999,-3.8897,-3.8931,-3.8806,0.0,-3.6499,-3.6202,-3.5824,-3.5619,-3.5899,-3.7225,-3.8024,-3.9161,-4.1195,-4.25,-4.3866,-4.5505,-4.8641,-5.1528,-5.3688,-5.5139,-5.6144,-5.6842,-5.692,-5.6769,-5.6351,-5.6072,-5.5862,-5.5681,-5.5198,-5.5024,-5.522,-5.4637,-5.4849,-5.6077,-5.6323,-5.6421,-5.6421,-5.6664,-5.6713,-5.647,-5.6225,-5.5929,-5.5681,-5.5481,-5.533,-5.5149,-5.469,-5.4391,-5.4162,-5.3803,-5.3473,-5.3204,-5.3354,-5.3653,-5.3803,-5.2606,-5.2546,-5.2755,-5.1588,-5.1229,-5.1229,-5.1229,-5.1229,-5.1229,-5.1229,-5.1229,-5.1229,-5.1229,-5.1229,-5.1229,-5.1229,-5.1229,-5.1229,-5.1229,-5.1229,-5.0964,-5.0124,-5.0632,-5.0603,-4.8696,-4.9042,-4.9317,-4.8496,-4.9042,-4.9659,-4.9902,-5.068,-5.087,-5.0076,-4.9757,-4.9268,-4.8446,-4.912,-4.9737,-4.9979,-5.0508,-5.0917,-5.1182,-5.1229,-5.1229,-5.1229,-5.1229,-5.1229,-5.1229,-5.1229,-5.1229,-5.1229,-5.1229,-5.1229,-3.5672,-3.7331,-3.8973,-3.8146,-3.8306,-3.8306,-3.7079,-3.6313,-3.5657,-3.5164,-3.4896,-3.514,-3.643,-3.7312,-3.8586,-4.0909,-4.2387,-4.4257,-4.7123,-4.9764,-5.2167,-5.4198,-5.519,-5.5972,-5.6525,-5.6224,-5.5922,-5.5811,-5.5581,-5.531,-5.496,-5.46,-5.4368,-5.4183,-5.3676,-5.3875,-5.4922,-5.5068,-5.5117,-5.5117,-5.5407,-5.5455,-5.531,-5.5019,-5.4824,-5.4677,-5.443,-5.4281,-5.4251,-5.3892,-5.3563,-5.3294,-5.3204,-5.2815,-5.2306,-5.2606,-5.2785,-5.2725,-5.2007,-5.1977,-5.2157,-5.1439,-5.1229,-5.1229,-5.1229,-5.1229,-5.1229,-5.1229,-5.1229,-5.1229,-5.1229,-5.1229,-5.1229,-5.1229,-5.1229,-5.1229,-5.1229,-5.0822,-5.0268,-4.9708,-4.9659,-4.919,-4.7536,-4.774,-4.7943,-4.7331,-4.774,-4.8296,-4.8795,-4.9805,-5.0047,-4.8993,-4.8844,-4.8446,-4.7383,-4.7791,-4.8546,-4.9513,-4.9708,-5.0143,-5.1182,-5.1229,-5.1229,-5.1229,-5.1229,-5.1229,-5.1229,-5.1229,-5.1229,-5.1229,-5.1229,-5.1229,-3.4893,-3.7091,-3.9354,-3.8786,-3.8917,-3.8933,-3.7888,-3.649,-3.5264,-3.4625,-3.4113,-3.4262,-3.5818,-3.6626,-3.7913,-4.0427,-4.2043,-4.4567,-4.9,-5.0601,-5.2067,-5.3982,-5.479,-5.528,-5.5581,-5.533,-5.528,-5.5581,-5.524,-5.479,-5.4251,-5.4012,-5.3623,-5.3054,-5.2935,-5.3002,-5.3242,-5.3453,-5.3622,-5.3622,-5.388,-5.3975,-5.3927,-5.3688,-5.3543,-5.3543,-5.3301,-5.3174,-5.3174,-5.3084,-5.2695,-5.2247,-5.2695,-5.2187,-5.1289,-5.1858,-5.1768,-5.1379,-5.1379,-5.1319,-5.1229,-5.1229,-5.1229,-5.1229,-5.1229,-5.1229,-5.1229,-5.1229,-5.1229,-5.1229,-5.1229,-5.1229,-5.1229,-5.1229,-5.1229,-5.1182,-5.0964,-5.022,-4.9513,-4.917,-4.8496,-4.761,-4.6374,-4.6269,-4.6321,-4.6164,-4.6269,-4.6791,-4.7864,-4.8795,-4.8993,-4.8066,-4.7864,-4.7331,-4.6216,-4.6111,-4.6971,-4.9022,-4.8596,-4.9042,-5.087,-5.1105,-5.1058,-5.0728,-5.087,-5.087,-5.0698,-5.0698,-5.0698,-5.0728,-5.087,-5.0964,-3.5759,-3.7379,-3.8038,-3.5821,-3.6121,-3.651,-3.4651,-3.4054,-3.3995,-3.4414,-3.4861,-3.5938,-3.8362,-3.9349,-4.0487,-4.2512,-4.4466,-4.692,-5.0421,-5.1588,-5.2576,-5.4042,-5.479,-5.528,-5.5581,-5.533,-5.528,-5.5581,-5.482,-5.4311,-5.4221,-5.3114,-5.2456,-5.2366,-5.1798,-5.1528,-5.1575,-5.2954,-5.3622,-5.3622,-5.388,-5.388,-5.364,-5.3622,-5.3495,-5.3271,-5.3223,-5.3174,-5.3144,-5.2576,-5.2276,-5.2157,-5.1708,-5.1379,-5.1229,-5.1319,-5.1648,-5.2067,-5.2067,-5.1678,-5.1229,-5.1229,-5.1229,-5.1229,-5.1229,-5.1229,-5.1229,-5.1229,-5.1229,-5.1229,-5.1229,-5.1229,-5.1229,-5.1229,-5.1229,-5.0964,-5.0028,-4.9737,-4.9071,-4.7229,-4.7485,-4.7355,-4.5288,-4.5768,-4.6058,-4.5073,-4.5768,-4.6791,-4.7864,-4.8117,-4.8167,-4.8016,-4.7177,-4.6164,-4.5046,-4.4992,-4.5502,-4.6843,-4.8446,-4.9513,-4.9805,-5.0728,-5.0364,-4.8546,-4.9415,-4.9415,-4.8468,-4.8468,-4.8468,-4.8518,-4.9415,-4.9883,-3.4711,-3.6088,-3.7135,-3.6267,-3.7614,-3.8936,-3.7973,-3.7195,-3.6776,-3.7075,-3.7404,-3.8093,-3.9649,-4.0786,-4.2342,-4.5035,-4.686,-4.8686,-5.09,-5.1798,-5.2695,-5.4042,-5.479,-5.5229,-5.5381,-5.528,-5.508,-5.487,-5.4421,-5.3892,-5.3174,-5.2546,-5.2037,-5.1678,-5.1379,-5.1229,-5.1229,-5.1922,-5.227,-5.227,-5.2412,-5.2412,-5.227,-5.227,-5.2222,-5.2127,0.0,-5.2127,-5.2097,-5.1798,-5.1678,-5.1648,-5.1349,-5.1229,-5.1229,-5.1229,-5.1409,-5.1678,-5.1678,-5.1468,-5.1229,-5.1229,-5.1229,-5.1229,-5.1229,-5.1229,-5.1229,-5.1229,-5.1229,-5.1229,-5.1229,-5.1229,-5.1058,-5.046,-5.0316,-5.0076,-4.8944,-4.8296,-4.7587,-4.6583,-4.6321,-4.59,-4.4884,-4.5127,-4.5288,-4.4776,-4.5127,-4.5662,-4.6137,-4.6764,-4.6919,-4.6294,-4.6321,-4.5953,-4.4776,-4.4668,-4.5449,-4.7177,-4.8745,-4.9611,-4.9611,-5.0076,-4.9611,-4.8016,-4.8496,-4.8496,-4.8016,-4.8016,-4.8016,-4.8016,-4.8496,-4.9042,-3.4203,-3.519,-3.6477,-3.7404,-3.905,-4.0576,-4.1055,-4.0127,-3.932,-3.9768,-4.0008,-4.0307,-4.0965,-4.2282,-4.4287,-4.7279,-4.864,-4.9808,-5.1229,-5.2007,-5.2875,-5.4072,-5.479,-5.5119,-5.497,-5.497,-5.467,-5.4012,-5.3832,-5.3294,-5.2247,-5.2067,-5.1738,-5.1229,-5.1229,-5.1229,-5.1229,-5.1229,-5.1229,-5.1229,-5.1229,-5.1229,-5.1229,-5.1229,-5.1229,-5.1229,-5.1229,-5.1229,-5.1229,-5.1229,-5.1229,-5.1229,-5.1229,-5.1229,-5.1229,-5.1229,-5.1229,-5.1229,-5.1229,-5.1229,-5.1229,-5.1229,-5.1229,-5.1229,-5.1229,-5.1229,-5.1229,-5.1229,-5.1229,-5.1229,-5.1229,-5.1229,-5.0917,-4.9883,-4.9611,-4.9268,-4.7943,-4.6971,-4.6321,-4.6058,-4.5288,-4.4668,-4.4668,-4.4668,-4.4668,-4.4668,-4.4668,-4.4776,-4.5046,-4.5662,-4.5768,-4.5127,-4.5662,-4.5662,-4.4776,-4.4668,-4.5555,-4.7536,-4.8646,-4.9092,-4.8844,-4.912,-4.8596,-4.7252,-4.7457,-4.7457,-4.7229,-4.7229,-4.7229,-4.7201,-4.7508,-4.8094,-3.5789,-3.5938,-3.6028,-3.7853,-3.8003,-3.8182,-4.0038,-3.9439,-3.899,-4.0846,-4.1752,-4.2381,-4.2961,-4.4665,-4.6711,-4.882,-4.9239,-4.9988,-5.1858,-5.2695,-5.3384,-5.4132,-5.479,-5.494,-5.4341,-5.4281,-5.3982,-5.3294,-5.2695,-5.2306,-5.2217,-5.1618,-5.1259,-5.1229,-5.1229,-5.1229,-5.1229,-5.1229,-5.1229,-5.1229,-5.1229,-5.1229,-5.1229,-5.1229,-5.1229,-5.1229,-5.1229,-5.1229,-5.1229,-5.1229,-5.1229,-5.1229,-5.1229,-5.1229,-5.1229,-5.1229,-5.1229,-5.1229,-5.1229,-5.1229,-5.1229,-5.1229,-5.1229,-5.1229,-5.1229,-5.1229,-5.1229,-5.1229,-5.1229,-5.1229,-5.1229,-5.1229,-5.0917,-4.9883,-4.9611,-4.9022,-4.6971,-4.6478,-4.6058,-4.5046,-4.4776,-4.4668,-4.4668,-4.4668,-4.4668,-4.4668,-4.4668,-4.51,-4.6111,-4.5449,-4.5181,-4.6164,-4.5395,-4.4776,-4.4722,-4.4668,-4.5235,-4.6426,-4.7536,-4.7689,-4.6687,-4.7587,-4.7126,-4.4992,-4.5953,-4.6006,-4.4938,-4.4938,-4.4938,-4.4992,-4.6006,-4.6583,-3.5073,-3.537,-3.5878,-3.7404,-3.8212,-3.917,-4.1212,-4.1564,-4.1953,-4.3509,-4.4018,-4.4407,-4.5065,-4.6142,-4.7459,-4.906,-4.9613,-5.0421,-5.1977,-5.1835,-5.2103,-5.3424,-5.2616,-5.237,-5.3495,-5.299,-5.2575,-5.2557,-5.2336,-5.2007,-5.1618,-5.1349,-5.1229,-5.1229,-5.1229,-5.1229,-5.1229,-5.1229,-5.1229,-5.1229,-5.1229,-5.1229,-5.1229,-5.1229,-5.1229,-5.1229,-5.1229,-5.1229,-5.1229,-5.1229,-5.1229,-5.1229,-5.1229,-5.1229,-5.1229,-5.1229,-5.1229,-5.1229,-5.1229,-5.1229,-5.1229,-5.1229,-5.1229,-5.1229,-5.1229,-5.1229,-5.1229,-5.1229,-5.1229,-5.1229,-5.1229,-5.1229,-5.0775,-4.8993,-4.8596,-4.8044,-4.5794,-4.5342,-4.5235,-4.4776,-4.4668,-4.4668,-4.4668,-4.4668,-4.4668,-4.4668,-4.4668,-4.4884,-4.5288,-4.4992,-4.4884,-4.5288,-4.4992,-4.4668,-4.4668,-4.4668,-4.4884,-4.5342,-4.6374,-4.6816,-4.6426,-4.6791,-4.6269,-4.4722,-4.5127,-4.5127,-4.4668,-4.4668,-4.4668,-4.4722,-4.5127,-4.5902,-3.4861,-3.516,-3.5818,-3.7075,-3.8422,-3.9978,-4.2162,-4.303,-4.3928,-4.5843,-4.6232,-4.6381,-4.686,-4.713,-4.7728,-4.909,-4.9643,-5.0253,-5.125,-5.0945,-5.0942,-5.1777,-5.0771,-5.0492,-5.1766,-5.1207,-5.0796,-5.0847,-5.0867,-5.0836,-5.068,-5.068,-5.087,-5.1182,-5.1229,-5.1229,-5.1229,-5.1229,-5.1229,-5.1229,-5.1229,-5.1229,-5.1229,-5.1229,-5.1229,-5.1229,-5.1229,-5.1229,-5.1229,-5.1229,-5.1229,-5.1229,-5.1229,-5.1229,-5.1229,-5.1229,-5.1229,-5.1229,-5.1229,-5.1229,-5.1229,-5.1229,-5.1229,-5.1135,-5.0822,-5.0917,-5.1165,-5.106,-5.1262,-5.1558,-5.1798,-5.1292,-5.0279,-4.8701,-4.8019,-4.7301,-4.5655,-4.5271,-4.5271,-4.5271,-4.5271,-4.5271,-4.5271,-4.514,-4.5062,-4.5245,-4.514,-4.5062,-4.5271,-4.5271,-4.5271,-4.5271,-4.4957,-4.4746,-4.4955,-4.4826,-4.4668,-4.4668,-4.5449,-4.5874,-4.5874,-4.5874,-4.5502,-4.4722,-4.4668,-4.4668,-4.4668,-4.4668,-4.4826,-4.4955,-4.4955,-4.568,-3.5669,-3.5519,-3.5818,-3.7105,-3.8452,-4.0091,-4.2722,-4.3389,-4.4347,-4.7608,-4.8267,-4.8267,-4.8267,-4.7758,-4.7728,-4.909,-4.9299,-4.9383,-4.9582,-5.0162,-5.0191,-4.9126,-4.9587,-4.9699,-4.9057,-4.8972,-4.8719,-4.8072,-4.8016,-4.8446,-4.9513,-4.9562,-5.0076,-5.1152,-5.1199,-5.1199,-5.1199,-5.1199,-5.1199,-5.1199,-5.1199,-5.1199,-5.1229,-5.1229,-5.1229,-5.1229,-5.1229,-5.1229,-5.1229,-5.1229,-5.1229,-5.1229,-5.1229,-5.1229,-5.1229,-5.1229,-5.1229,-5.1229,-5.1229,-5.1229,-5.1229,-5.1229,-5.1229,-5.1011,-4.9931,-5.0364,-5.1113,-5.069,-5.1385,-5.2366,-5.2995,-5.1385,-4.949,-4.9013,-4.8064,-4.7056,-4.6622,-4.6473,-4.6473,-4.6473,-4.6473,-4.6473,-4.6473,-4.6003,-4.582,-4.6395,-4.6003,-4.5846,-4.6395,-4.6473,-4.6473,-4.6473,-4.5428,-4.4929,-4.5584,-4.5033,-4.4748,-4.4748,-4.4748,-4.4694,-4.4668,-4.4668,-4.4668,-4.4668,-4.4668,-4.4668,-4.4668,-4.4694,-4.5036,-4.5581,-4.5637,-4.595,-3.4981,-3.5489,-3.6507,-3.7793,-4.0157,-4.2572,-4.4317,-4.4736,-4.5274,-4.7189,-4.7608,-4.7608,-4.7608,-4.7429,-4.7728,-4.909,-4.9299,-4.9383,-4.9582,-4.9115,-4.8651,-4.8297,-4.7097,-4.6835,-4.8173,-4.7608,-4.7371,-4.7943,-4.8016,-4.8117,-4.8446,-4.9219,-4.9553,-4.9373,-5.0109,-5.0301,-4.9853,-4.9853,-4.9853,-4.9853,-5.0301,-5.0734,-5.1229,-5.1229,-5.1229,-5.1229,-5.1229,-5.1229,-5.1229,-5.1229,-5.1229,-5.1229,-5.1229,-5.1229,-5.1229,-5.1229,-5.1229,-5.1229,-5.1229,-5.1229,-5.1229,-5.1229,-5.1229,-5.1011,-4.9931,-5.0364,-5.1113,-5.069,-5.1385,-5.2144,-5.2032,-5.0854,-4.9728,-4.9563,-4.8671,-4.7567,-4.6701,-4.6473,-4.6473,-4.6473,-4.6473,-4.6473,-4.6473,-4.6342,-4.629,-4.6447,-4.6342,-4.629,-4.6447,-4.6473,-4.6473,-4.6473,-4.6159,-4.6029,-4.6212,-4.6055,-4.595,-4.595,-4.595,-4.5584,-4.4774,-4.4668,-4.4668,-4.4668,-4.4668,-4.4668,-4.4668,-4.5166,-4.5454,-4.5637,-4.6055,-4.6525,-3.5549,-3.6417,-3.7674,-3.9535,-4.1654,-4.3768,-4.5663,-4.6292,-4.6711,-4.7519,-4.7698,-4.7698,-4.7698,-4.7489,-4.7638,-4.876,-4.8759,-4.8588,-4.8574,-4.7875,-4.7229,-4.6764,-4.5342,-4.4891,-4.6253,-4.5545,-4.5306,-4.5949,-4.6001,-4.6205,-4.6634,-4.7235,-4.7832,-4.8275,-4.8916,-4.9278,-4.9329,-4.9299,-4.9299,-4.9299,-4.9673,-5.0062,-5.0451,-5.099,-5.1229,-5.1229,-5.1229,-5.1229,-5.1229,-5.1229,-5.1229,-5.1229,-5.1229,-5.1229,-5.1229,-5.1229,-5.1229,-5.1229,-5.1229,-5.0917,-5.0555,-5.0555,-5.0268,-4.9757,-4.8646,-4.9092,-4.9824,-4.9465,-5.0263,-5.1241,-5.1219,-5.0541,-4.9798,-4.9548,-4.86,-4.7657,-4.7271,-4.7153,-4.7153,-4.7153,-4.7153,-4.7153,-4.7153,-4.697,-4.6891,-4.7127,-4.7153,-4.7153,-4.7153,-4.697,-4.6917,-4.7127,-4.6761,-4.6578,-4.6787,-4.6604,-4.6473,-4.6473,-4.6473,-4.6159,-4.5454,-4.5192,-4.4903,-4.4668,-4.4957,-4.5033,-4.5033,-4.5663,-4.6081,-4.626,-4.6656,-4.7127,-3.6716,-3.7793,-3.905,-4.1811,-4.309,-4.4276,-4.6741,-4.7758,-4.8207,-4.8207,-4.8207,-4.8207,-4.8207,-4.7698,-4.7519,-4.8177,-4.7858,-4.7386,-4.6996,-4.6499,-4.5792,-4.4673,-4.4121,-4.3807,-4.3807,-4.3337,-4.3023,-4.3023,-4.3023,-4.3412,-4.4404,-4.4556,-4.5475,-4.7355,-4.759,-4.8148,-4.8985,-4.9075,-4.912,-4.912,-4.9179,-4.9209,-4.9269,-5.0481,-5.1079,-5.1139,-5.1199,-5.1229,-5.1229,-5.1229,-5.1229,-5.1229,-5.1229,-5.1229,-5.1229,-5.1229,-5.1229,-5.1182,-5.1058,-5.0412,-4.9562,-4.9464,-4.8795,-4.7813,-4.6739,-4.7177,-4.7903,-4.7503,-4.8556,-4.996,-5.05,-5.0299,-4.9737,-4.9054,-4.8129,-4.7545,-4.8068,-4.8172,-4.8172,-4.8172,-4.8172,-4.8172,-4.8172,-4.7754,-4.7597,-4.812,-4.8172,-4.8172,-4.8172,-4.7728,-4.7597,-4.812,-4.7257,-4.6839,-4.7362,-4.6944,-4.663,-4.663,-4.663,-4.6604,-4.6552,-4.6003,-4.5399,-4.4905,-4.5428,-4.5715,-4.5715,-4.6264,-4.6813,-4.7278,-4.733,-4.7702,-3.5519,-3.7135,-3.914,-4.2342,-4.4796,-4.6591,-4.7189,-4.7429,-4.7519,-4.7519,-4.7519,-4.7519,-4.7519,-4.7399,-4.7519,-4.8177,-4.755,-4.68,-4.6349,-4.5558,-4.4555,-4.3468,-4.3284,-4.3206,-4.3206,-4.3101,-4.3023,-4.3023,-4.3023,-4.3127,-4.3308,-4.4127,-4.4616,-4.4594,-4.6177,-4.6874,-4.6576,-4.7347,-4.7728,-4.7728,-4.8237,-4.8506,-4.8506,-4.9314,-4.9972,-5.0435,-5.0943,-5.1229,-5.1229,-5.1229,-5.1229,-5.1229,-5.1229,-5.1229,-5.1229,-5.1229,-5.1229,-5.1058,-5.022,-4.9757,-4.9464,-4.8646,-4.8167,-4.7813,-4.6739,-4.7177,-4.7903,-4.7503,-4.8556,-4.9749,-4.9501,-4.9717,-4.9675,-4.8625,-4.8163,-4.8041,-4.8146,-4.8172,-4.8172,-4.8172,-4.8172,-4.8172,-4.8172,-4.8068,-4.8041,-4.8172,-4.8172,-4.8172,-4.8172,-4.8068,-4.8041,-4.8172,-4.7963,-4.7858,-4.7989,-4.7885,-4.7806,-4.7806,-4.7806,-4.7623,-4.7179,-4.6604,-4.6238,-4.6107,-4.6238,-4.629,-4.629,-4.6865,-4.7205,-4.7278,-4.7806,-4.8068,-3.534,-3.7404,-3.9738,-4.3359,-4.5813,-4.7309,-4.7309,-4.7309,-4.7309,-4.7309,-4.7309,-4.7309,-4.7309,-4.7309,-4.7268,-4.7126,-4.6517,-4.578,-4.5031,-4.432,-4.3643,-4.3075,-4.2788,-4.2605,-4.2605,-4.2369,-4.2213,-4.2213,-4.2213,-4.2213,-4.2213,-4.2719,-4.3111,-4.3231,-4.4316,-4.4949,-4.5098,-4.5627,-4.6077,-4.6594,-4.6919,-4.7392,-4.7848,-4.888,-4.9464,-4.9793,-5.0451,-5.0704,-5.0734,-5.1079,-5.1229,-5.1229,-5.1229,-5.087,-5.0508,-5.1011,-5.087,-5.0364,-4.9757,-4.9268,-4.8646,-4.7587,-4.6867,-4.6294,-4.5741,-4.5953,-4.6376,-4.6169,-4.7163,-4.8164,-4.7909,-4.8462,-4.8957,-4.8347,-4.8172,-4.8172,-4.8172,-4.8172,-4.8172,-4.8172,-4.8172,-4.8172,-4.8172,-4.8172,-4.8172,-4.8172,-4.8172,-4.8172,-4.8172,-4.8172,-4.8172,-4.8172,-4.8172,-4.8172,-4.8172,-4.8172,-4.8172,-4.8172,-4.8172,-4.8041,-4.7754,-4.7466,-4.7048,-4.6499,-4.6761,-4.6891,-4.6891,-4.7466,-4.7728,-4.7754,-4.8041,-4.8172,-3.4981,-3.7644,-4.0516,-4.4347,-4.6232,-4.716,-4.7279,-4.7309,-4.7309,-4.7309,-4.7309,-4.7309,-4.7309,-4.7309,-4.6975,-4.5958,-4.5388,-4.4689,-4.3699,-4.3059,-4.2735,-4.2735,-4.2317,-4.2004,-4.2004,-4.1585,-4.1324,-4.1324,-4.1324,-4.1324,-4.1324,-4.1324,-4.167,-4.2501,-4.2695,-4.3225,-4.4031,-4.4219,-4.473,-4.5553,-4.5734,-4.6255,-4.7092,-4.8372,-4.903,-4.9179,-4.9793,-4.9924,-4.9846,-5.0687,-5.0815,-5.0502,-5.081,-5.0268,-4.9415,-5.0316,-5.0124,-4.9317,-4.912,-4.8446,-4.7536,-4.6478,-4.5449,-4.4668,-4.4668,-4.4668,-4.4668,-4.4668,-4.5584,-4.6473,-4.6473,-4.7336,-4.8172,-4.8172,-4.8172,-4.8172,-4.8172,-4.8172,-4.8172,-4.8172,-4.8172,-4.8172,-4.8172,-4.8172,-4.8172,-4.8172,-4.8172,-4.8172,-4.8172,-4.8172,-4.8172,-4.8172,-4.8172,-4.8172,-4.8172,-4.8172,-4.8172,-4.8172,-4.8172,-4.8172,-4.8172,-4.8172,-4.7728,-4.6787,-4.7231,-4.7492,-4.7492,-4.7963,-4.8172,-4.8172,-4.8172,-4.8172,-3.2617,-3.6567,-4.1085,-4.4466,-4.5873,-4.6621,-4.7189,-4.7309,-4.7309,-4.7309,-4.7309,-4.7309,-4.7309,-4.7309,-4.6975,-4.5958,-4.5018,-4.4049,-4.3046,-4.2103,-4.1533,-4.1533,-4.1481,-4.1428,-4.1428,-4.135,-4.1324,-4.1324,-4.1324,-4.1324,-4.1324,-4.1324,-4.1348,-4.1498,-4.2333,-4.284,-4.2985,-4.389,-4.4359,-4.4499,-4.5372,-4.5869,-4.6032,-4.7109,-4.7878,-4.8446,-4.9105,-4.8919,-4.8255,-4.9694,-4.9274,-4.7779,-4.9233,-4.9141,-4.8217,-4.8368,-4.8346,-4.8094,-4.7126,-4.6739,-4.6426,-4.5288,-4.483,-4.4668,-4.4668,-4.4668,-4.4668,-4.4668,-4.5584,-4.6473,-4.6473,-4.7336,-4.8172,-4.8172,-4.8172,-4.8172,-4.8172,-4.8172,-4.8172,-4.8172,-4.8172,-4.8172,-4.8172,-4.8172,-4.8172,-4.8172,-4.8172,-4.8172,-4.8172,-4.8172,-4.8172,-4.8172,-4.8172,-4.8172,-4.8172,-4.8172,-4.8172,-4.8172,-4.8172,-4.8172,-4.8172,-4.8172,-4.812,-4.7963,-4.8015,-4.8068,-4.8068,-4.8146,-4.8172,-4.8172,-4.8172,-4.8172,-3.3873,-3.7255,-4.0546,-4.3479,-4.4975,-4.5933,-4.6591,-4.704,-4.7309,-4.7309,-4.7309,-4.7309,-4.7309,-4.7309,-4.68,-4.519,-4.4591,-4.3748,-4.2186,-4.1597,-4.1324,-4.1324,-4.1324,-4.1324,-4.1324,-4.1324,-4.1324,-4.1324,-4.1324,-4.1324,-4.1324,-4.1324,-4.1324,-4.1324,-4.172,-4.1967,-4.1967,-4.2382,-4.2916,-4.3511,-4.5024,-4.5508,-4.5007,-4.5987,-4.6312,-4.6107,-4.7369,-4.7616,-4.7352,-4.8412,-4.8475,-4.7998,-4.875,-4.8233,-4.7177,-4.7791,-4.761,-4.7023,-4.6583,-4.6374,-4.6216,-4.51,-4.4668,-4.4668,-4.4668,-4.4668,-4.4746,-4.514,-4.5846,-4.6552,-4.6865,-4.7571,-4.8172,-4.8172,-4.8172,-4.8172,-4.8172,-4.8172,-4.8172,-4.8172,-4.8172,-4.8172,-4.8172,-4.8172,-4.8172,-4.8172,-4.8172,-4.8172,-4.8172,-4.8172,-4.8172,-4.8172,-4.8172,-4.8172,-4.8172,-4.8172,-4.8172,-4.8172,-4.8172,-4.8172,-4.8172,-4.8172,-4.8172,-4.8172,-4.8172,-4.8172,-4.8172,-4.8172,-4.8172,-4.8172,-4.8172,-4.8172,-3.4322,-3.6656,-3.8631,-4.1556,-4.3449,-4.4766,-4.5603,-4.6322,-4.683,-4.701,-4.707,-4.71,-4.7279,-4.7062,-4.6373,-4.4591,-4.4078,-4.3321,-4.1547,-4.1324,-4.1324,-4.1324,-4.1324,-4.1324,-4.1324,-4.1324,-4.1324,-4.1324,-4.1324,-4.1324,-4.1324,-4.1324,-4.1324,-4.1324,-4.1324,-4.1324,-4.1324,-4.1324,-4.1819,-4.284,-4.4331,-4.461,-4.3937,-4.4961,-4.473,-4.3634,-4.5427,-4.5999,-4.587,-4.6782,-4.711,-4.7056,-4.7612,-4.6997,-4.587,-4.6813,-4.666,-4.5953,-4.5953,-4.5953,-4.5821,-4.4992,-4.4668,-4.4668,-4.4668,-4.4668,-4.4772,-4.5216,-4.5924,-4.6578,-4.6996,-4.7649,-4.8172,-4.8172,-4.8172,-4.8172,-4.8172,-4.8172,-4.8172,-4.8172,-4.8172,-4.8172,-4.8172,-4.8172,-4.8172,-4.8172,-4.8172,-4.8172,-4.8172,-4.8172,-4.8172,-4.8172,-4.8172,-4.8172,-4.8172,-4.8172,-4.8172,-4.8172,-4.8172,-4.8172,-4.8172,-4.8172,-4.8172,-4.8172,-4.8172,-4.8172,-4.8172,-4.8172,-4.8172,-4.8172,-4.8172,-4.8172,-3.1809,-3.3245,-3.4741,-3.8661,-4.1085,-4.289,-4.4137,-4.4915,-4.5574,-4.6232,-4.6339,-4.6561,-4.7189,-4.655,-4.5553,-4.4452,-4.3511,-4.2501,-4.1448,-4.1324,-4.1324,-4.1324,-4.1324,-4.1324,-4.1324,-4.1324,-4.1324,-4.1324,-4.1324,-4.1324,-4.1324,-4.1324,-4.1324,-4.1324,-4.1324,-4.1324,-4.1324,-4.1324,-4.1819,-4.2792,-4.2937,-4.2937,-4.2937,-4.3937,-4.3321,-4.1547,-4.3539,-4.3871,-4.3115,-4.4777,-4.4282,-4.2752,-4.484,-4.4989,-4.407,-4.4674,-4.483,-4.4776,-4.4776,-4.4776,-4.4776,-4.4722,-4.4668,-4.4668,-4.4668,-4.4668,-4.4694,-4.4774,-4.5584,-4.6499,-4.6499,-4.7362,-4.8172,-4.8172,-4.8172,-4.8172,-4.8172,-4.8172,-4.8172,-4.8172,-4.8172,-4.8172,-4.8172,-4.8172,-4.8172,-4.8172,-4.8172,-4.8172,-4.8172,-4.8172,-4.8172,-4.8172,-4.8172,-4.8172,-4.8172,-4.8172,-4.8172,-4.8172,-4.8172,-4.8172,-4.8172,-4.8172,-4.8172,-4.8172,-4.8172,-4.8172,-4.8172,-4.8172,-4.8172,-4.8172,-4.8172,-4.8172,-3.0791,-3.2317,-3.4143,-3.6866,-3.902,-4.0816,-4.2132,-4.3599,-4.4736,-4.4975,-4.5364,-4.5723,-4.5963,-4.5917,-4.5463,-4.4452,-4.3464,-4.2479,-4.1448,-4.1324,-4.1324,-4.1324,-4.1324,-4.1324,-4.1324,-4.1324,-4.1324,-4.1324,-4.1324,-4.1324,-4.1324,-4.1324,-4.1324,-4.1324,-4.1324,-4.1324,-4.1324,-4.1324,-4.1498,-4.1868,-4.2479,-4.2479,-4.1868,-4.2889,-4.2577,-4.1374,-4.2065,-4.2528,-4.2867,-4.3444,-4.3481,-4.3275,-4.4432,-4.4485,-4.3938,-4.4513,-4.4668,-4.4668,-4.4668,-4.4668,-4.4668,-4.4668,-4.4668,-4.4668,-4.4668,-4.4955,-4.5375,-4.5741,-4.6421,-4.71,-4.7466,-4.7885,-4.8172,-4.8172,-4.8172,-4.8172,-4.8172,-4.8172,-4.8172,-4.8172,-4.8172,-4.8172,-4.8172,-4.8172,-4.8172,-4.8172,-4.8172,-4.8172,-4.8172,-4.8172,-4.8172,-4.8172,-4.8172,-4.8172,-4.8172,-4.8172,-4.8172,-4.8172,-4.8172,-4.8172,-4.8172,-4.8172,-4.8172,-4.8172,-4.8172,-4.8172,-4.8172,-4.8172,-4.8172,-4.8172,-4.8172,-4.8172,-2.9744,-3.115,-3.3036,-3.525,-3.6806,-3.8332,-4.0546,-4.1893,-4.291,-4.3768,-4.4072,-4.4436,-4.5173,-4.4691,-4.4163,-4.4021,-4.2876,-4.1826,-4.1372,-4.1324,-4.1324,-4.1324,-4.1324,-4.1324,-4.1324,-4.1324,-4.1324,-4.1324,-4.1324,-4.1324,-4.1324,-4.1324,-4.1324,-4.1324,-4.1324,-4.1324,-4.1324,-4.1324,-4.1324,-4.1324,-4.1967,-4.1967,-4.1324,-4.2016,-4.1918,-4.1324,-4.1324,-4.1696,-4.2284,-4.2284,-4.2525,-4.2981,-4.3731,-4.383,-4.3676,-4.446,-4.4668,-4.4668,-4.4668,-4.4668,-4.4668,-4.4668,-4.4668,-4.4668,-4.4668,-4.5009,-4.5454,-4.6029,-4.6604,-4.7179,-4.7754,-4.8041,-4.8172,-4.8172,-4.8172,-4.8172,-4.8172,-4.8172,-4.8172,-4.8172,-4.8172,-4.8172,-4.8172,-4.8172,-4.8172,-4.8172,-4.8172,-4.8172,-4.8172,-4.8172,-4.8172,-4.8172,-4.8172,-4.8172,-4.8172,-4.8172,-4.8172,-4.8172,-4.8172,-4.8172,-4.8172,-4.8172,-4.8172,-4.8172,-4.8172,-4.8172,-4.8172,-4.8172,-4.8172,-4.8172,-4.8172,-4.8172,0.0,0.0,0.0,-3.3725,-3.4384,-3.5402,-3.9254,-3.9672,-3.9971,-4.2602,-4.246,-4.2585,-4.478,-4.2906,-4.1507,-4.297,-4.1585,-4.0592,-4.1193,-4.1272,-4.1272,-4.1272,-4.1272,-4.1272,-4.1298,-4.1298,-4.1298,-4.1324,-4.1324,-4.1324,-4.1324,-4.1324,-4.1324,-4.1324,-4.1324,-4.1324,-4.1324,-4.1324,-4.1324,-4.1324,-4.1324,-4.1324,-4.1324,-4.1324,-4.1324,-4.1324,-4.1324,-4.1324,-4.1324,-4.1324,-4.1324,-4.1428,-4.2579,-4.3023,-4.3154,-4.4304,-4.4668,-4.4668,-4.4668,-4.4668,-4.4668,-4.4668,-4.4668,-4.4668,-4.4668,-4.4694,-4.4824,-4.548,-4.6055,-4.663,-4.7205,-4.778,-4.8172,-4.8172,-4.8172,-4.8172,-4.8172,-4.8172,-4.8172,-4.8172,-4.8172,-4.8172,-4.8172,-4.8172,-4.8172,-4.8172,-4.8172,-4.8172,-4.8172,-4.8172,-4.8172,-4.8172,-4.8172,-4.8172,-4.8172,-4.8172,-4.8172,-4.8172,-4.8172,-4.8172,-4.8172,-4.8172,-4.8172,-4.8172,-4.8172,-4.8172,-4.8172,-4.8172,-4.8172,-4.8172,-4.8172,-4.8172,-2.8727,0.0,0.0,0.0,0.0,0.0,-3.4136,-3.5314,-3.6462,-3.8583,-3.9156,-3.9848,-4.1836,-4.0505,-3.9561,-4.0777,-4.0328,-3.9886,-4.0069,-4.0095,-4.0095,-4.0095,-4.0095,-4.0226,-4.0618,-4.0671,-4.0853,-4.1272,-4.1324,-4.1324,-4.1324,-4.1324,-4.1324,-4.1324,-4.1324,-4.1324,-4.1324,-4.1324,-4.1324,-4.1324,-4.1324,-4.1324,-4.1324,-4.1324,-4.1324,-4.1324,-4.1324,-4.1324,-4.1324,-4.1324,-4.1324,-4.1428,-4.2579,-4.3023,-4.3154,-4.4304,-4.4668,-4.4668,-4.4668,-4.4668,-4.4668,-4.4668,-4.4668,-4.4668,-4.4668,-4.4981,-4.5506,-4.6081,-4.6656,-4.7231,-4.7806,-4.8068,-4.8172,-4.8172,-4.8172,-4.8172,-4.8172,-4.8172,-4.8172,-4.8172,-4.8172,-4.8172,-4.8172,-4.8172,-4.8172,-4.8172,-4.8172,-4.8172,-4.8172,-4.8172,-4.8172,-4.8172,-4.8172,-4.8172,-4.8172,-4.8172,-4.8172,-4.8172,-4.8172,-4.8172,-4.8172,-4.8172,-4.8172,-4.8172,-4.8172,-4.8172,-4.8172,-4.8172,-4.8172,-4.8172,-4.8172,-4.8172,-2.9654,-3.0073,-3.0884,-3.1249,0.0,0.0,-3.2638,-3.3032,-3.3634,-3.636,-3.6835,-3.7327,-3.9086,-3.8159,-3.7424,-3.8515,-3.8591,-3.8789,-3.952,-3.9599,-3.9599,-3.9599,-3.9599,-3.973,-4.0043,-4.0069,-4.0226,-4.0566,-4.0592,-4.0697,-4.0932,-4.1167,-4.1324,-4.1324,-4.1324,-4.1324,-4.1324,-4.1324,-4.1324,-4.1324,-4.1324,-4.1324,-4.1324,-4.1324,-4.1324,-4.1324,-4.1324,-4.1324,-4.1324,-4.1324,-4.1324,-4.1428,-4.2579,-4.3023,-4.3154,-4.4304,-4.4668,-4.4668,-4.4668,-4.4668,-4.4668,-4.4668,-4.4668,-4.4668,-4.4668,-4.4983,-4.5375,-4.595,-4.6708,-4.7466,-4.8041,-4.8172,-4.8172,-4.8172,-4.8172,-4.8172,-4.8172,-4.8172,-4.8172,-4.8172,-4.8172,-4.8172,-4.8172,-4.8172,-4.8172,-4.8172,-4.8172,-4.8172,-4.8172,-4.8172,-4.8172,-4.8172,-4.8172,-4.8172,-4.8172,-4.8172,-4.8172,-4.8172,-4.8172,-4.8172,-4.8172,-4.8172,-4.8172,-4.8172,-4.8172,-4.8172,-4.8172,-4.8172,-4.8172,-4.8172,-4.8172,-4.8172,-3.0802,-3.1307,-3.2167,-3.2171,-3.0422,0.0,-3.2653,-3.1847,-3.1406,-3.4691,-3.4803,-3.4826,-3.6462,-3.5791,-3.5294,-3.6142,-3.6555,-3.7403,-3.9076,-3.939,-3.9416,-3.9416,-3.9416,-3.9442,-3.9494,-3.952,-3.9547,-3.9599,-3.9599,-3.9808,-4.0305,-4.0827,-4.1167,-4.1219,-4.1219,-4.1246,-4.1324,-4.1324,-4.1324,-4.1324,-4.1324,-4.1324,-4.1324,-4.1324,-4.1324,-4.1324,-4.1324,-4.1324,-4.1324,-4.1324,-4.1324,-4.1428,-4.25,-4.2971,-4.3154,-4.4225,-4.467,-4.4668,-4.4668,-4.4668,-4.4668,-4.4668,-4.4668,-4.4668,-4.4668,-4.4668,-4.4853,-4.5454,-4.6391,-4.744,-4.7963,-4.8146,-4.8172,-4.8172,-4.8172,-4.8172,-4.8172,-4.8172,-4.8172,-4.8172,-4.8172,-4.8172,-4.8172,-4.8172,-4.8172,-4.8172,-4.8172,-4.8172,-4.8172,-4.8172,-4.8172,-4.8172,-4.8172,-4.8172,-4.8172,-4.8172,-4.8172,-4.8172,-4.8172,-4.8172,-4.8172,-4.8172,-4.8172,-4.8172,-4.8172,-4.8172,-4.8172,-4.8172,-4.8172,-4.8172,-4.8172,-4.8172,-3.0432,-3.0145,-2.9944,-2.9998,-2.9139,0.0,-2.7608,-2.8567,-2.9672,-3.0135,-3.0733,-3.1729,-3.3577,-3.3524,-3.3275,-3.3476,-3.468,-3.607,-3.7325,-3.7926,-3.824,-3.824,-3.824,-3.8397,-3.8841,-3.8893,-3.9076,-3.9573,-3.9599,-3.9651,-3.9756,-3.9886,-4.0148,-4.0566,-4.0592,-4.0827,-4.1298,-4.1324,-4.1324,-4.1324,-4.1324,-4.1324,-4.1324,-4.1324,-4.1324,-4.1324,-4.1324,-4.1324,-4.1324,-4.1324,-4.1324,-4.1376,-4.2056,-4.2605,-4.3101,-4.3781,-4.433,-4.4668,-4.4668,-4.4668,-4.4668,-4.4668,-4.4668,-4.4668,-4.4668,-4.4668,-4.4853,-4.5454,-4.6391,-4.7304,-4.7466,-4.7832,-4.8172,-4.8172,-4.8172,-4.8172,-4.8172,-4.8172,-4.8172,-4.8172,-4.8172,-4.8172,-4.8172,-4.8172,-4.8172,-4.8172,-4.8172,-4.8172,-4.8172,-4.8172,-4.8172,-4.8172,-4.8172,-4.8172,-4.8172,-4.8172,-4.8172,-4.8172,-4.8172,-4.8172,-4.8172,-4.8172,-4.8172,-4.8172,-4.8172,-4.8172,-4.8172,-4.8172,-4.8172,-4.8172,-4.8172,-4.8172,-3.1422,-3.1254,-3.1188,-3.0825,-2.9596,0.0,0.0,-2.7734,-2.7926,-2.9201,-2.9152,-2.9278,-3.0521,-3.1114,-3.1313,-3.1026,-3.2934,-3.4659,-3.5234,-3.6279,-3.7011,-3.7011,-3.7011,-3.722,-3.7795,-3.7848,-3.8109,-3.871,-3.8998,-3.9155,-3.9155,-3.9442,-3.986,-4.0409,-4.0409,-4.0697,-4.1298,-4.1324,-4.1324,-4.1324,-4.1324,-4.1324,-4.1324,-4.1324,-4.1324,-4.1324,-4.1324,-4.1324,-4.1324,-4.1324,-4.1324,-4.1376,-4.1951,-4.2526,-4.3075,-4.3676,-4.4225,-4.4668,-4.4668,-4.4668,-4.4668,-4.4668,-4.4668,-4.4668,-4.4668,-4.4668,-4.4853,-4.5454,-4.6238,-4.697,-4.7257,-4.7754,-4.8172,-4.8172,-4.8172,-4.8172,-4.8172,-4.8172,-4.8172,-4.8172,-4.8172,-4.8172,-4.8172,-4.8172,-4.8172,-4.8172,-4.8172,-4.8172,-4.8172,-4.8172,-4.8172,-4.8172,-4.8172,-4.8172,-4.8172,-4.8172,-4.8172,-4.8172,-4.8172,-4.8172,-4.8172,-4.8172,-4.8172,-4.8172,-4.8172,-4.8172,-4.8172,-4.8172,-4.8172,-4.8172,-4.8172,-4.8172,-3.2573,-3.2803,-3.3054,-3.1974,-3.057,-2.9443,0.0,0.0,0.0,-2.8873,-2.8325,-2.7646,-2.8124,-2.8908,-2.9353,-2.9013,-3.1078,-3.2751,-3.2751,-3.4214,-3.5417,-3.573,-3.5783,-3.6018,-3.6619,-3.6462,-3.6724,-3.7665,-3.7821,-3.8083,-3.8527,-3.9024,-3.952,-4.0069,-4.02,-4.054,-4.1141,-4.1272,-4.1324,-4.1324,-4.1324,-4.1324,-4.1324,-4.1324,-4.1324,-4.1324,-4.1324,-4.1324,-4.1324,-4.1324,-4.1324,-4.135,-4.1821,-4.2422,-4.3075,-4.3546,-4.4147,-4.4668,-4.4668,-4.4668,-4.4668,-4.4668,-4.4668,-4.4668,-4.4668,-4.4668,-4.4826,-4.5268,-4.5872,-4.6447,-4.7022,-4.7597,-4.8041,-4.8146,-4.8172,-4.8172,-4.8172,-4.8172,-4.8172,-4.8172,-4.8172,-4.8172,-4.8172,-4.8172,-4.8172,-4.8172,-4.8172,-4.8172,-4.8172,-4.8172,-4.8172,-4.8172,-4.8172,-4.8172,-4.8172,-4.8172,-4.8172,-4.8172,-4.8172,-4.8172,-4.8172,-4.8172,-4.8172,-4.8172,-4.8172,-4.8172,-4.8172,-4.8172,-4.8172,-4.8172,-4.8172,-4.8172,-3.2685,-3.3107,-3.3014,-3.0887,-3.1269,-3.1191,-2.7183,0.0,-2.8386,-2.6628,0.0,-2.7516,-2.7568,0.0,0.0,-2.7654,-2.8882,-2.9771,-2.9771,-3.1235,-3.2842,-3.4424,-3.458,-3.4816,-3.5443,-3.458,-3.4842,-3.6959,-3.573,-3.5809,-3.7874,-3.8057,-3.8344,-3.8893,-3.9416,-3.9965,-4.0514,-4.1036,-4.1324,-4.1324,-4.1324,-4.1324,-4.1324,-4.1324,-4.1324,-4.1324,-4.1324,-4.1324,-4.1324,-4.1324,-4.1324,-4.1324,-4.1402,-4.2082,-4.3023,-4.3101,-4.3807,-4.4668,-4.4668,-4.4668,-4.4668,-4.4668,-4.4668,-4.4668,-4.4668,-4.4668,-4.4694,-4.4746,-4.5271,-4.5846,-4.6421,-4.6996,-4.7571,-4.8068,-4.8172,-4.8172,-4.8172,-4.8172,-4.8172,-4.8172,-4.8172,-4.8172,-4.8172,-4.8172,-4.8172,-4.8172,-4.8172,-4.8172,-4.8172,-4.8172,-4.8172,-4.8172,-4.8172,-4.8172,-4.8172,-4.8172,-4.8172,-4.8172,-4.8172,-4.8172,-4.8172,-4.8172,-4.8172,-4.8172,-4.8172,-4.8172,-4.8172,-4.8172,-4.8172,-4.8172,-4.8172,-4.8172,-3.2803,-3.3143,-3.3195,-3.151,-3.1418,-3.1026,-2.8412,-2.7785,-2.7714,-2.7366,0.0,0.0,0.0,0.0,0.0,0.0,-2.7785,-2.8647,-2.8307,-2.917,-3.0346,-3.1719,-3.1876,-3.2241,-3.3155,-3.3169,-3.3744,-3.5365,-3.4528,-3.4789,-3.675,-3.7194,-3.7795,-3.8684,-3.8945,-3.952,-4.0409,-4.0671,-4.0958,-4.1324,-4.1324,-4.1324,-4.1324,-4.1324,-4.1324,-4.1324,-4.1324,-4.1324,-4.1324,-4.1324,-4.1324,-4.1324,-4.1324,-4.1821,-4.2579,-4.2892,-4.3546,-4.4278,-4.4617,-4.4668,-4.4668,-4.4668,-4.4668,-4.4668,-4.4668,-4.4668,-4.4668,-4.4668,-4.5111,-4.5767,-4.6316,-4.6917,-4.7466,-4.8041,-4.8172,-4.8172,-4.8172,-4.8172,-4.8172,-4.8172,-4.8172,-4.8172,-4.8172,-4.8172,-4.8172,-4.8172,-4.8172,-4.8172,-4.8172,-4.8172,-4.8172,-4.8172,-4.8172,-4.8172,-4.8172,-4.8172,-4.8172,-4.8172,-4.8172,-4.8172,-4.8172,-4.8172,-4.8172,-4.8172,-4.8172,-4.8172,-4.8172,-4.8172,-4.8172,-4.8172,-4.8172,-4.8172,-3.3326,-3.3718,-3.3849,-3.2006,-3.1418,-3.079,-2.917,-2.8203,-2.7758,-2.8281,-2.7758,0.0,0.0,0.0,-2.6713,-2.6138,0.0,-2.7523,-2.7098,-2.7419,-2.8177,-2.9483,-3.0085,-3.0727,-3.1719,-3.1784,-3.2437,-3.4058,-3.3221,-3.3587,-3.5757,-3.6436,-3.722,-3.8214,-3.8553,-3.9102,-3.9939,-4.0252,-4.0644,-4.1063,-4.1246,-4.1324,-4.1324,-4.1324,-4.1324,-4.1324,-4.1324,-4.1324,-4.1324,-4.1324,-4.1324,-4.1324,-4.1324,-4.1559,-4.203,-4.2762,-4.3389,-4.3964,-4.4539,-4.4668,-4.4668,-4.4668,-4.4668,-4.4668,-4.4668,-4.4668,-4.4668,-4.4668,-4.5111,-4.5767,-4.6316,-4.6917,-4.7466,-4.8041,-4.8172,-4.8172,-4.8172,-4.8172,-4.8172,-4.8172,-4.8172,-4.8172,-4.8172,-4.8172,-4.8172,-4.8172,-4.8172,-4.8172,-4.8172,-4.8172,-4.8172,-4.8172,-4.8172,-4.8172,-4.8172,-4.8172,-4.8172,-4.8172,-4.8172,-4.8172,-4.8172,-4.8172,-4.8172,-4.8172,-4.8172,-4.8172,-4.8172,-4.8172,-4.8172,-4.8172,-4.8172,-4.8172,0.0,0.0,-3.5208,-3.1862,-3.1418,-3.104,-2.8195,-2.8821,-2.9683,-2.8595,-2.9693,-3.0477,-2.9441,-2.8255,-2.7314,-2.6771,-2.6216,0.0,0.0,-2.5871,-2.653,-2.8263,-2.9928,-3.1182,-3.1745,-3.0346,-3.0555,-3.3404,-3.1522,-3.1693,-3.5129,-3.5835,-3.641,-3.7037,-3.8135,-3.8736,-3.8762,-3.986,-4.0435,-4.0461,-4.1036,-4.1324,-4.1324,-4.1324,-4.1324,-4.1324,-4.1324,-4.1324,-4.1324,-4.1324,-4.1324,-4.1324,-4.1324,-4.1324,-4.1481,-4.2605,-4.3389,-4.3964,-4.4539,-4.4668,-4.4668,-4.4668,-4.4668,-4.4668,-4.4668,-4.4668,-4.4668,-4.4668,-4.5111,-4.5767,-4.6316,-4.6917,-4.7466,-4.8041,-4.8172,-4.8172,-4.8172,-4.8172,-4.8172,-4.8172,-4.8172,-4.8172,-4.8172,-4.8172,-4.8172,-4.8172,-4.8172,-4.8172,-4.8172,-4.8172,-4.8172,-4.8172,-4.8172,-4.8172,-4.8172,-4.8172,-4.8172,-4.8172,-4.8172,-4.8172,-4.8172,-4.8172,-4.8172,-4.8172,-4.8172,-4.8172,-4.8172,-4.8172,-4.8172,-4.8172,-4.8172,-4.8172,0.0,0.0,-3.607,-3.3378,0.0,0.0,0.0,0.0,0.0,0.0,0.0,0.0,0.0,-2.8621,-2.7915,-2.734,-2.7046,-2.6524,0.0,-2.5249,-2.5746,-2.7138,-2.8098,-2.8464,-2.7881,-2.8726,-2.9545,-3.0147,-3.01,-3.1275,-3.4031,-3.5051,-3.6018,-3.6985,-3.7769,-3.8344,-3.871,-3.9494,-4.0069,-4.0435,-4.1036,-4.1324,-4.1324,-4.1324,-4.1324,-4.1324,-4.1324,-4.1324,-4.1324,-4.1324,-4.1324,-4.1324,-4.1324,-4.1324,-4.1402,-4.216,-4.2814,-4.3441,-4.4408,-4.4668,-4.4668,-4.4668,-4.4668,-4.4668,-4.4668,-4.4668,-4.4668,-4.4668,-4.4879,-4.5271,-4.6238,-4.663,-4.6996,-4.7963,-4.8172,-4.8172,-4.8172,-4.8172,-4.8172,-4.8172,-4.8172,-4.8172,-4.8172,-4.8172,-4.8172,-4.8172,-4.8172,-4.8172,-4.8172,-4.8172,-4.8172,-4.8172,-4.8172,-4.8172,-4.8172,-4.8172,-4.8172,-4.8172,-4.8172,-4.8172,-4.8172,-4.8172,-4.8172,-4.8172,-4.8172,-4.8172,-4.8172,-4.8172,-4.8172,-4.8172,-4.8172,-4.8172,-3.6149,-3.6541,0.0,-3.4397,-3.3587,0.0,-3.0398,0.0,-3.0988,0.0,0.0,0.0,0.0,0.0,0.0,0.0,0.0,0.0,0.0,-2.4753,-2.5537,-2.6269,-2.7053,-2.7464,-2.7333,-2.7968,-2.8656,-2.9284,-2.9248,-3.0257,0.0,-3.4241,-3.5417,-3.6358,-3.7377,-3.8083,-3.8423,-3.9207,-3.9782,-4.0148,-4.0932,-4.1324,-4.1324,-4.1324,-4.1324,-4.1324,-4.1324,-4.1324,-4.1324,-4.1324,-4.1324,-4.1324,-4.1324,-4.1324,-4.1376,-4.1951,-4.2657,-4.3467,-4.4408,-4.4668,-4.4668,-4.4668,-4.4668,-4.4668,-4.4668,-4.4668,-4.4668,-4.4668,-4.4824,-4.5271,-4.6238,-4.663,-4.7022,-4.7963,-4.8172,-4.8172,-4.8172,-4.8172,-4.8172,-4.8172,-4.8172,-4.8172,-4.8172,-4.8172,-4.8172,-4.8172,-4.8172,-4.8172,-4.8172,-4.8172,-4.8172,-4.8172,-4.8172,-4.8172,-4.8172,-4.8172,-4.8172,-4.8172,-4.8172,-4.8172,-4.8172,-4.8172,-4.8172,-4.8172,-4.8172,-4.8172,-4.8172,-4.8172,-4.8172,-4.8172,-4.8172,-4.8172]},{"header":{"parameterUnit":"m.s-1","parameterCategory":1,"la1":30.6,"la2":29.2853,"lo1":-89.7004,"lo2":-87.6739,"dy":0.0162,"dx":0.0183,"nx":112,"ny":82,"refTime":"2025-04-17T12:00:00:Z","depth":0,"parameterNumber":3,"parameterNumberName":"V-component_of_WINDS"},"data":[0.0,0.0,0.0,0.0,0.0,0.0,0.0,0.0,0.0,0.0,0.0,0.0,0.0,0.0,0.0,0.0,0.0,0.0,0.0,0.0,0.0,0.0,0.0,0.0,0.0,0.0,0.0,0.0,0.0,0.0,0.0,0.0,0.0,0.0,0.0,0.0,0.0,0.0,0.0,0.0,0.0,0.0,0.0,0.0,0.0,0.0,0.0,0.0,0.0,0.0,0.0,0.0,0.0,0.0,0.0,0.0,0.0,0.0,0.0,0.0,0.0,0.0,0.0,0.0,0.0,0.0,0.0,0.0,0.0,0.0,0.0,0.0,0.0,0.0,0.0,0.0,0.0,0.0,0.0,0.0,0.0,0.0,0.0,0.0,0.0,0.0,0.0,0.0,0.0,0.0,2.8454,3.0843,3.3418,3.4548,3.3444,3.3659,3.2012,2.7679,0.0,0.0,0.0,0.0,0.0,0.0,0.0,0.0,0.0,0.0,0.0,0.0,0.0,0.0,0.0,0.0,0.0,0.0,0.0,0.0,0.0,0.0,0.0,0.0,0.0,0.0,0.0,0.0,0.0,0.0,0.0,0.0,0.0,0.0,0.0,0.0,0.0,0.0,0.0,0.0,0.0,0.0,0.0,0.0,0.0,0.0,0.0,0.0,0.0,0.0,0.0,0.0,0.0,0.0,0.0,0.0,0.0,0.0,0.0,0.0,0.0,0.0,0.0,0.0,0.0,0.0,0.0,0.0,0.0,0.0,0.0,0.0,0.0,0.0,0.0,0.0,0.0,0.0,0.0,0.0,0.0,0.0,0.0,0.0,0.0,0.0,0.0,0.0,0.0,0.0,0.0,0.0,0.0,0.0,0.0,0.0,0.0,0.0,0.0,0.0,0.0,0.0,0.0,0.0,2.8833,3.4239,3.6397,3.6726,3.4993,3.5551,3.3648,2.8163,0.0,0.0,0.0,0.0,0.0,0.0,0.0,0.0,0.0,0.0,0.0,0.0,0.0,0.0,0.0,0.0,0.0,0.0,0.0,0.0,0.0,0.0,0.0,0.0,0.0,0.0,0.0,0.0,0.0,0.0,0.0,0.0,0.0,0.0,0.0,0.0,0.0,0.0,0.0,0.0,0.0,0.0,0.0,0.0,0.0,0.0,0.0,0.0,0.0,0.0,0.0,0.0,0.0,0.0,0.0,0.0,0.0,0.0,0.0,0.0,0.0,0.0,0.0,0.0,0.0,0.0,0.0,0.0,0.0,0.0,0.0,0.0,0.0,0.0,0.0,0.0,0.0,0.0,0.0,0.0,0.0,0.0,0.0,0.0,0.0,0.0,0.0,0.0,0.0,0.0,0.0,0.0,0.0,0.0,0.0,0.0,0.0,0.0,0.0,0.0,0.0,0.0,0.0,2.9815,3.1903,3.6232,3.745,3.7661,3.684,3.6818,3.4846,3.0213,2.8951,0.0,0.0,0.0,0.0,0.0,0.0,0.0,0.0,0.0,0.0,0.0,0.0,0.0,0.0,0.0,0.0,0.0,0.0,0.0,0.0,0.0,0.0,0.0,0.0,0.0,0.0,0.0,0.0,0.0,0.0,0.0,0.0,0.0,0.0,0.0,0.0,0.0,0.0,0.0,0.0,0.0,0.0,0.0,0.0,0.0,0.0,0.0,0.0,0.0,0.0,0.0,0.0,0.0,0.0,0.0,0.0,0.0,0.0,0.0,0.0,0.0,0.0,0.0,0.0,0.0,0.0,0.0,0.0,0.0,0.0,0.0,0.0,0.0,0.0,0.0,0.0,0.0,0.0,0.0,0.0,0.0,0.0,0.0,0.0,0.0,0.0,0.0,0.0,0.0,0.0,0.0,0.0,0.0,0.0,0.0,0.0,0.0,0.0,0.0,0.0,0.0,0.0,3.3477,3.4993,3.7467,3.7944,3.8049,3.788,3.717,3.5248,3.1783,3.0059,0.0,0.0,0.0,0.0,0.0,0.0,0.0,0.0,0.0,0.0,0.0,0.0,0.0,0.0,0.0,0.0,0.0,0.0,0.0,0.0,0.0,0.0,0.0,0.0,0.0,0.0,0.0,0.0,0.0,0.0,0.0,0.0,0.0,0.0,0.0,0.0,0.0,0.0,0.0,0.0,0.0,0.0,0.0,0.0,0.0,0.0,0.0,0.0,0.0,0.0,0.0,0.0,0.0,0.0,0.0,0.0,0.0,0.0,0.0,0.0,0.0,0.0,0.0,0.0,0.0,0.0,0.0,0.0,0.0,0.0,0.0,0.0,0.0,0.0,0.0,0.0,0.0,0.0,0.0,0.0,0.0,0.0,0.0,0.0,0.0,0.0,0.0,0.0,0.0,0.0,0.0,0.0,0.0,0.0,0.0,0.0,0.0,0.0,0.0,0.0,0.0,0.0,3.4054,3.6627,3.7858,3.8238,3.8059,3.734,3.5986,3.416,3.1596,2.895,0.0,0.0,0.0,0.0,0.0,0.0,0.0,0.0,0.0,0.0,0.0,0.0,0.0,0.0,0.0,0.0,0.0,0.0,0.0,0.0,0.0,0.0,0.0,0.0,0.0,0.0,0.0,0.0,0.0,0.0,0.0,0.0,0.0,0.0,0.0,0.0,0.0,0.0,0.0,0.0,0.0,0.0,0.0,0.0,0.0,0.0,0.0,0.0,0.0,0.0,0.0,0.0,0.0,0.0,0.0,0.0,0.0,0.0,0.0,0.0,0.0,0.0,0.0,0.0,0.0,0.0,0.0,0.0,0.0,0.0,0.0,0.0,0.0,0.0,0.0,0.0,0.0,0.0,0.0,0.0,0.0,0.0,0.0,0.0,0.0,0.0,0.0,0.0,0.0,0.0,0.0,0.0,0.0,0.0,0.0,0.0,0.0,0.0,0.0,0.0,0.0,0.0,3.3452,3.5763,3.802,3.8368,3.8261,3.7962,3.7147,3.5279,3.2072,0.0,0.0,0.0,0.0,0.0,0.0,0.0,0.0,0.0,0.0,0.0,0.0,0.0,0.0,0.0,0.0,0.0,0.0,0.0,0.0,0.0,0.0,0.0,0.0,0.0,0.0,0.0,0.0,0.0,0.0,0.0,0.0,0.0,0.0,0.0,0.0,0.0,0.0,0.0,0.0,0.0,0.0,0.0,0.0,0.0,0.0,0.0,0.0,0.0,0.0,0.0,0.0,0.0,0.0,0.0,0.0,0.0,0.0,0.0,0.0,0.0,0.0,0.0,0.0,0.0,0.0,0.0,0.0,0.0,0.0,0.0,0.0,0.0,0.0,0.0,0.0,0.0,0.0,0.0,0.0,0.0,0.0,0.0,0.0,0.0,0.0,0.0,0.0,0.0,0.0,0.0,0.0,0.0,0.0,0.0,0.0,0.0,0.0,0.0,0.0,0.0,0.0,3.1284,3.3501,3.5667,3.802,3.8368,3.8286,3.8012,3.7097,3.5155,3.1897,0.0,0.0,0.0,0.0,0.0,0.0,0.0,0.0,0.0,0.0,0.0,0.0,0.0,0.0,0.0,0.0,0.0,0.0,0.0,0.0,0.0,0.0,0.0,0.0,0.0,0.0,0.0,0.0,0.0,0.0,0.0,0.0,0.0,0.0,0.0,0.0,0.0,0.0,0.0,0.0,0.0,0.0,0.0,0.0,0.0,0.0,0.0,0.0,0.0,0.0,0.0,0.0,0.0,0.0,0.0,0.0,0.0,0.0,0.0,0.0,0.0,0.0,0.0,0.0,0.0,0.0,0.0,0.0,0.0,0.0,0.0,0.0,0.0,0.0,0.0,0.0,0.0,0.0,0.0,0.0,0.0,0.0,0.0,0.0,0.0,0.0,0.0,0.0,0.0,0.0,0.0,0.0,0.0,0.0,0.0,0.0,0.0,0.0,0.0,0.0,0.0,0.0,3.1428,3.4438,3.6819,3.7878,3.8262,3.8087,3.7266,3.5441,3.3239,0.0,0.0,0.0,0.0,0.0,0.0,0.0,0.0,0.0,0.0,0.0,0.0,0.0,0.0,0.0,0.0,0.0,0.0,0.0,0.0,0.0,0.0,0.0,0.0,0.0,0.0,0.0,0.0,0.0,0.0,0.0,0.0,0.0,0.0,0.0,0.0,0.0,0.0,0.0,0.0,0.0,0.0,0.0,0.0,0.0,0.0,0.0,0.0,0.0,0.0,0.0,0.0,0.0,0.0,0.0,0.0,0.0,0.0,0.0,0.0,0.0,0.0,0.0,0.0,0.0,0.0,0.0,0.0,0.0,0.0,0.0,0.0,0.0,0.0,0.0,0.0,0.0,0.0,0.0,0.0,0.0,0.0,0.0,0.0,0.0,0.0,0.0,0.0,0.0,0.0,0.0,0.0,0.0,0.0,0.0,0.0,0.0,0.0,0.0,0.0,0.0,0.0,0.0,3.1428,3.4438,3.6819,3.7878,3.8421,3.8295,3.7266,3.6528,3.4574,3.0819,0.0,0.0,0.0,0.0,0.0,0.0,0.0,0.0,0.0,0.0,0.0,0.0,0.0,0.0,0.0,0.0,0.0,0.0,0.0,0.0,0.0,0.0,0.0,0.0,0.0,0.0,0.0,0.0,0.0,0.0,0.0,0.0,0.0,0.0,0.0,0.0,0.0,0.0,0.0,0.0,0.0,0.0,0.0,0.0,0.0,0.0,0.0,0.0,0.0,0.0,0.0,0.0,0.0,0.0,0.0,0.0,0.0,0.0,0.0,0.0,0.0,0.0,0.0,0.0,0.0,0.0,0.0,0.0,0.0,0.0,0.0,0.0,0.0,0.0,0.0,0.0,0.0,0.0,0.0,0.0,0.0,0.0,0.0,0.0,0.0,0.0,0.0,0.0,0.0,0.0,0.0,0.0,0.0,0.0,0.0,0.0,0.0,0.0,0.0,0.0,0.0,0.0,3.1428,3.4438,3.6819,3.7878,3.8368,3.8341,3.7586,3.7122,3.5226,3.1471,0.0,0.0,0.0,0.0,0.0,0.0,0.0,0.0,0.0,0.0,0.0,0.0,0.0,0.0,0.0,0.0,0.0,0.0,0.0,0.0,0.0,0.0,0.0,0.0,0.0,0.0,0.0,0.0,0.0,0.0,0.0,0.0,0.0,0.0,0.0,0.0,0.0,0.0,0.0,0.0,0.0,0.0,0.0,0.0,0.0,0.0,0.0,0.0,0.0,0.0,0.0,0.0,0.0,0.0,0.0,0.0,0.0,0.0,0.0,0.0,0.0,0.0,0.0,0.0,0.0,0.0,0.0,0.0,0.0,0.0,0.0,0.0,0.0,0.0,0.0,0.0,0.0,0.0,0.0,0.0,0.0,0.0,0.0,0.0,0.0,0.0,0.0,0.0,0.0,0.0,0.0,0.0,0.0,0.0,0.0,0.0,0.0,0.0,0.0,0.0,0.0,0.0,3.1428,3.4438,3.6819,3.793,3.8315,3.8307,3.8079,3.7295,3.5525,3.2474,0.0,0.0,0.0,0.0,0.0,0.0,0.0,0.0,0.0,0.0,0.0,0.0,0.0,0.0,0.0,0.0,0.0,0.0,0.0,0.0,0.0,0.0,0.0,0.0,0.0,0.0,0.0,0.0,0.0,0.0,0.0,0.0,0.0,0.0,0.0,0.0,0.0,0.0,0.0,0.0,0.0,0.0,0.0,0.0,0.0,0.0,0.0,0.0,0.0,0.0,0.0,0.0,0.0,0.0,0.0,0.0,0.0,0.0,0.0,0.0,2.9701,2.8859,0.0,0.0,0.0,0.0,0.0,0.0,0.0,0.0,0.0,0.0,0.0,0.0,0.0,0.0,0.0,0.0,0.0,0.0,0.0,0.0,0.0,0.0,0.0,0.0,0.0,0.0,0.0,0.0,0.0,0.0,0.0,0.0,0.0,0.0,0.0,0.0,0.0,0.0,0.0,0.0,3.1428,3.4438,3.6922,3.8194,3.8579,3.862,3.8361,3.7444,3.5747,3.3068,2.9849,0.0,0.0,0.0,0.0,0.0,0.0,0.0,0.0,0.0,0.0,0.0,0.0,0.0,0.0,0.0,0.0,0.0,0.0,0.0,0.0,0.0,0.0,0.0,0.0,0.0,0.0,0.0,0.0,0.0,0.0,0.0,0.0,0.0,0.0,0.0,0.0,0.0,0.0,0.0,0.0,0.0,0.0,0.0,0.0,0.0,0.0,0.0,0.0,0.0,0.0,0.0,0.0,0.0,0.0,0.0,0.0,0.0,0.0,0.0,3.2851,3.1577,0.0,0.0,0.0,0.0,0.0,0.0,0.0,0.0,0.0,0.0,0.0,0.0,0.0,0.0,0.0,0.0,0.0,0.0,0.0,0.0,0.0,0.0,0.0,0.0,0.0,0.0,0.0,0.0,0.0,0.0,0.0,0.0,0.0,0.0,0.0,0.0,0.0,0.0,0.0,0.0,3.1769,3.4607,3.6922,3.8247,3.8526,3.8613,3.8578,3.7741,3.6424,3.462,3.1622,0.0,0.0,0.0,0.0,0.0,0.0,0.0,0.0,0.0,0.0,0.0,0.0,0.0,0.0,0.0,0.0,0.0,0.0,0.0,0.0,0.0,0.0,0.0,0.0,0.0,0.0,0.0,0.0,0.0,0.0,0.0,0.0,0.0,0.0,0.0,0.0,0.0,0.0,0.0,0.0,0.0,0.0,0.0,0.0,0.0,0.0,0.0,0.0,0.0,0.0,0.0,0.0,0.0,3.6723,3.7469,3.7902,3.7902,3.8383,3.908,3.6531,3.5111,3.4631,3.4078,0.0,0.0,0.0,0.0,0.0,0.0,0.0,0.0,0.0,0.0,0.0,0.0,0.0,0.0,0.0,0.0,0.0,0.0,0.0,0.0,0.0,0.0,3.2274,3.3428,3.3765,3.2971,2.9773,0.0,0.0,0.0,0.0,0.0,0.0,0.0,0.0,0.0,0.0,0.0,3.2322,3.4919,3.7019,3.8247,3.8421,3.8526,3.8788,3.8061,3.7171,3.6227,3.3865,3.1612,0.0,0.0,0.0,0.0,0.0,0.0,0.0,0.0,0.0,0.0,0.0,0.0,0.0,0.0,0.0,0.0,0.0,0.0,0.0,0.0,0.0,0.0,0.0,0.0,0.0,0.0,0.0,0.0,0.0,0.0,0.0,0.0,2.8378,2.8931,0.0,0.0,0.0,0.0,0.0,0.0,0.0,0.0,0.0,0.0,0.0,0.0,0.0,3.5545,3.6459,3.807,3.8912,3.8984,4.0042,4.0595,4.0667,4.0667,4.0739,4.0884,4.0908,0.0,3.7397,3.6411,0.0,0.0,0.0,0.0,0.0,0.0,0.0,0.0,0.0,0.0,0.0,0.0,0.0,0.0,0.0,0.0,0.0,0.0,0.0,0.0,0.0,0.0,3.6194,3.5473,3.5665,3.5737,3.4775,3.2154,2.9749,2.8931,2.7618,2.6441,0.0,0.0,0.0,0.0,0.0,0.0,3.2971,3.5473,3.7429,3.8295,3.8421,3.8526,3.8788,3.8061,3.732,3.6725,3.4815,3.3119,3.1838,2.9202,0.0,0.0,0.0,0.0,0.0,0.0,0.0,0.0,0.0,0.0,0.0,0.0,0.0,0.0,0.0,0.0,0.0,0.0,0.0,0.0,0.0,0.0,0.0,0.0,0.0,0.0,0.0,0.0,0.0,2.8835,2.9917,3.0158,3.0518,3.0278,0.0,0.0,0.0,0.0,0.0,0.0,0.0,0.0,0.0,3.6675,3.7757,3.8671,3.9441,4.1004,4.1798,4.1822,4.2904,4.3409,4.3409,4.3409,4.3409,4.3409,4.3337,4.2471,4.0932,3.9008,3.73,3.5761,0.0,0.0,0.0,0.0,3.3693,3.3693,3.5449,3.5689,3.5064,3.4174,0.0,0.0,0.0,0.0,0.0,0.0,0.0,3.314,3.403,3.5497,3.6771,3.6916,3.7132,3.7228,3.6988,3.5425,3.3573,3.1865,3.0975,2.9845,2.7801,2.7007,0.0,0.0,0.0,3.2054,3.3909,3.593,3.7501,3.8295,3.8262,3.8344,3.8736,3.7908,3.7344,3.7246,3.5694,3.443,3.3671,3.126,2.9327,0.0,0.0,0.0,0.0,0.0,0.0,0.0,0.0,0.0,0.0,0.0,0.0,0.0,0.0,0.0,0.0,0.0,0.0,0.0,0.0,0.0,0.0,0.0,0.0,0.0,0.0,0.0,0.0,3.0422,3.1673,3.1673,3.2755,3.2707,0.0,0.0,0.0,0.0,0.0,0.0,3.6723,3.7348,3.8359,3.997,4.0932,4.1653,4.2182,4.3481,4.413,4.413,4.4885,4.5269,4.5269,4.5269,4.5269,4.5245,4.4861,4.4443,4.3746,4.1389,3.9777,3.8623,3.6916,3.5807,3.5327,3.629,3.629,3.6146,3.8286,3.8647,3.8046,3.7132,3.6459,3.5521,3.2899,0.0,0.0,0.0,0.0,3.4583,3.5881,3.6723,3.7397,3.8046,3.819,3.8166,3.8022,3.7685,3.6747,3.4511,3.3861,3.2875,3.035,2.9484,0.0,2.9845,3.1504,3.3308,3.5016,3.6507,3.7646,3.8214,3.8185,3.8238,3.8684,3.7857,3.7393,3.7593,3.6418,3.5458,3.4906,3.3068,3.1386,3.003,0.0,0.0,0.0,0.0,0.0,0.0,0.0,0.0,0.0,0.0,0.0,0.0,0.0,0.0,0.0,0.0,0.0,0.0,0.0,0.0,0.0,0.0,0.0,0.0,0.0,0.0,0.0,0.0,0.0,3.3838,3.5256,0.0,0.0,0.0,0.0,3.5304,3.6362,3.7902,4.0042,4.0667,4.1653,4.3216,4.378,4.4333,4.4861,4.5525,4.579,4.579,4.5862,4.5886,4.5886,4.5886,4.5886,4.5886,4.5862,4.5549,4.4924,4.3289,4.199,4.0956,4.0355,3.9489,3.8647,3.92,3.908,3.8719,3.9345,3.9224,3.8936,3.985,3.8767,3.6892,3.5737,3.4631,0.0,0.0,3.5809,3.7132,3.7709,3.8647,3.932,3.8888,3.8767,3.8623,3.8094,3.795,3.7613,3.6459,3.5449,3.4486,3.3838,0.0,3.3188,3.3646,3.4655,3.5641,3.6242,3.7276,3.795,3.8027,3.8262,3.8421,3.8421,3.7908,3.7593,3.7593,3.6816,3.6081,3.5483,3.4399,3.2767,3.0608,2.8323,0.0,0.0,0.0,0.0,0.0,0.0,0.0,0.0,0.0,0.0,0.0,0.0,0.0,0.0,0.0,0.0,0.0,0.0,0.0,0.0,0.0,0.0,0.0,0.0,0.0,0.0,0.0,0.0,3.5978,3.7493,0.0,3.6699,3.7204,3.7781,3.8166,3.9152,4.0403,4.1904,4.2735,4.3625,4.4539,4.5405,4.5958,4.615,4.668,4.6944,4.6944,4.6944,4.6944,4.6944,4.6944,4.6752,4.6439,4.6439,4.5934,4.5029,4.4515,4.3649,4.2591,4.1749,4.1172,4.086,4.1052,4.1004,4.0932,4.1461,4.1293,4.0787,4.0499,3.9657,3.8671,3.831,3.7926,3.7661,3.7853,3.831,3.8791,3.8984,3.932,3.9561,3.9369,3.9056,3.8767,3.8551,3.8238,3.7878,3.7493,3.6843,3.6074,3.5159,3.4895,3.4727,3.451,3.5449,3.6314,3.6843,3.7541,3.7974,3.7974,3.8104,3.8065,3.7934,3.7535,3.7147,3.66,3.6116,3.5579,3.4981,3.4299,3.3194,3.1662,2.9829,2.7419,0.0,0.0,0.0,0.0,0.0,0.0,0.0,0.0,0.0,0.0,0.0,0.0,0.0,0.0,0.0,0.0,0.0,0.0,0.0,0.0,0.0,0.0,0.0,0.0,0.0,3.4895,3.6964,3.7661,3.9465,4.0186,3.8912,3.9777,4.0475,4.0667,4.1485,4.2519,4.377,4.4491,4.5149,4.591,4.6607,4.6968,4.6968,4.7329,4.7497,4.7497,4.7497,4.7497,4.7497,4.7497,4.7305,4.6968,4.6968,4.6391,4.5342,4.5342,4.4756,4.3721,4.3048,4.2663,4.2495,4.2495,4.2375,4.2254,4.2506,4.2313,4.1798,4.0739,4.0162,3.985,3.9657,3.9609,3.9609,3.9609,3.9729,3.9874,3.9874,4.0018,4.009,3.9922,3.9465,3.9032,3.8864,3.8383,3.7974,3.7974,3.7685,3.7228,3.6531,3.6411,3.629,3.5954,3.6483,3.706,3.7421,3.7757,3.7974,3.7974,3.808,3.8045,3.777,3.7315,3.6825,3.6148,3.5411,3.4781,3.4449,3.3721,3.2893,3.1964,2.9955,2.7846,2.5586,0.0,0.0,0.0,0.0,0.0,0.0,0.0,0.0,0.0,0.0,0.0,0.0,0.0,0.0,0.0,0.0,0.0,0.0,0.0,0.0,0.0,0.0,0.0,3.4078,3.6816,3.8888,3.8936,4.122,4.2241,4.0667,4.1437,4.2254,4.2867,4.3289,4.4251,4.5838,4.5934,4.6415,4.7449,4.7497,4.7497,4.7497,4.7497,4.7497,4.7497,4.7497,4.7497,4.7497,4.7497,4.7497,4.7497,4.7497,4.692,4.5958,4.5934,4.5309,4.4309,4.4285,4.3949,4.3529,4.3529,4.3216,4.2795,4.2206,4.2014,4.1822,4.0787,4.0427,4.0331,3.9801,3.9657,3.9657,3.9657,4.0018,4.0427,4.0427,4.0787,4.1052,4.0547,4.0018,3.9489,3.896,3.8407,3.7998,3.7974,3.7974,3.7974,3.7974,3.7974,3.7974,3.7974,3.7974,0.0,3.7974,3.7974,3.7974,3.7974,3.8262,3.8307,3.8003,3.7245,3.6671,3.6332,3.4776,3.3872,3.3872,3.2817,3.1964,3.1411,2.8725,2.6791,2.5661,0.0,0.0,0.0,0.0,0.0,0.0,0.0,0.0,0.0,0.0,0.0,0.0,0.0,0.0,0.0,0.0,0.0,0.0,0.0,0.0,0.0,3.4198,3.5881,3.6266,3.8431,4.0379,4.1533,4.2639,4.3289,4.3204,4.3468,4.3914,4.4443,4.4611,4.5044,4.5886,4.6295,4.6631,4.692,4.7305,4.7497,4.7497,4.7497,4.7497,4.7497,4.7497,4.7497,4.7497,4.7497,4.7497,4.7497,4.7497,4.7112,4.6463,4.6078,4.5525,4.4813,4.4429,4.4189,4.4069,4.4069,4.4034,4.3842,4.3289,4.2856,4.2482,4.1749,4.1268,4.0932,4.0787,4.0739,4.0739,4.0739,4.086,4.098,4.098,4.1076,4.1148,4.1004,4.0571,4.0042,3.9513,3.896,3.8479,3.807,3.7974,3.7974,3.7974,3.7974,3.7974,3.7974,3.7974,3.7974,3.7974,3.7974,3.7974,3.7974,3.808,3.7823,3.7158,3.6775,3.6034,3.4931,3.3909,3.3294,3.3294,3.2591,3.1964,3.1411,2.9478,2.8122,0.0,0.0,0.0,0.0,0.0,0.0,0.0,0.0,0.0,0.0,0.0,0.0,0.0,0.0,0.0,0.0,0.0,0.0,0.0,0.0,0.0,0.0,3.6555,3.8407,3.9393,4.0595,4.1798,4.2952,4.3553,4.4082,4.4573,4.4813,4.5173,4.5766,4.579,4.603,4.6559,4.6655,4.6824,4.704,4.7353,4.7497,4.7497,4.7497,4.7497,4.7497,4.7497,4.7497,4.7497,4.7497,4.7497,4.7497,4.7497,4.7209,4.668,4.615,4.5597,4.5029,0.0,0.0,0.0,0.0,4.4285,4.4213,4.3697,4.3313,4.2952,4.2206,4.1774,4.1485,4.1244,4.1172,4.1172,4.1172,4.1172,4.1172,4.1172,4.1172,4.1172,4.1172,4.0619,3.997,3.9681,3.9008,3.8359,3.8046,3.7974,0.0,3.7974,3.7974,3.7974,3.7974,3.7974,3.7974,3.7974,3.7974,3.8027,3.8133,3.8185,3.7952,3.751,3.6899,0.0,0.0,0.0,3.291,3.239,3.2039,0.0,0.0,0.0,0.0,0.0,0.0,0.0,0.0,2.7821,2.7946,0.0,0.0,0.0,0.0,0.0,0.0,0.0,0.0,0.0,0.0,0.0,0.0,0.0,0.0,0.0,0.0,3.8912,4.11,4.2699,4.2964,4.3096,4.3553,4.3973,4.4525,4.5101,4.5645,4.6199,4.6848,4.6896,4.7112,4.7642,4.7185,0.0,0.0,0.0,4.7497,4.7497,4.7497,4.7497,4.7497,4.7497,4.7497,4.7497,4.7497,4.7497,4.7497,4.7497,4.7233,4.6752,4.6175,4.5573,4.4933,4.4477,4.4285,4.4285,4.4285,4.4285,4.4213,4.377,0.0,0.0,4.2375,4.2073,4.187,4.1341,4.1172,4.1172,4.1172,4.1172,4.1172,4.1172,4.1172,4.1172,4.1172,4.0475,3.9753,3.9633,3.8839,3.8118,3.7998,3.7974,3.7974,3.7974,3.7974,3.7974,3.7974,3.7974,3.7974,3.7974,3.7974,3.808,3.8368,3.8421,0.0,3.8412,3.7494,3.6771,3.6483,3.4544,3.2842,3.1712,3.1738,3.1964,3.239,3.2416,3.2692,3.3269,3.3746,3.3847,3.3514,3.0306,2.9905,0.0,0.0,0.0,0.0,0.0,0.0,0.0,0.0,0.0,0.0,0.0,0.0,0.0,0.0,0.0,3.8575,4.0499,4.2062,4.3216,4.3746,4.4021,4.4117,4.4213,4.4669,4.5669,4.5862,4.6487,4.7882,4.7978,4.8219,4.8748,4.8267,4.8026,4.8122,4.7714,4.7497,4.7497,4.7497,4.7497,4.7497,4.7497,0.0,4.7497,4.7497,4.7497,4.7497,4.7497,4.7449,4.7281,4.6319,4.5293,4.4429,4.4333,4.4285,4.4285,4.4285,4.4285,4.4261,4.4165,4.389,4.3409,4.2808,4.2386,4.187,4.1341,4.1172,0.0,4.1172,4.1172,4.1172,4.1172,4.1172,4.1172,4.1172,4.1028,4.0643,3.9801,3.9441,3.9032,3.8142,3.7974,3.7974,3.7974,3.7974,3.7974,3.7974,3.7974,3.7974,3.7974,3.7974,3.808,3.8368,3.8421,3.8387,3.8412,3.7791,3.7344,3.7061,3.5805,3.4575,3.347,3.3847,3.3922,3.3571,3.3571,3.3847,3.4399,3.45,3.5203,3.6332,3.4374,3.3671,0.0,0.0,0.0,0.0,0.0,0.0,0.0,0.0,0.0,0.0,0.0,3.3044,3.4895,0.0,3.8407,4.0787,4.2062,4.3024,4.3818,4.4117,4.4285,4.4285,4.4285,4.4813,4.6199,4.6559,4.7377,4.8964,4.9084,4.9205,4.9469,4.8724,4.8291,4.8291,4.7786,4.7497,4.7497,4.7497,4.7497,4.7497,4.7497,4.7497,4.7497,4.7497,4.7497,4.7497,4.7497,4.7497,4.7425,4.6367,4.5245,4.4285,4.4285,4.4285,4.4285,4.4285,4.4285,4.4285,4.4285,4.4093,4.3842,4.3313,4.2784,4.2338,4.1725,4.1389,4.1172,4.1172,4.1172,4.1172,4.1172,4.1172,4.1172,4.1172,4.098,4.0571,3.9777,3.9393,3.896,3.8142,3.7974,3.7974,3.7974,3.7974,3.7974,3.7974,3.7974,3.7974,3.7974,3.8133,3.8291,3.8579,3.8736,3.8874,3.9014,3.8566,3.7941,3.7236,3.6659,3.6006,3.5152,3.5403,3.5554,3.5554,3.5554,3.5805,3.6358,3.6358,3.6784,3.7588,3.7036,3.6634,0.0,0.0,0.0,0.0,0.0,0.0,0.0,3.0855,3.1456,3.256,3.4006,3.5665,3.7469,3.9128,4.0812,4.2615,4.3337,4.3842,4.4213,4.4285,4.4285,4.4285,4.4285,4.4957,4.6704,4.7257,4.8195,4.9902,5.0022,5.0022,5.0022,4.9012,4.8435,4.8435,4.7834,4.7497,4.7497,4.7497,4.7497,4.7497,4.7497,4.7497,4.7497,4.7497,4.7497,4.7497,4.7497,4.7377,4.7136,4.6271,4.5245,4.4285,4.4285,4.4285,4.4285,4.4285,4.4285,4.4285,4.4285,4.4285,4.4189,4.3697,4.3241,4.2843,4.2217,4.1677,4.1317,4.122,4.1172,4.1172,4.1172,4.1172,4.1172,4.1172,4.086,4.0379,3.9753,3.9272,3.8767,3.8118,3.7974,3.7974,3.7974,3.7974,3.7974,3.7974,3.7974,3.8027,3.808,3.8262,3.8526,3.8841,3.9154,3.9413,3.9697,3.927,3.8592,3.7588,3.7513,3.7262,3.6757,3.6732,3.6885,3.7337,3.7337,3.7613,3.8165,3.8165,3.8241,3.8341,3.8818,3.8718,2.9989,2.9917,3.0086,3.0561,3.1043,3.2054,0.0,3.4944,3.5304,3.6362,3.7853,3.92,3.9898,4.1341,4.2639,4.3313,4.389,4.4213,4.4285,4.4285,4.4285,4.4285,4.4285,4.5101,4.7209,4.7473,4.8363,5.0455,5.06,5.06,5.06,4.9589,4.8988,4.8988,4.8026,4.7497,4.7497,4.7497,4.7497,4.7497,4.7497,4.7497,4.7497,4.7497,4.7497,4.7497,4.7497,4.6968,4.6102,4.5982,4.5245,4.4285,4.4285,4.4285,4.4285,4.4285,4.4285,4.4285,4.4285,4.4285,4.4189,4.3697,4.3481,4.3241,4.2254,4.1942,4.1774,4.1317,4.1172,4.1172,4.1172,4.1172,4.1172,4.1172,4.1124,4.0812,3.9826,3.9561,3.92,3.819,3.7974,3.7974,3.7974,3.7974,3.7974,3.7974,3.7974,3.8104,3.8315,3.8368,3.8631,3.9154,3.9258,3.9413,3.9697,3.9647,3.9346,3.8768,3.8743,3.8417,3.7839,3.7814,3.7839,3.7914,3.7914,3.8191,3.8768,3.8768,3.9019,3.9496,3.9572,3.9295,3.237,3.2178,3.2082,3.2587,3.3332,3.4342,3.5761,3.6555,3.7204,3.7974,3.9417,4.0691,4.122,4.2351,4.3361,4.3914,4.4141,4.4285,4.4285,4.4285,4.4285,4.4285,4.4285,4.5005,4.6872,4.704,4.7786,4.9614,5.0046,5.0215,5.0215,4.9493,4.9084,4.9084,4.805,4.7497,4.7497,4.7497,4.7497,4.7497,4.7497,4.7497,4.7497,4.7497,4.7497,4.7473,4.7185,4.6607,4.591,4.5534,4.4957,4.4285,4.4285,4.4285,4.4285,4.4285,4.4285,4.4285,4.4285,4.4285,4.4237,4.4021,4.377,4.3385,4.2663,4.2265,4.187,4.1341,4.1172,4.1172,4.1172,4.1172,4.1172,4.1172,4.1172,4.098,4.0234,3.9826,3.9393,3.8623,3.819,3.7974,3.7974,3.7974,3.7974,3.7974,3.7974,3.8027,3.8133,3.8473,3.8841,3.949,3.9542,3.9594,3.9697,3.9697,3.9597,3.9371,3.9346,3.9245,3.8994,3.8994,3.8994,3.8994,3.8994,3.9094,3.9346,3.9346,3.9471,3.9697,3.9697,3.9572,3.355,3.3765,3.403,3.4342,3.5497,3.6603,3.6988,3.7878,3.8767,3.9176,4.0403,4.1509,4.1894,4.2808,4.3649,4.3997,4.4189,4.4285,4.4285,4.4285,4.4285,4.4285,4.4285,4.4789,4.615,4.6535,4.7305,4.8748,4.9349,4.9638,4.9638,4.9157,4.8868,4.8868,4.7978,4.7497,4.7497,4.7497,4.7497,4.7497,4.7497,4.7497,4.7497,4.7497,4.7497,4.7473,4.6944,4.6415,4.5886,4.5293,4.4765,4.4285,4.4285,4.4285,4.4285,4.4285,4.4285,4.4285,4.4285,4.4285,4.4285,4.4285,4.3962,4.3409,4.2904,4.2458,4.187,4.1341,4.1172,4.1172,4.1172,4.1172,4.1172,4.1172,4.1172,4.1028,4.0499,3.997,3.9441,3.8912,3.8359,3.7974,3.7974,3.7974,3.7974,3.7974,3.808,3.808,3.808,3.8579,3.9102,3.9542,3.9645,3.9697,3.9697,3.9697,3.9697,3.9697,3.9697,3.9697,3.9697,3.9697,3.9697,3.9697,3.9697,3.9697,3.9697,3.9697,3.9697,3.9697,3.9697,3.9697,3.2827,3.4006,3.5545,3.5569,3.7156,3.8719,3.8743,3.9561,4.0331,4.0331,4.1196,4.1966,4.1966,4.2808,4.3529,4.3529,4.3925,4.4285,4.4285,4.4285,4.4285,4.4285,4.4285,4.4501,4.5053,4.6102,4.7161,4.8243,4.8796,4.9109,4.9109,4.8603,4.8315,4.8315,4.7786,4.7497,4.7497,4.7497,4.7497,4.7497,4.7497,4.7497,4.7497,4.7497,4.7497,4.7473,4.6944,4.6415,4.5886,4.5293,4.4765,4.4285,4.4285,4.4285,4.4285,4.4285,4.4285,4.4285,4.4285,4.4285,4.4285,4.4285,4.3962,4.3409,4.2904,4.2458,4.187,4.1341,4.1172,4.1172,4.1172,4.1172,4.1172,4.1172,4.1172,4.1028,4.0499,3.997,3.9441,3.8912,3.8359,3.7974,3.7974,3.7974,3.7974,3.7974,3.8185,3.8421,3.8421,3.8893,3.9258,3.931,3.9542,3.9697,3.9697,3.9697,3.9697,3.9697,3.9697,3.9697,3.9697,3.9697,3.9697,3.9697,3.9697,3.9697,3.9697,3.9697,3.9697,3.9697,3.9697,3.9697,3.4799,3.5617,3.6386,3.7469,3.8551,3.9441,3.9777,4.0403,4.0908,4.0908,4.1196,4.1461,4.1461,4.2014,4.2615,4.2952,4.3457,4.3853,4.4237,4.4285,4.4285,4.4285,4.4285,4.4357,4.4525,4.5197,4.6102,4.7161,4.7738,4.8195,4.8531,4.8387,4.8291,4.8291,4.7786,4.7497,4.7497,4.7497,4.7497,4.7497,4.7497,4.7497,4.7497,4.7497,4.7305,4.6944,4.6415,4.5886,4.5357,4.4765,4.4453,4.4285,4.4285,4.4285,4.4285,4.4285,4.4285,4.4285,4.4285,4.4045,4.3794,4.3794,4.3433,4.2904,4.2458,4.211,4.187,4.1341,4.1172,4.1172,4.1172,4.1172,4.1172,4.1172,4.1172,4.1028,4.0499,3.997,3.9441,3.8912,3.8359,3.7974,3.7974,3.7974,3.808,3.8262,3.8344,3.8526,3.8945,3.9154,3.9362,3.9542,3.9645,3.9697,3.9697,3.9697,3.9697,3.9697,3.9697,3.9697,3.9697,3.9697,3.9697,3.9697,3.9697,3.9697,3.9697,3.9697,3.9697,3.9697,3.9697,3.9697,3.6218,3.6964,3.7661,3.9272,3.9922,4.0306,4.0836,4.1076,4.1124,4.0932,4.0739,4.0571,4.0379,4.0619,4.1148,4.2062,4.2615,4.3289,4.4165,4.4285,4.4285,4.4285,4.4453,4.4501,4.4309,4.4765,4.5501,4.6367,4.7088,4.7642,4.8002,4.8002,4.8002,4.8002,4.7666,4.7497,4.7497,4.7497,4.7497,4.7497,4.7497,4.7497,4.7497,4.7305,4.704,4.668,4.5958,4.5453,4.5029,4.4501,4.4285,4.4285,4.4285,4.4285,4.4285,4.4285,4.4285,4.4261,4.4069,4.3818,4.3481,4.3289,4.2904,4.2482,4.2062,4.1904,4.1629,4.1268,4.1172,4.1172,4.1172,4.1172,4.1172,4.1172,4.1172,4.1028,4.0499,3.997,3.9441,3.902,3.8519,3.8185,3.8262,3.8315,3.8421,3.8684,3.8736,3.8841,3.9102,3.9206,3.9362,3.9542,3.9645,3.9697,3.9697,3.9697,3.9697,3.9697,3.9697,3.9697,3.9697,3.9697,3.9697,3.9697,3.9697,3.9697,3.9697,3.9697,3.9697,3.9697,3.9697,3.9697,3.7036,3.8142,3.932,4.0884,4.1244,4.1365,4.1846,4.1533,4.0956,4.0451,3.9898,3.932,3.8767,3.8743,3.932,4.0812,4.1605,4.2567,4.4093,4.4333,4.4333,4.4357,4.4813,4.4909,4.4405,4.4837,4.5366,4.5934,4.6872,4.7449,4.7497,4.7497,4.7497,4.7497,4.7497,4.7497,4.7473,4.7425,4.7425,4.7473,4.7425,4.7425,4.7449,4.692,4.6655,4.6583,4.5573,4.5053,4.5005,4.4501,4.4285,4.4285,4.4285,4.4285,4.4285,4.4285,4.4285,4.4213,4.3673,4.3481,4.3385,4.288,4.2434,4.1942,4.1942,4.1581,4.1172,4.123,4.1172,4.1172,4.123,4.123,4.123,4.123,4.123,4.1085,4.0531,4.0026,3.9551,3.9218,3.8761,3.8526,3.8736,3.8788,3.8945,3.9258,3.931,3.9206,3.8893,3.9102,3.931,3.931,3.9542,3.9697,3.9697,3.9697,3.9697,3.9697,3.9697,3.9697,3.9697,3.9697,3.9697,3.9697,3.9697,3.9697,3.9697,3.9697,3.9697,3.9697,3.9697,3.9697,3.8864,4.0066,4.086,4.2121,4.2121,4.1798,4.1942,4.0956,3.997,3.9826,3.8743,3.7517,3.6603,3.7733,3.896,3.9369,4.1172,4.312,4.4708,4.4885,4.5005,4.5414,4.5645,4.5669,4.5549,4.6006,4.6367,4.6511,4.6391,4.668,4.7473,4.7497,4.7497,4.7497,4.7497,4.7305,4.692,4.6535,4.6535,4.692,4.6511,4.6535,4.6896,4.6367,4.591,4.5525,4.5197,4.4861,4.4477,4.4333,4.4285,4.4285,4.4285,4.4285,4.4285,4.4285,4.4285,4.4141,4.3265,4.3012,4.2856,4.241,4.1822,4.1389,4.1389,4.1293,4.123,4.1435,4.1344,4.1287,4.1769,4.1688,4.1549,4.1802,4.1883,4.1614,4.0685,4.0367,3.9976,3.9075,3.8782,3.8736,3.8788,3.8998,3.9206,3.9258,3.9465,3.9594,3.949,3.9542,3.9594,3.9594,3.9645,3.9697,3.9697,3.9697,3.9697,3.9697,3.9697,3.9697,3.9697,3.9697,3.9697,3.9697,3.9697,3.9697,3.9697,3.9697,3.9697,3.9697,3.9697,3.9697,4.0186,4.1293,4.2062,4.288,4.2519,4.1976,4.1677,4.0571,3.9272,3.8094,3.694,3.5833,3.4775,3.5761,3.718,3.8599,4.0451,4.2519,4.4804,4.5077,4.5269,4.5862,4.6126,4.6175,4.5958,4.6415,4.6704,4.6704,4.6655,4.6872,4.7473,4.7497,4.7497,4.7497,4.7281,4.6896,4.6367,4.6078,4.6078,4.6367,4.6054,4.6078,4.6343,4.5814,4.5342,4.5053,4.4837,4.4573,4.4285,4.4285,4.4285,4.4285,4.4285,4.4285,4.4285,4.4285,4.4409,4.4387,4.3301,4.3057,4.3055,4.2103,4.1701,4.1573,4.1573,4.1573,4.1631,4.1802,4.1688,4.1631,4.1997,4.1972,4.1859,4.2054,4.211,4.1864,4.1029,4.0857,4.0567,3.9565,3.9473,3.9504,3.9256,3.9362,3.949,3.949,3.9594,3.9697,3.9697,3.9697,3.9697,3.9697,3.9697,3.9697,3.9697,3.9697,3.9697,3.9697,3.9697,3.9697,3.9697,3.9697,3.9697,3.9697,3.9697,3.9697,3.9697,3.9697,3.9697,3.9697,3.9697,3.9697,4.122,4.211,4.2952,4.3409,4.2735,4.1822,4.122,4.009,3.8479,3.6026,3.504,3.4294,3.326,3.3717,3.5183,3.8214,3.9705,4.1581,4.4645,4.5125,4.5429,4.5958,4.6487,4.6631,4.6175,4.6535,4.6824,4.6824,4.7233,4.7497,4.7497,4.7497,4.7473,4.7401,4.6896,4.6367,4.5814,4.5742,4.5742,4.5814,4.5742,4.5742,4.579,4.5197,4.4957,4.4933,4.4477,4.4285,4.4285,4.4285,4.4285,4.4285,4.4285,4.4285,4.4285,4.4285,4.447,4.4572,4.3578,4.3427,4.3477,4.2143,4.1859,4.211,4.211,4.211,4.211,4.2167,4.211,4.211,4.2224,4.2224,4.2167,4.2224,4.2224,4.2076,4.1533,4.1361,4.1071,4.0376,4.0392,4.0375,3.9898,3.9747,3.9697,3.9697,3.9697,3.9697,3.9697,3.9697,3.9697,3.9697,3.9697,3.9697,3.9697,3.9697,3.9697,3.9697,3.9697,3.9697,3.9697,3.9697,3.9697,3.9697,3.9697,3.9697,3.9697,3.9697,3.9697,3.9697,3.9697,3.9697,4.2169,4.2928,4.3409,4.3481,4.2735,4.1725,4.0739,3.8671,3.6579,3.5232,3.4222,3.3236,3.2199,3.3813,3.5954,3.7829,3.9777,4.2014,4.4756,4.5438,4.5982,4.6511,4.704,4.7329,4.7233,4.7305,4.7377,4.7377,4.7449,4.7497,4.7497,4.7497,4.7305,4.6872,4.6343,4.5814,4.5221,4.4765,4.4789,4.5197,4.4765,4.4789,4.5197,4.4669,4.4429,4.4429,4.4333,4.4285,4.4285,4.4285,4.4285,4.4285,4.4285,4.4285,4.4285,4.4285,4.4347,4.4312,4.3662,4.354,4.3536,4.2397,4.2054,4.211,4.211,4.211,4.2167,4.2369,4.2256,4.2224,4.2706,4.265,4.2538,4.2762,4.2818,4.2724,4.2173,4.1643,4.1268,4.1121,4.0774,4.0475,4.04,3.9998,3.9697,3.9697,3.9697,3.9697,3.9697,3.9697,3.9697,3.9697,3.9697,3.9697,3.9697,3.9697,3.9697,3.9697,3.9697,3.9697,3.9697,3.9697,3.9697,3.9697,3.9697,3.9697,3.9697,3.9697,3.9697,3.9697,3.9697,3.9697,4.253,4.3337,4.3866,4.3577,4.2519,4.1148,3.9513,3.73,3.504,3.3164,3.237,3.1793,3.0999,3.2803,3.4919,3.6507,3.831,4.0547,4.3481,4.4347,4.5188,4.6559,4.7185,4.7497,4.7497,4.7497,4.7497,4.7497,4.7497,4.7497,4.7497,4.7233,4.6848,4.6319,4.579,4.5197,4.4669,4.4405,4.4405,4.4669,4.4405,4.4429,4.4645,4.4405,4.4285,4.4285,4.4285,4.4285,4.4285,4.4285,4.4285,4.4347,4.447,4.4532,4.4594,4.4779,4.4902,4.5013,4.4269,4.4288,4.4426,4.3136,4.2648,4.2594,4.2594,4.2594,4.2594,4.2706,4.265,4.265,4.293,4.2874,4.2818,4.2986,4.2986,4.2911,4.269,4.2384,4.2108,4.1831,4.1555,4.1279,4.1003,4.0475,4.0124,4.0124,3.9873,3.9697,3.9697,3.9697,3.9697,3.9697,3.9697,3.9697,3.9697,3.9697,3.9697,3.9697,3.9697,3.9697,3.9697,3.9697,3.9697,3.9697,3.9697,3.9697,3.9697,3.9697,3.9697,3.9697,3.9697,3.9697,4.2675,4.3529,4.4117,4.3529,4.2182,4.0451,3.831,3.6148,3.386,3.1428,3.0826,3.07,3.0344,3.1721,3.3573,3.5473,3.6916,3.8888,4.2049,4.3144,4.4347,4.615,4.704,4.7497,4.7497,4.7497,4.7497,4.7497,4.7497,4.7497,4.7497,4.6992,4.6463,4.5934,4.5342,4.4813,4.4285,4.4285,4.4285,4.4285,4.4285,4.4285,4.4285,4.4285,4.4285,4.4285,4.4285,4.4285,4.4285,4.4285,4.4285,4.4347,4.4656,4.4779,4.484,4.5208,4.5453,4.5561,4.4899,4.4903,4.5053,4.3863,4.3387,4.3137,4.3011,4.2986,4.2986,4.2986,4.2986,4.2986,4.2986,4.2986,4.2986,4.2986,4.2986,4.2986,4.2986,4.2986,4.2916,4.2464,4.2288,4.2062,4.158,4.1053,4.0701,4.0701,4.0325,4.0049,4.0049,4.0049,4.0049,4.0049,3.9848,3.9697,3.9697,3.9697,3.9697,3.9697,3.9697,3.9697,3.9697,3.9697,3.9697,3.9697,3.9697,3.9697,3.9697,3.9823,3.9873,3.9873,3.9998,4.0049,4.2675,4.3529,4.4045,4.3072,4.1629,3.9898,3.7757,3.5404,3.3198,3.1259,3.0664,3.0513,3.0778,3.1404,3.2849,3.5833,3.6867,3.8214,4.0932,4.3024,4.4453,4.5149,4.6583,4.7497,4.7497,4.7497,4.7497,4.7497,4.7497,4.7497,4.7497,4.6992,4.6463,4.5934,4.5342,4.4813,4.4285,4.4285,4.4285,4.4285,4.4285,4.4285,4.4285,4.4285,4.4285,4.4285,4.4285,4.4285,4.4285,4.4285,4.4285,4.4347,4.4656,4.4779,4.484,4.5208,4.5331,4.5331,4.5281,4.4858,4.4311,4.4153,4.3961,4.3639,4.3137,4.2986,4.2986,4.2986,4.2986,4.2986,4.2986,4.2986,4.2986,4.2986,4.2986,4.2986,4.2986,4.2986,4.2961,4.2911,4.2564,4.2187,4.2137,4.163,4.12,4.12,4.1175,4.1125,4.1125,4.1125,4.1125,4.1125,4.03,3.9697,3.9697,3.9697,3.9697,3.9697,3.9697,3.9697,3.9697,3.9697,3.9697,3.9697,3.9697,3.9697,3.9697,4.0199,4.045,4.045,4.0953,4.1125,4.1581,4.2591,4.3216,4.2471,4.086,3.896,3.7132,3.4535,3.2071,3.0706,3.0314,3.0242,3.0392,3.136,3.2683,3.427,3.4968,3.6122,3.8455,4.0066,4.1798,4.3914,4.5285,4.6463,4.7401,4.7497,4.7497,4.7497,4.7497,4.7353,4.704,4.6535,4.615,4.5934,4.5053,4.4501,4.4285,4.4285,4.4285,4.4285,4.4285,4.4285,4.4285,4.4285,4.4285,4.4285,4.4285,4.4285,4.4347,4.4532,4.4594,4.4656,4.5208,4.5392,4.5453,4.5757,4.5878,4.5878,4.5696,4.532,4.4919,4.436,4.4036,4.3689,4.3137,4.2986,4.2986,4.2986,4.2986,4.2986,4.2986,4.2986,4.2986,4.2986,4.2986,4.2986,4.2986,4.2986,4.2986,4.2986,4.2866,4.2715,4.2715,4.2183,4.1831,4.1831,4.1555,4.1275,4.1275,4.1275,4.1275,4.1275,4.0953,4.0676,4.0676,4.0676,4.0676,4.0676,4.0375,4.0199,4.0199,3.9873,3.9848,4.0174,4.0199,4.035,4.0676,4.0902,4.0949,4.0974,4.1175,4.1275,4.0619,4.1725,4.2458,4.187,4.0258,3.8359,3.6681,3.4026,3.1627,3.0731,3.0337,3.0191,3.038,3.1371,3.2388,3.314,3.3717,3.4727,3.6892,3.8262,3.9994,4.2519,4.377,4.5044,4.6655,4.7233,4.7425,4.7281,4.7257,4.704,4.6511,4.5982,4.5694,4.5694,4.4765,4.4285,4.4285,4.4285,4.4285,4.4285,4.4285,4.4285,4.4285,4.4285,4.4347,4.4409,4.4347,4.4409,4.4594,4.4717,4.484,4.5025,4.5574,4.5817,4.5817,4.618,4.6301,4.6215,4.5824,4.552,4.5087,4.4361,4.3844,4.3489,4.3087,4.2986,4.2986,4.2986,4.2986,4.2986,4.2986,4.2986,4.2986,4.2986,4.2986,4.2986,4.2986,4.2986,4.2986,4.2986,4.2986,4.2986,4.2986,4.2715,4.2464,4.2464,4.2057,4.1831,4.1831,4.1831,4.1831,4.1831,4.1831,4.1706,4.13,4.1275,4.1275,4.1275,4.0924,4.0752,4.0752,4.0375,4.035,4.0752,4.0752,4.0899,4.1275,4.1505,4.158,4.158,4.1756,4.1831,3.997,4.1172,4.1846,4.1317,3.9994,3.8316,3.6424,3.4086,3.216,3.1687,3.0869,3.049,3.1065,3.1199,3.1646,3.3066,3.3717,3.4727,3.6892,3.8575,3.9994,4.1076,4.2134,4.3409,4.502,4.6583,4.7281,4.6752,4.6728,4.6487,4.5958,4.5429,4.5077,4.5077,4.4573,4.4285,4.4285,4.4285,4.4285,4.4285,4.4285,4.4285,4.4285,4.4285,4.447,4.4779,4.447,4.4656,4.527,4.4963,4.5025,4.5331,4.5696,4.5817,4.5817,4.618,4.6301,4.6225,4.5673,4.5121,4.4543,4.3991,4.3438,4.2986,4.2986,4.2986,4.2986,4.2986,4.2986,4.2986,4.2986,4.2986,4.2986,4.2986,4.2986,4.2986,4.2986,4.2986,4.2986,4.2986,4.2986,4.2986,4.2986,4.2961,4.2961,4.2961,4.2961,4.2961,4.2961,4.2961,4.2961,4.2961,4.2961,4.2534,4.1376,4.1275,4.1275,4.1275,4.1275,4.1275,4.1275,4.1275,4.1275,4.1275,4.1275,4.1275,4.1275,4.1882,4.2213,4.2213,4.2766,4.2961,3.6943,3.8031,3.8868,3.8335,3.7536,3.6569,3.538,3.3549,3.1913,3.1178,3.067,3.0318,3.0146,3.0876,3.1906,3.3138,3.3717,3.4607,3.6411,3.7944,3.9528,4.1322,4.4269,4.6154,4.6175,4.6851,4.7077,4.6545,4.6496,4.6254,4.5721,4.5527,4.5329,4.514,4.4573,4.4285,4.4285,4.4285,4.4285,4.4285,4.4285,4.4285,4.4285,4.4532,4.4717,4.484,4.4902,4.5086,4.5331,4.5453,4.5574,4.5696,4.5999,4.612,4.612,4.624,4.6301,4.6225,4.5673,4.5095,4.4543,4.3991,4.3438,4.2986,4.2986,4.2986,4.2986,4.2986,4.2986,4.2986,4.2986,4.2986,4.2986,4.2986,4.2986,4.2986,4.2986,4.2986,4.2986,4.2986,4.2986,4.2986,4.2986,4.2986,4.2986,4.2986,4.2986,4.2986,4.2986,4.2986,4.2986,4.2986,4.2986,4.2836,4.2484,4.2459,4.2459,4.2459,4.2108,4.1907,4.1907,4.153,4.1505,4.1882,4.1907,4.2082,4.2459,4.2635,4.2766,4.2766,4.2886,4.2986,3.4944,3.6109,3.6911,3.6697,3.616,3.543,3.4465,3.2828,3.1345,3.082,3.026,2.9828,2.9812,3.0545,3.1515,3.2738,3.3346,3.4315,3.6157,3.767,3.9438,4.1614,4.4595,4.626,4.5755,4.6503,4.6841,4.6178,4.6192,4.6012,4.55,4.5451,4.5389,4.514,4.4701,4.447,4.447,4.447,4.447,4.447,4.4347,4.4285,4.4285,4.4656,4.4902,4.5025,4.5208,4.5453,0.0,4.5757,4.5754,4.5725,4.6165,4.605,4.5698,4.5924,4.5849,4.5598,4.5045,4.4618,4.4217,4.3664,4.3263,4.2986,4.2986,4.2986,4.2986,4.2986,4.2986,4.2986,4.2986,4.2986,4.2986,4.2986,4.2986,4.2986,4.2986,4.2986,4.2986,4.2986,4.2986,4.3129,4.3572,4.3628,4.3628,4.3628,4.3628,4.3517,4.3042,4.2986,4.2986,4.2986,4.3406,4.3628,4.3628,4.3628,4.3462,4.3042,4.3077,4.2954,4.2514,4.2133,4.2108,4.2514,4.2514,4.269,4.2986,4.2986,4.2986,4.2986,4.2986,4.2986,0.0,3.5037,3.5746,3.5843,3.5404,3.4599,3.3484,3.1882,0.0,3.0538,2.969,2.9213,3.0089,3.0273,3.0762,3.2203,3.299,3.4096,3.6186,3.8032,3.9981,4.2125,4.3752,4.4533,4.4171,4.5808,4.6532,4.5619,4.5882,4.5847,4.5355,4.5306,4.5281,4.522,4.4927,4.4767,4.484,4.484,4.4779,4.4779,4.447,4.4285,4.4347,4.4656,4.5025,4.5331,4.5392,4.5696,4.624,4.5889,4.565,4.5547,4.5999,4.5547,4.4694,4.5221,4.5121,4.4593,4.4016,4.3815,4.3765,4.3162,4.2986,4.2986,4.2986,4.2986,4.2986,4.2986,4.2986,4.2986,4.2986,4.2986,4.2986,4.2986,4.2986,4.2986,4.2986,4.2986,4.3042,4.3098,4.3042,4.3406,4.4615,4.4724,4.4724,4.4778,4.4724,4.4315,4.324,4.3017,4.3042,4.3129,4.4097,4.4724,4.4832,4.4724,4.4261,4.3184,4.4042,4.4097,4.3042,4.2986,4.2986,4.2986,4.2986,4.2986,4.2986,4.2986,4.2986,4.2986,4.2986,4.2986,3.134,0.0,3.2673,3.1851,3.1808,3.1776,0.0,3.0154,2.9777,2.9927,2.9624,2.9592,3.0686,3.1067,3.1712,3.3359,3.4416,3.5522,3.685,3.9742,4.2382,4.406,4.5555,4.6179,4.5316,4.6093,4.6279,4.5429,4.5711,4.5845,4.5696,4.53,4.4957,4.4716,4.4442,4.4615,4.5208,4.4902,4.4779,4.4779,4.447,4.4409,4.4717,4.5025,4.5392,4.5696,4.5939,4.612,4.6276,4.5789,4.5538,4.5447,4.5146,4.4869,4.4644,4.4769,4.502,4.5146,4.4141,4.4091,4.4267,4.3288,4.2986,4.2986,4.2986,4.2986,4.2986,4.2986,4.2986,4.2986,4.2986,4.2986,4.2986,4.2986,4.2986,4.2986,4.2986,4.2986,4.324,4.4152,4.3628,4.3602,4.5608,4.5235,4.4993,4.582,4.5235,4.4615,4.4344,4.3572,4.3351,4.4206,4.4507,4.5047,4.5873,4.5208,4.4587,4.4315,4.3713,4.3295,4.3042,4.2986,4.2986,4.2986,4.2986,4.2986,4.2986,4.2986,4.2986,4.2986,4.2986,4.2986,2.9866,3.1048,3.2127,3.1656,3.1647,3.1647,3.1044,3.0134,2.9394,2.9376,2.9088,2.9161,3.0298,3.0826,3.1737,3.3648,3.4863,3.6402,3.8759,4.1205,4.3387,4.4976,4.6105,4.6448,4.5773,4.6142,4.6201,4.5599,4.5817,4.5899,4.571,4.541,4.5017,4.4566,4.4444,4.451,4.4773,4.4593,4.4533,4.4533,4.4171,4.4111,4.4292,4.4653,4.4893,4.5072,4.537,4.5547,4.5522,4.5221,4.4945,4.4719,4.4644,4.4317,4.389,4.4141,4.4292,4.4242,4.3639,4.3614,4.3765,4.3162,4.2986,4.2986,4.2986,4.2986,4.2986,4.2986,4.2986,4.2986,4.2986,4.2986,4.2986,4.2986,4.2986,4.2986,4.2986,4.3406,4.3987,4.4561,4.4615,4.5074,4.6816,4.6608,4.6399,4.7023,4.6608,4.6032,4.5502,4.4453,4.418,4.5289,4.5449,4.5873,4.6971,4.6556,4.5767,4.4778,4.4561,4.4071,4.3042,4.2986,4.2986,4.2986,4.2986,4.2986,4.2986,4.2986,4.2986,4.2986,4.2986,4.2986,2.9214,3.0848,3.2585,3.2474,3.2439,3.2237,3.1721,3.0348,2.9134,2.8925,2.8624,2.875,3.0055,3.0733,3.1813,3.3922,3.5278,3.7313,4.1025,4.2459,4.3689,4.5296,4.5974,4.618,4.5817,4.612,4.618,4.5817,4.6045,4.5974,4.5522,4.5321,4.4995,4.4518,4.4418,4.4277,4.3987,4.4161,4.4202,4.4202,4.3826,4.3708,4.3767,4.406,4.4236,4.4236,4.4527,4.4618,4.4618,4.4543,4.4217,4.384,4.4217,4.379,4.3037,4.3514,4.3438,4.3112,4.3112,4.3062,4.2986,4.2986,4.2986,4.2986,4.2986,4.2986,4.2986,4.2986,4.2986,4.2986,4.2986,4.2986,4.2986,4.2986,4.2986,4.3042,4.324,4.4042,4.4778,4.5154,4.582,4.6684,4.8021,4.8122,4.8072,4.8223,4.8122,4.7615,4.6424,4.5502,4.5289,4.6215,4.6424,4.7023,4.8173,4.8274,4.7383,4.5315,4.5714,4.5235,4.3351,4.3073,4.3129,4.3517,4.3351,4.3351,4.3492,4.3492,4.3492,4.3517,4.3351,4.324,3.0005,3.1295,3.1847,2.9991,3.0242,3.0568,2.9076,2.8512,2.8399,2.8813,2.9252,3.0156,3.219,3.3018,3.3972,3.5751,3.7312,3.9371,4.2308,4.3288,4.4116,4.5347,4.5974,4.618,4.5817,4.612,4.618,4.5817,4.5695,4.5573,4.5497,4.4568,4.4016,4.394,4.3463,4.3237,4.3181,4.3846,4.4202,4.4202,4.3826,4.3826,4.4119,4.4202,4.4294,4.4502,4.456,4.4618,4.4593,4.4116,4.3865,4.3765,4.3388,4.3112,4.2986,4.3062,4.3338,4.3689,4.3689,4.3363,4.2986,4.2986,4.2986,4.2986,4.2986,4.2986,4.2986,4.2986,4.2986,4.2986,4.2986,4.2986,4.2986,4.2986,4.2986,4.324,4.4261,4.4587,4.5262,4.7126,4.6867,4.6943,4.91,4.8653,4.8324,4.9297,4.8653,4.7615,4.6424,4.6162,4.611,4.6267,4.7177,4.8223,4.9375,4.9424,4.8902,4.7564,4.5873,4.4778,4.4453,4.3517,4.3878,4.5767,4.4886,4.4886,4.5794,4.5794,4.5794,4.5741,4.4886,4.4424,2.9126,3.0281,3.116,3.0432,3.1562,3.2599,3.1863,3.121,3.0859,3.111,3.1386,3.1964,3.3269,3.4223,3.5529,3.7789,3.932,4.0852,4.271,4.3463,4.4217,4.5347,4.5974,4.624,4.6059,4.618,4.6115,4.5635,4.5563,4.5221,4.4618,4.4091,4.3664,4.3363,4.3112,4.2986,4.2986,4.3375,4.3569,4.3569,4.3397,4.3397,4.3569,4.3569,4.3626,4.374,0.0,4.374,4.3714,4.3463,4.3363,4.3338,4.3087,4.2986,4.2986,4.2986,4.3137,4.3363,4.3363,4.3187,4.2986,4.2986,4.2986,4.2986,4.2986,4.2986,4.2986,4.2986,4.2986,4.2986,4.2986,4.2986,4.3129,4.3768,4.3932,4.4206,4.5342,4.6032,4.6764,4.7819,4.8072,4.8474,4.9522,4.9248,4.91,4.962,4.9248,4.8753,4.8195,4.7587,4.7434,4.8044,4.8072,4.8424,4.962,4.9717,4.8951,4.7177,4.5555,4.467,4.467,4.4206,4.467,4.6267,4.582,4.582,4.6267,4.6267,4.6267,4.6267,4.582,4.5235,2.8699,2.9528,3.0608,3.1386,3.2767,3.4048,3.4449,3.3671,3.2993,3.337,3.3571,3.3822,3.4374,3.5479,3.7161,3.9672,4.0724,4.1702,4.2986,4.3639,4.4367,4.5372,4.5974,4.625,4.6125,4.6125,4.5874,4.5321,4.5171,4.4719,4.384,4.3689,4.3413,4.2986,4.2986,4.2986,4.2986,4.2986,4.2986,4.2986,4.2986,4.2986,4.2986,4.2986,4.2986,4.2986,4.2986,4.2986,4.2986,4.2986,4.2986,4.2986,4.2986,4.2986,4.2986,4.2986,4.2986,4.2986,4.2986,4.2986,4.2986,4.2986,4.2986,4.2986,4.2986,4.2986,4.2986,4.2986,4.2986,4.2986,4.2986,4.2986,4.3295,4.4424,4.467,4.5047,4.6399,4.7383,4.8072,4.8324,4.91,4.9717,4.9717,4.9717,4.9717,4.9717,4.9717,4.962,4.9375,4.8753,4.8653,4.9248,4.8753,4.8753,4.962,4.9717,4.8852,4.6816,4.5661,4.5182,4.5449,4.5208,4.5714,4.7047,4.684,4.684,4.7126,4.7126,4.7126,4.7098,4.6788,4.6242,3.003,3.0156,3.0231,3.1763,3.1888,3.2039,3.3596,3.3093,3.2717,3.4274,3.4956,3.5483,3.6128,3.7561,3.9195,4.0874,4.1225,4.1852,4.3514,4.4217,4.4794,4.5422,4.5974,4.61,4.5598,4.5547,4.5296,4.4719,4.4217,4.389,4.3815,4.3313,4.3011,4.2986,4.2986,4.2986,4.2986,4.2986,4.2986,4.2986,4.2986,4.2986,4.2986,4.2986,4.2986,4.2986,4.2986,4.2986,4.2986,4.2986,4.2986,4.2986,4.2986,4.2986,4.2986,4.2986,4.2986,4.2986,4.2986,4.2986,4.2986,4.2986,4.2986,4.2986,4.2986,4.2986,4.2986,4.2986,4.2986,4.2986,4.2986,4.2986,4.3295,4.4424,4.467,4.5315,4.7383,4.792,4.8324,4.9375,4.962,4.9717,4.9717,4.9717,4.9717,4.9717,4.9717,4.9326,4.8274,4.8951,4.9198,4.8223,4.9001,4.962,4.9669,4.9717,4.9149,4.7971,4.6816,4.666,4.7717,4.6764,4.7229,4.9424,4.8424,4.8374,4.9473,4.9473,4.9473,4.9424,4.8374,4.7819,2.9364,2.9679,3.0105,3.1386,3.2064,3.2867,3.4505,3.4876,3.5203,3.6508,3.6935,3.7262,3.7814,3.8718,3.9823,4.1075,4.163,4.2308,4.3614,4.4566,4.5093,4.4928,4.6346,4.6742,4.5087,4.5559,4.5502,4.4199,4.3915,4.3639,4.3313,4.3087,4.2986,4.2986,4.2986,4.2986,4.2986,4.2986,4.2986,4.2986,4.2986,4.2986,4.2986,4.2986,4.2986,4.2986,4.2986,4.2986,4.2986,4.2986,4.2986,4.2986,4.2986,4.2986,4.2986,4.2986,4.2986,4.2986,4.2986,4.2986,4.2986,4.2986,4.2986,4.2986,4.2986,4.2986,4.2986,4.2986,4.2986,4.2986,4.2986,4.2986,4.3462,4.5289,4.5714,4.6294,4.8574,4.905,4.9149,4.962,4.9717,4.9717,4.9717,4.9717,4.9717,4.9717,4.9717,4.9522,4.91,4.9424,4.9522,4.91,4.9424,4.9717,4.9717,4.9717,4.9522,4.905,4.8021,4.7536,4.7971,4.7615,4.8122,4.9669,4.9248,4.9248,4.9717,4.9717,4.9717,4.9669,4.9248,4.8902,2.9252,2.9503,3.0055,3.111,3.224,3.3545,3.5378,3.6107,3.686,3.8467,3.8793,3.8919,3.932,3.9546,4.0049,4.11,4.1656,4.2448,4.3868,4.4875,4.5467,4.5407,4.6933,4.7291,4.5598,4.6107,4.6038,4.469,4.4609,4.4288,4.3572,4.3572,4.3351,4.3042,4.2986,4.2986,4.2986,4.2986,4.2986,4.2986,4.2986,4.2986,4.2986,4.2986,4.2986,4.2986,4.2986,4.2986,4.2986,4.2986,4.2986,4.2986,4.2986,4.2986,4.2986,4.2986,4.2986,4.2986,4.2986,4.2986,4.2986,4.2986,4.2986,4.3098,4.3406,4.3295,4.3123,4.3609,4.3493,4.3263,4.3463,4.3518,4.4094,4.6115,4.6881,4.7715,4.9824,5.0278,5.0278,5.0278,5.0278,5.0278,5.0278,5.0133,5.0046,5.0249,5.0133,5.0046,5.0278,5.0278,5.0278,5.0278,4.993,4.9805,5.0037,4.9785,4.9717,4.9717,4.8951,4.8553,4.8553,4.8553,4.8902,4.9669,4.9717,4.9717,4.9717,4.9717,4.9785,5.0037,5.0037,4.996,2.993,2.9804,3.0055,3.1135,3.2265,3.3715,3.5927,3.6408,3.7211,3.9948,4.0501,4.0501,4.0501,4.0074,4.0049,4.11,4.1275,4.2084,4.4351,4.5166,4.5891,4.7028,4.7677,4.7785,4.727,4.7189,4.6945,4.6321,4.6267,4.5873,4.4778,4.4724,4.4206,4.3017,4.2961,4.2961,4.2961,4.2961,4.2961,4.2961,4.2961,4.2961,4.2986,4.2986,4.2986,4.2986,4.2986,4.2986,4.2986,4.2986,4.2986,4.2986,4.2986,4.2986,4.2986,4.2986,4.2986,4.2986,4.2986,4.2986,4.2986,4.2986,4.2986,4.3184,4.437,4.3878,4.3366,4.5045,4.4668,4.394,4.4468,4.4668,4.5151,4.692,4.8169,4.9478,5.1215,5.1614,5.1614,5.1614,5.1614,5.1614,5.1614,5.1091,5.0888,5.1527,5.1091,5.0917,5.1527,5.1614,5.1614,5.1614,5.0452,5.0008,5.0627,5.0124,4.9698,4.9698,4.9698,4.9746,4.9717,4.9717,4.9717,4.9717,4.9717,4.9717,4.9717,4.9746,5.0017,5.0734,5.0685,5.1033,2.9352,2.9779,3.0633,3.1712,3.3696,3.5801,3.7186,3.7538,3.799,3.9597,3.9948,3.9948,3.9948,3.9798,4.0049,4.11,4.1275,4.2084,4.4351,4.5501,4.6168,4.6538,4.8136,4.8499,4.6723,4.7298,4.7371,4.6399,4.6267,4.6162,4.5873,4.5101,4.4325,4.3586,4.2798,4.2208,4.1831,4.1831,4.1831,4.1831,4.2208,4.2665,4.2986,4.2986,4.2986,4.2986,4.2986,4.2986,4.2986,4.2986,4.2986,4.2986,4.2986,4.2986,4.2986,4.2986,4.2986,4.2986,4.2986,4.2986,4.2986,4.2986,4.2986,4.3184,4.437,4.3878,4.3366,4.5045,4.4668,4.4143,4.5531,4.6497,4.719,4.7758,4.8777,5.0016,5.1302,5.1614,5.1614,5.1614,5.1614,5.1614,5.1614,5.1468,5.141,5.1585,5.1468,5.141,5.1585,5.1614,5.1614,5.1614,5.1265,5.112,5.1323,5.1149,5.1033,5.1033,5.1033,5.0627,4.9727,4.9717,4.9717,4.9717,4.9717,4.9717,4.9717,5.0162,5.0481,5.0685,5.1149,5.1672,2.9829,3.0557,3.1612,3.3101,3.4951,3.6807,3.8316,3.8843,3.9195,3.9873,4.0023,4.0023,4.0023,3.9848,3.9973,4.0824,4.1552,4.2704,4.4705,4.6132,4.7126,4.7587,4.8623,4.8775,4.7376,4.768,4.7638,4.6963,4.6913,4.6712,4.6228,4.5614,4.4702,4.3467,4.2804,4.2087,4.13,4.1275,4.1275,4.1275,4.1681,4.2007,4.2333,4.2785,4.2986,4.2986,4.2986,4.2986,4.2986,4.2986,4.2986,4.2986,4.2986,4.2986,4.2986,4.2986,4.2986,4.2986,4.2986,4.3295,4.3657,4.3657,4.3987,4.4507,4.5661,4.5182,4.4666,4.6329,4.6159,4.5835,4.7139,4.8488,4.9473,4.9225,5.0107,5.1218,5.2156,5.2368,5.2368,5.2368,5.2368,5.2368,5.2368,5.2165,5.2078,5.2339,5.2368,5.2368,5.2368,5.2165,5.2107,5.2339,5.1933,5.173,5.1962,5.1759,5.1614,5.1614,5.1614,5.1265,5.0481,5.0191,4.9979,4.9717,4.993,5.0124,5.0124,5.0714,5.1178,5.149,5.1817,5.2339,3.0809,3.1712,3.2767,3.5006,3.6157,3.7235,3.922,4.0074,4.045,4.045,4.045,4.045,4.045,4.0023,3.9873,4.0425,4.1878,4.3516,4.5186,4.6805,4.8254,4.9397,4.9001,4.8653,4.8653,4.813,4.7782,4.7782,4.7782,4.7376,4.6284,4.6139,4.5178,4.3203,4.2944,4.2318,4.1285,4.1178,4.1125,4.1125,4.1175,4.12,4.125,4.2359,4.2861,4.2911,4.2961,4.2986,4.2986,4.2986,4.2986,4.2986,4.2986,4.2986,4.2986,4.2986,4.2986,4.3042,4.3129,4.3823,4.4724,4.4832,4.5502,4.6476,4.7666,4.7177,4.6665,4.8339,4.845,4.8246,4.898,5.0409,5.1616,5.1243,5.1952,5.2804,5.3384,5.35,5.35,5.35,5.35,5.35,5.35,5.3036,5.2862,5.3442,5.35,5.35,5.35,5.3007,5.2862,5.3442,5.2484,5.202,5.2601,5.2136,5.1788,5.1788,5.1788,5.1759,5.1701,5.1091,5.0531,4.9872,5.0452,5.0772,5.0772,5.1381,5.1991,5.2623,5.2681,5.2978,2.9804,3.116,3.2842,3.5529,3.7588,3.9094,3.9597,3.9798,3.9873,3.9873,3.9873,3.9873,3.9873,3.9772,3.9873,4.0425,4.1517,4.2884,4.4563,4.5757,4.6951,4.8064,4.8072,4.7985,4.7985,4.7869,4.7782,4.7782,4.7782,4.7688,4.747,4.6602,4.5699,4.4789,4.3155,4.1929,4.1207,4.0438,4.0049,4.0049,4.0475,4.0701,4.0701,4.1379,4.1932,4.2414,4.2841,4.2986,4.2986,4.2986,4.2986,4.2986,4.2986,4.2986,4.2986,4.2986,4.2986,4.3129,4.4042,4.4507,4.4832,4.5661,4.611,4.6476,4.7666,4.7177,4.6665,4.8339,4.845,4.8464,5.0044,5.1036,5.1892,5.2718,5.314,5.3355,5.3471,5.35,5.35,5.35,5.35,5.35,5.35,5.3384,5.3355,5.35,5.35,5.35,5.35,5.3384,5.3355,5.35,5.3268,5.3152,5.3297,5.3181,5.3094,5.3094,5.3094,5.2891,5.2397,5.1759,5.1352,5.1207,5.1352,5.141,5.141,5.2049,5.2426,5.2623,5.3094,5.3384,2.9654,3.1386,3.3345,3.6383,3.8442,3.9697,3.9697,3.9697,3.9697,3.9697,3.9697,3.9697,3.9697,3.9697,3.9927,4.0696,4.1976,4.3349,4.4737,4.6095,4.711,4.7735,4.7521,4.7317,4.7317,4.7056,4.6882,4.6882,4.6882,4.6882,4.6882,4.6315,4.5628,4.4865,4.3739,4.2748,4.1963,4.1445,4.0945,4.0415,4.0696,4.0566,4.0149,4.0924,4.1505,4.1781,4.2333,4.264,4.2665,4.2861,4.2986,4.2986,4.2986,4.3351,4.3713,4.3184,4.3351,4.3878,4.4507,4.5047,4.5661,4.6764,4.7485,4.8044,4.8624,4.8424,4.8128,4.8972,4.9483,4.9985,5.0929,5.1856,5.273,5.3343,5.35,5.35,5.35,5.35,5.35,5.35,5.35,5.35,5.35,5.35,5.35,5.35,5.35,5.35,5.35,5.35,5.35,5.35,5.35,5.35,5.35,5.35,5.35,5.35,5.35,5.3355,5.3036,5.2717,5.2252,5.1643,5.1933,5.2078,5.2078,5.2717,5.3007,5.3036,5.3355,5.35,2.9352,3.1587,3.3997,3.7211,3.8793,3.9572,3.9672,3.9697,3.9697,3.9697,3.9697,3.9697,3.9697,3.9697,4.0032,4.1019,4.2511,4.3916,4.4956,4.6479,4.7462,4.7462,4.6998,4.665,4.665,4.6185,4.5895,4.5895,4.5895,4.5895,4.5895,4.5895,4.5475,4.4591,4.4406,4.389,4.3081,4.2889,4.2355,4.1468,4.1269,4.0743,3.9955,4.0679,4.105,4.1175,4.1781,4.2171,4.2384,4.272,4.3113,4.342,4.33,4.3987,4.4886,4.3932,4.4152,4.4993,4.5208,4.5873,4.6816,4.792,4.8951,4.9717,4.9717,4.9717,4.9717,4.9717,5.0627,5.1614,5.1614,5.2572,5.35,5.35,5.35,5.35,5.35,5.35,5.35,5.35,5.35,5.35,5.35,5.35,5.35,5.35,5.35,5.35,5.35,5.35,5.35,5.35,5.35,5.35,5.35,5.35,5.35,5.35,5.35,5.35,5.35,5.35,5.3007,5.1962,5.2455,5.2746,5.2746,5.3268,5.35,5.35,5.35,5.35,2.7369,3.0683,3.4474,3.7312,3.8492,3.912,3.9597,3.9697,3.9697,3.9697,3.9697,3.9697,3.9697,3.9697,4.0032,4.1019,4.2164,4.3287,4.4284,4.5448,4.6127,4.6127,4.6069,4.6011,4.6011,4.5924,4.5895,4.5895,4.5895,4.5895,4.5895,4.5895,4.5821,4.5685,4.4805,4.4266,4.4125,4.3225,4.2744,4.2598,4.1667,4.1119,4.0995,4.0235,4.0174,4.0651,4.1204,4.1966,4.2786,4.2442,4.3403,4.5044,4.4622,4.5128,4.6057,4.5899,4.5979,4.6242,4.7229,4.7666,4.7971,4.91,4.9571,4.9717,4.9717,4.9717,4.9717,4.9717,5.0627,5.1614,5.1614,5.2572,5.35,5.35,5.35,5.35,5.35,5.35,5.35,5.35,5.35,5.35,5.35,5.35,5.35,5.35,5.35,5.35,5.35,5.35,5.35,5.35,5.35,5.35,5.35,5.35,5.35,5.35,5.35,5.35,5.35,5.35,5.3442,5.3268,5.3326,5.3384,5.3384,5.3471,5.35,5.35,5.35,5.35,2.8423,3.126,3.4022,3.6483,3.7739,3.8542,3.9094,3.9471,3.9697,3.9697,3.9697,3.9697,3.9697,3.9697,4.0236,4.1864,4.2501,4.3368,4.4943,4.5595,4.5895,4.5895,4.5895,4.5895,4.5895,4.5895,4.5895,4.5895,4.5895,4.5895,4.5895,4.5895,4.5895,4.5895,4.5429,4.5201,4.5201,4.4759,4.4247,4.3606,4.1985,4.1518,4.2061,4.1045,4.0974,4.1789,4.1725,4.2035,4.2449,4.255,4.3361,4.4466,4.4282,4.5473,4.7177,4.6556,4.6684,4.7331,4.7819,4.8021,4.8173,4.9326,4.9717,4.9717,4.9717,4.9717,4.9805,5.0133,5.0917,5.1701,5.2049,5.2833,5.35,5.35,5.35,5.35,5.35,5.35,5.35,5.35,5.35,5.35,5.35,5.35,5.35,5.35,5.35,5.35,5.35,5.35,5.35,5.35,5.35,5.35,5.35,5.35,5.35,5.35,5.35,5.35,5.35,5.35,5.35,5.35,5.35,5.35,5.35,5.35,5.35,5.35,5.35,5.35,2.88,3.0758,3.2416,3.4947,3.6458,3.7563,3.8266,3.8868,3.9295,3.9446,3.9496,3.9521,3.9672,3.9929,4.0668,4.2501,4.3033,4.3796,4.564,4.5895,4.5895,4.5895,4.5895,4.5895,4.5895,4.5895,4.5895,4.5895,4.5895,4.5895,4.5895,4.5895,4.5895,4.5895,4.5895,4.5895,4.5895,4.5895,4.5338,4.4266,4.2716,4.2425,4.3177,4.211,4.2355,4.3539,4.264,4.2428,4.2681,4.2961,4.3643,4.4557,4.4594,4.6083,4.8126,4.7429,4.7689,4.8424,4.8424,4.8424,4.8603,4.9424,4.9717,4.9717,4.9717,4.9717,4.9834,5.0328,5.1004,5.173,5.2194,5.292,5.35,5.35,5.35,5.35,5.35,5.35,5.35,5.35,5.35,5.35,5.35,5.35,5.35,5.35,5.35,5.35,5.35,5.35,5.35,5.35,5.35,5.35,5.35,5.35,5.35,5.35,5.35,5.35,5.35,5.35,5.35,5.35,5.35,5.35,5.35,5.35,5.35,5.35,5.35,5.35,2.6691,2.7896,2.9151,3.2441,3.4474,3.5909,3.7036,3.7688,3.8241,3.8793,3.8969,3.9069,3.9597,4.0465,4.1468,4.2647,4.3606,4.4591,4.573,4.5895,4.5895,4.5895,4.5895,4.5895,4.5895,4.5895,4.5895,4.5895,4.5895,4.5895,4.5895,4.5895,4.5895,4.5895,4.5895,4.5895,4.5895,4.5895,4.5338,4.4312,4.4172,4.4172,4.4172,4.3177,4.3796,4.564,4.3634,4.33,4.4162,4.3715,4.4768,4.6656,4.6841,4.7616,4.8731,4.9291,4.9571,4.962,4.962,4.962,4.962,4.9669,4.9717,4.9717,4.9717,4.9717,4.9746,4.9727,5.0627,5.1643,5.1643,5.2601,5.35,5.35,5.35,5.35,5.35,5.35,5.35,5.35,5.35,5.35,5.35,5.35,5.35,5.35,5.35,5.35,5.35,5.35,5.35,5.35,5.35,5.35,5.35,5.35,5.35,5.35,5.35,5.35,5.35,5.35,5.35,5.35,5.35,5.35,5.35,5.35,5.35,5.35,5.35,5.35,2.5837,2.7118,2.8649,3.0934,3.2742,3.4248,3.5353,3.6584,3.7538,3.7739,3.8065,3.8366,3.8567,4.0003,4.1568,4.2647,4.3654,4.4666,4.573,4.5895,4.5895,4.5895,4.5895,4.5895,4.5895,4.5895,4.5895,4.5895,4.5895,4.5895,4.5895,4.5895,4.5895,4.5895,4.5895,4.5895,4.5895,4.5895,4.5685,4.5293,4.4666,4.4666,4.5293,4.4219,4.4573,4.585,4.511,4.462,4.4294,4.4113,4.4732,4.5903,4.6313,4.7393,4.8798,4.9436,4.9717,4.9717,4.9717,4.9717,4.9717,4.9717,4.9717,4.9717,4.9717,5.0037,5.0394,5.0801,5.1556,5.231,5.2717,5.3181,5.35,5.35,5.35,5.35,5.35,5.35,5.35,5.35,5.35,5.35,5.35,5.35,5.35,5.35,5.35,5.35,5.35,5.35,5.35,5.35,5.35,5.35,5.35,5.35,5.35,5.35,5.35,5.35,5.35,5.35,5.35,5.35,5.35,5.35,5.35,5.35,5.35,5.35,5.35,5.35,2.4958,2.6138,2.772,2.9578,3.0884,3.2164,3.4022,3.5152,3.6006,3.6807,3.7475,3.7952,3.7989,3.9976,4.1818,4.2418,4.3631,4.4852,4.5747,4.5895,4.5895,4.5895,4.5895,4.5895,4.5895,4.5895,4.5895,4.5895,4.5895,4.5895,4.5895,4.5895,4.5895,4.5895,4.5895,4.5895,4.5895,4.5895,4.5895,4.5895,4.5201,4.5201,4.5895,4.5155,4.5247,4.5895,4.5895,4.5504,4.4851,4.4851,4.5107,4.559,4.6386,4.7415,4.8508,4.9378,4.9717,4.9717,4.9717,4.9717,4.9717,4.9717,4.9717,4.9717,4.9717,4.9988,5.0481,5.112,5.1759,5.2397,5.3036,5.3355,5.35,5.35,5.35,5.35,5.35,5.35,5.35,5.35,5.35,5.35,5.35,5.35,5.35,5.35,5.35,5.35,5.35,5.35,5.35,5.35,5.35,5.35,5.35,5.35,5.35,5.35,5.35,5.35,5.35,5.35,5.35,5.35,5.35,5.35,5.35,5.35,5.35,5.35,5.35,5.35,0.0,0.0,0.0,2.8236,2.8787,2.964,3.3011,3.3363,3.3614,3.5827,3.7073,3.7759,3.7909,4.0361,4.2238,4.2043,4.363,4.5082,4.575,4.5837,4.5837,4.5837,4.5837,4.5837,4.5866,4.5866,4.5866,4.5895,4.5895,4.5895,4.5895,4.5895,4.5895,4.5895,4.5895,4.5895,4.5895,4.5895,4.5895,4.5895,4.5895,4.5895,4.5895,4.5895,4.5895,4.5895,4.5895,4.5895,4.5895,4.5895,4.5895,4.6011,4.7288,4.7782,4.7927,4.9204,4.9717,4.9717,4.9717,4.9717,4.9717,4.9717,4.9717,4.9717,4.9717,4.9746,4.9892,5.0511,5.1149,5.1788,5.2426,5.3065,5.35,5.35,5.35,5.35,5.35,5.35,5.35,5.35,5.35,5.35,5.35,5.35,5.35,5.35,5.35,5.35,5.35,5.35,5.35,5.35,5.35,5.35,5.35,5.35,5.35,5.35,5.35,5.35,5.35,5.35,5.35,5.35,5.35,5.35,5.35,5.35,5.35,5.35,5.35,5.35,2.4104,0.0,0.0,0.0,0.0,0.0,2.9739,3.0228,3.0867,3.3614,3.4795,3.5722,3.7013,3.903,4.0699,4.1586,4.3152,4.4298,4.4501,4.4531,4.4531,4.4531,4.4531,4.4676,4.5111,4.5169,4.5372,4.5837,4.5895,4.5895,4.5895,4.5895,4.5895,4.5895,4.5895,4.5895,4.5895,4.5895,4.5895,4.5895,4.5895,4.5895,4.5895,4.5895,4.5895,4.5895,4.5895,4.5895,4.5895,4.5895,4.5895,4.6011,4.7288,4.7782,4.7927,4.9204,4.9717,4.9717,4.9717,4.9717,4.9717,4.9717,4.9717,4.9717,4.9717,5.0066,5.054,5.1178,5.1817,5.2455,5.3094,5.3384,5.35,5.35,5.35,5.35,5.35,5.35,5.35,5.35,5.35,5.35,5.35,5.35,5.35,5.35,5.35,5.35,5.35,5.35,5.35,5.35,5.35,5.35,5.35,5.35,5.35,5.35,5.35,5.35,5.35,5.35,5.35,5.35,5.35,5.35,5.35,5.35,5.35,5.35,5.35,5.35,2.4883,2.5234,2.603,2.6867,0.0,0.0,2.9776,2.9807,2.9954,3.3172,3.45,3.5345,3.621,3.8076,3.9609,3.9971,4.1566,4.3079,4.3892,4.3979,4.3979,4.3979,4.3979,4.4124,4.4472,4.4501,4.4676,4.5053,4.5082,4.5198,4.5459,4.5721,4.5895,4.5895,4.5895,4.5895,4.5895,4.5895,4.5895,4.5895,4.5895,4.5895,4.5895,4.5895,4.5895,4.5895,4.5895,4.5895,4.5895,4.5895,4.5895,4.6011,4.7288,4.7782,4.7927,4.9204,4.9717,4.9717,4.9717,4.9717,4.9717,4.9717,4.9717,4.9717,4.9717,4.9959,5.0394,5.1033,5.1875,5.2717,5.3355,5.35,5.35,5.35,5.35,5.35,5.35,5.35,5.35,5.35,5.35,5.35,5.35,5.35,5.35,5.35,5.35,5.35,5.35,5.35,5.35,5.35,5.35,5.35,5.35,5.35,5.35,5.35,5.35,5.35,5.35,5.35,5.35,5.35,5.35,5.35,5.35,5.35,5.35,5.35,5.35,5.35,2.6308,2.6739,2.7717,2.8777,2.7452,0.0,3.119,3.062,3.0065,3.3355,3.4803,3.544,3.5288,3.7225,3.8601,3.7755,3.9459,4.1541,4.3398,4.3747,4.3776,4.3776,4.3776,4.3805,4.3863,4.3892,4.3921,4.3979,4.3979,4.4211,4.4763,4.5343,4.5721,4.5779,4.5779,4.5808,4.5895,4.5895,4.5895,4.5895,4.5895,4.5895,4.5895,4.5895,4.5895,4.5895,4.5895,4.5895,4.5895,4.5895,4.5895,4.6011,4.7201,4.7724,4.7927,4.9117,4.9611,4.9717,4.9717,4.9717,4.9717,4.9717,4.9717,4.9717,4.9717,4.9717,4.9814,5.0481,5.1635,5.2688,5.3268,5.3471,5.35,5.35,5.35,5.35,5.35,5.35,5.35,5.35,5.35,5.35,5.35,5.35,5.35,5.35,5.35,5.35,5.35,5.35,5.35,5.35,5.35,5.35,5.35,5.35,5.35,5.35,5.35,5.35,5.35,5.35,5.35,5.35,5.35,5.35,5.35,5.35,5.35,5.35,5.35,5.35,2.8879,2.8669,2.8541,2.8654,2.8139,0.0,2.791,2.8443,2.9159,3.0135,3.1411,3.2785,3.4093,3.5715,3.6794,3.6612,3.8263,4.006,4.1453,4.2121,4.2469,4.2469,4.2469,4.2644,4.3137,4.3195,4.3398,4.395,4.3979,4.4037,4.4153,4.4298,4.4589,4.5053,4.5082,4.5343,4.5866,4.5895,4.5895,4.5895,4.5895,4.5895,4.5895,4.5895,4.5895,4.5895,4.5895,4.5895,4.5895,4.5895,4.5895,4.5953,4.6708,4.7317,4.7869,4.8624,4.9233,4.9717,4.9717,4.9717,4.9717,4.9717,4.9717,4.9717,4.9717,4.9717,4.9814,5.0481,5.1635,5.2652,5.2717,5.3123,5.35,5.35,5.35,5.35,5.35,5.35,5.35,5.35,5.35,5.35,5.35,5.35,5.35,5.35,5.35,5.35,5.35,5.35,5.35,5.35,5.35,5.35,5.35,5.35,5.35,5.35,5.35,5.35,5.35,5.35,5.35,5.35,5.35,5.35,5.35,5.35,5.35,5.35,5.35,5.35,3.061,3.0446,3.0515,3.0825,2.979,0.0,0.0,2.9418,2.9235,3.1041,3.1194,3.1397,3.2587,3.3955,3.4777,3.4457,3.6577,3.8492,3.9131,4.0292,4.1105,4.1105,4.1105,4.1337,4.1976,4.2034,4.2324,4.2992,4.3311,4.3485,4.3485,4.3805,4.4269,4.4879,4.4879,4.5198,4.5866,4.5895,4.5895,4.5895,4.5895,4.5895,4.5895,4.5895,4.5895,4.5895,4.5895,4.5895,4.5895,4.5895,4.5895,4.5953,4.6592,4.723,4.784,4.8508,4.9117,4.9717,4.9717,4.9717,4.9717,4.9717,4.9717,4.9717,4.9717,4.9717,4.9814,5.0481,5.1352,5.2165,5.2484,5.3036,5.35,5.35,5.35,5.35,5.35,5.35,5.35,5.35,5.35,5.35,5.35,5.35,5.35,5.35,5.35,5.35,5.35,5.35,5.35,5.35,5.35,5.35,5.35,5.35,5.35,5.35,5.35,5.35,5.35,5.35,5.35,5.35,5.35,5.35,5.35,5.35,5.35,5.35,5.35,5.35,3.2502,3.266,3.3126,3.3255,3.2004,3.1027,0.0,0.0,0.0,3.2138,3.1527,3.0772,3.1235,3.2106,3.26,3.2222,3.4516,3.6373,3.6373,3.7999,3.9334,3.9683,3.9741,4.0002,4.067,4.0495,4.0786,4.1831,4.2005,4.2295,4.2789,4.334,4.3892,4.4501,4.4647,4.5024,4.5692,4.5837,4.5895,4.5895,4.5895,4.5895,4.5895,4.5895,4.5895,4.5895,4.5895,4.5895,4.5895,4.5895,4.5895,4.5924,4.6446,4.7114,4.784,4.8362,4.903,4.9717,4.9717,4.9717,4.9717,4.9717,4.9717,4.9717,4.9717,4.9717,4.9785,5.0386,5.0946,5.1585,5.2223,5.2862,5.3355,5.3471,5.35,5.35,5.35,5.35,5.35,5.35,5.35,5.35,5.35,5.35,5.35,5.35,5.35,5.35,5.35,5.35,5.35,5.35,5.35,5.35,5.35,5.35,5.35,5.35,5.35,5.35,5.35,5.35,5.35,5.35,5.35,5.35,5.35,5.35,5.35,5.35,5.35,5.35,3.5747,3.6209,3.6187,3.4004,3.45,3.4414,3.019,0.0,3.1526,2.9639,0.0,3.0627,3.0685,0.0,0.0,3.0713,3.2077,3.3064,3.3064,3.469,3.6554,3.8231,3.8405,3.8667,3.9363,3.8405,3.8696,4.1047,3.9683,3.977,4.2063,4.2266,4.2586,4.3195,4.3776,4.4385,4.4995,4.5576,4.5895,4.5895,4.5895,4.5895,4.5895,4.5895,4.5895,4.5895,4.5895,4.5895,4.5895,4.5895,4.5895,4.5895,4.5982,4.6737,4.7782,4.7869,4.8653,4.9717,4.9717,4.9717,4.9717,4.9717,4.9717,4.9717,4.9717,4.9717,4.9746,4.9805,5.0278,5.0917,5.1556,5.2194,5.2833,5.3384,5.35,5.35,5.35,5.35,5.35,5.35,5.35,5.35,5.35,5.35,5.35,5.35,5.35,5.35,5.35,5.35,5.35,5.35,5.35,5.35,5.35,5.35,5.35,5.35,5.35,5.35,5.35,5.35,5.35,5.35,5.35,5.35,5.35,5.35,5.35,5.35,5.35,5.35,3.6431,3.6809,3.6867,3.5072,3.4893,3.4457,3.1555,3.0858,3.0712,3.0393,0.0,0.0,0.0,0.0,0.0,0.0,3.0858,3.1816,3.1438,3.2396,3.3703,3.5305,3.5479,3.5886,3.6903,3.6838,3.7476,3.9276,3.8347,3.8638,4.0815,4.1308,4.1976,4.2963,4.3253,4.3892,4.4879,4.5169,4.5488,4.5895,4.5895,4.5895,4.5895,4.5895,4.5895,4.5895,4.5895,4.5895,4.5895,4.5895,4.5895,4.5895,4.5895,4.6446,4.7288,4.7637,4.8362,4.9175,4.9553,4.9717,4.9717,4.9717,4.9717,4.9717,4.9717,4.9717,4.9717,4.9717,5.0211,5.083,5.1439,5.2107,5.2717,5.3355,5.35,5.35,5.35,5.35,5.35,5.35,5.35,5.35,5.35,5.35,5.35,5.35,5.35,5.35,5.35,5.35,5.35,5.35,5.35,5.35,5.35,5.35,5.35,5.35,5.35,5.35,5.35,5.35,5.35,5.35,5.35,5.35,5.35,5.35,5.35,5.35,5.35,5.35,3.7012,3.7447,3.7593,3.5625,3.4893,3.4196,3.2396,3.1322,3.0829,3.1409,3.0829,0.0,0.0,0.0,2.9668,2.9029,0.0,3.0568,3.0162,3.0451,3.1293,3.2745,3.3412,3.4201,3.5305,3.5299,3.6025,3.7825,3.6896,3.7302,3.9712,4.0466,4.1337,4.244,4.2818,4.3427,4.4356,4.4705,4.514,4.5605,4.5808,4.5895,4.5895,4.5895,4.5895,4.5895,4.5895,4.5895,4.5895,4.5895,4.5895,4.5895,4.5895,4.6156,4.6679,4.7491,4.8188,4.8827,4.9465,4.9717,4.9717,4.9717,4.9717,4.9717,4.9717,4.9717,4.9717,4.9717,5.0211,5.083,5.1439,5.2107,5.2717,5.3355,5.35,5.35,5.35,5.35,5.35,5.35,5.35,5.35,5.35,5.35,5.35,5.35,5.35,5.35,5.35,5.35,5.35,5.35,5.35,5.35,5.35,5.35,5.35,5.35,5.35,5.35,5.35,5.35,5.35,5.35,5.35,5.35,5.35,5.35,5.35,5.35,5.35,5.35,0.0,0.0,3.9102,3.5386,3.4893,3.4549,3.1382,3.208,3.3038,3.1758,3.2977,3.3848,3.2626,3.138,3.0335,2.9668,2.9116,0.0,0.0,2.8796,2.9464,3.1321,3.3238,3.4632,3.5334,3.3703,3.3935,3.7099,3.5009,3.5276,3.9015,3.9799,4.0437,4.1134,4.2353,4.3021,4.305,4.4269,4.4908,4.4937,4.5576,4.5895,4.5895,4.5895,4.5895,4.5895,4.5895,4.5895,4.5895,4.5895,4.5895,4.5895,4.5895,4.5895,4.6069,4.7317,4.8188,4.8827,4.9465,4.9717,4.9717,4.9717,4.9717,4.9717,4.9717,4.9717,4.9717,4.9717,5.0211,5.083,5.1439,5.2107,5.2717,5.3355,5.35,5.35,5.35,5.35,5.35,5.35,5.35,5.35,5.35,5.35,5.35,5.35,5.35,5.35,5.35,5.35,5.35,5.35,5.35,5.35,5.35,5.35,5.35,5.35,5.35,5.35,5.35,5.35,5.35,5.35,5.35,5.35,5.35,5.35,5.35,5.35,5.35,5.35,0.0,0.0,4.006,3.707,0.0,0.0,0.0,0.0,0.0,0.0,0.0,0.0,0.0,3.1787,3.1003,3.0364,3.0104,2.9522,0.0,2.8042,2.8594,3.0074,3.1206,3.1613,3.1033,3.1903,3.2742,3.3409,3.3503,3.4811,3.7796,3.8928,4.0002,4.1076,4.1947,4.2586,4.2992,4.3863,4.4501,4.4908,4.5576,4.5895,4.5895,4.5895,4.5895,4.5895,4.5895,4.5895,4.5895,4.5895,4.5895,4.5895,4.5895,4.5895,4.5982,4.6824,4.755,4.8246,4.932,4.9717,4.9717,4.9717,4.9717,4.9717,4.9717,4.9717,4.9717,4.9717,4.9843,5.0278,5.1352,5.1788,5.2194,5.3268,5.35,5.35,5.35,5.35,5.35,5.35,5.35,5.35,5.35,5.35,5.35,5.35,5.35,5.35,5.35,5.35,5.35,5.35,5.35,5.35,5.35,5.35,5.35,5.35,5.35,5.35,5.35,5.35,5.35,5.35,5.35,5.35,5.35,5.35,5.35,5.35,5.35,5.35,4.0147,4.0583,0.0,3.8202,3.7302,0.0,3.3761,0.0,3.4491,0.0,0.0,0.0,0.0,0.0,0.0,0.0,0.0,0.0,0.0,2.749,2.8361,2.9174,3.0045,3.0569,3.0423,3.1061,3.1756,3.2452,3.2483,3.3678,0.0,3.8028,3.9334,4.0379,4.1512,4.2295,4.2673,4.3544,4.4182,4.4589,4.5459,4.5895,4.5895,4.5895,4.5895,4.5895,4.5895,4.5895,4.5895,4.5895,4.5895,4.5895,4.5895,4.5895,4.5953,4.6592,4.7375,4.8275,4.932,4.9717,4.9717,4.9717,4.9717,4.9717,4.9717,4.9717,4.9717,4.9717,4.9892,5.0278,5.1352,5.1788,5.2223,5.3268,5.35,5.35,5.35,5.35,5.35,5.35,5.35,5.35,5.35,5.35,5.35,5.35,5.35,5.35,5.35,5.35,5.35,5.35,5.35,5.35,5.35,5.35,5.35,5.35,5.35,5.35,5.35,5.35,5.35,5.35,5.35,5.35,5.35,5.35,5.35,5.35,5.35,5.35]}]]